     2              OBSERVATION DATA    GPS                 RINEX VERSION / TYPE
ASHTORIN MIT 08                                             PGM / RUN BY / DATE
                                                            COMMENT
Original Marker Name: COCH                                  COMMENT
Campaign Name: STRC/NBC 1997                                COMMENT
4-Character Station Name: COCH                              COMMENT
6-Character Antenna Code: DMRCHT                            COMMENT
Vertical Measurement Point: BCR                             COMMENT
Vertical Offset to Rinex Ref. Point: 0.0349                 COMMENT
Radial Measurement Point: ECF                               COMMENT
Radial Offset to Rinex Ref. Point: 0.1896                   COMMENT
Antenna Height from Field Measurement: 1.4130 m             COMMENT
Additional Antenna Identification Info.:                    COMMENT
Turborogue and Ashtech Choke Ring                           COMMENT
Original XYZ: 0.0000 0.0000 0.0000                          COMMENT
New XYZ position is based on association with SCEC monument COMMENT
E1D0T7Q5+0011. Position of that monument is believed to be  COMMENT
valid to within 1 m horizontally; vertical accuracy         COMMENT
should be no worse than 3-times this value.                 COMMENT
                                                            COMMENT
Revised Rinex header created by UCSD GPS archive for        COMMENT
GSAC on 17-Apr-1999 (1999:107) 01:52:55 GMT                 COMMENT
For assistance contact dagnew@ucsd.edu or hjohnson@ucsd.edu COMMENT
                                                            COMMENT
COACH 1931                                                  MARKER NAME
                                                            MARKER NUMBER
RER MASS INST. OF TECHNOLOGY                                OBSERVER / AGENCY
391 ASHTECH Z12-XII3 1E951D0                                REC # / TYPE / VERS
733 DORNE-MARGOL. TYPE T                                    ANT # / TYPE
 -2340633.0000 -4765554.0000  3522551.0000                  APPROX POSITION XYZ
        1.3653        0.0000        0.0000                  ANTENNA: DELTA H/E/N
     1     1     0                                          WAVELENGTH FACT L1/2
     7    L1    L2    C1    P1    P2    D1    D2            # / TYPES OF OBSERV
    30                                                      INTERVAL
  1997     3    10     0     0   30.000000                  TIME OF FIRST OBS
  1997     3    10    16     1   60.000000                  TIME OF LAST OBS
     0                                                      # OF SATELLITES
                                                            END OF HEADER
 97  3 10  0  0 30.0000000  0  8 30  2 24  4  9  5  7 16             0.000000000
  -5877661.537 8  -4296105.88345  24610675.674    24610675.7634   24610682.3594
        -0.000          -0.000
    623844.483 9    505174.93345  24528530.439    24528529.5824   24528537.9214
        -0.000          -0.000
 -29867343.926 9 -22655206.29449  20721682.460    20721681.9884   20721688.5154
        -0.000          -0.000
 -30774380.280 9 -22565227.44049  20893760.252    20893760.0314   20893765.3134
        -0.000          -0.000
 -27726855.820 9 -21577922.71248  21519099.782    21519099.2474   21519105.0874
        -0.000          -0.000
 -21963504.453 9 -16147568.83748  22067038.755    22067037.9284   22067043.9304
        -0.000          -0.000
 -17203676.896 9 -13385469.68146  23306933.498    23306932.5464   23306939.4844
        -0.000          -0.000
  -4247137.235 9  -2257978.08945  24742877.288    24742876.6124   24742884.0004
        -0.000          -0.000
 97  3 10  0  1  0.0000000  0  8 30  2 24  4  9  5  7 16             0.000445188
  -5993059.048 9  -4386025.94045  24588716.194    24588716.0774   24588722.5424
        -0.000          -0.000
    697478.275 8    562551.89745  24542542.544    24542541.6624   24542549.9964
        -0.000          -0.000
 -29923629.128 9 -22699064.86949  20710971.751    20710971.2634   20710977.7764
        -0.000          -0.000
 -30753224.983 9 -22548742.78749  20897785.942    20897785.7444   20897791.0284
        -0.000          -0.000
 -27716824.659 9 -21570106.23448  21521008.691    21521008.1364   21521013.9624
        -0.000          -0.000
 -22055865.065 9 -16219538.13148  22049463.193    22049462.3354   22049468.2594
        -0.000          -0.000
 -17153869.712 9 -13346658.91446  23316411.510    23316410.5254   23316417.5164
        -0.000          -0.000
  -4254050.430 8  -2263364.92845  24741561.562    24741560.8944   24741567.9694
        -0.000          -0.000
 97  3 10  0  1 30.0000000  0  7 30 24  4  9  5  7 16                0.000434090
  -6108478.262 9  -4475962.90245  24566752.695    24566752.6214   24566759.2864
        -0.000          -0.000
 -29979368.709 9 -22742498.28249  20700364.831    20700364.3664   20700370.8714
        -0.000          -0.000
 -30731515.418 9 -22531826.23749  20901917.145    20901916.9544   20901922.2364
        -0.000          -0.000
 -27706233.457 9 -21561853.35648  21523024.168    21523023.6114   21523029.4194
        -0.000          -0.000
 -22148044.385 9 -16291366.15148  22031922.067    22031921.1794   22031927.0984
        -0.000          -0.000
 -17104051.967 9 -13307839.92546  23325891.539    23325890.5124   23325897.5794
        -0.000          -0.000
  -4260456.270 9  -2268356.47045  24740342.355    24740341.6984   24740348.8284
        -0.000          -0.000
 97  3 10  0  2  0.0000000  0  7 30 24  4  9  5  7 16                0.000423051
  -6223907.865 9  -4565907.98345  24544787.208    24544786.9574   24544793.6514
        -0.000          -0.000
 -30034576.525 9 -22785517.33449  20689859.118    20689858.6494   20689865.1594
        -0.000          -0.000
 -30709263.997 9 -22514487.46649  20906151.449    20906151.2434   20906156.5454
        -0.000          -0.000
 -27695071.895 9 -21553156.03648  21525148.128    21525147.5804   21525153.4134
        -0.000          -0.000
 -22240043.687 9 -16363053.90148  22014415.147    22014414.3084   22014420.1894
        -0.000          -0.000
 -17054216.447 9 -13269007.07246  23335374.970    23335374.0064   23335381.0084
        -0.000          -0.000
  -4266339.075 8  -2272940.42845  24739223.021    24739222.2344   24739229.3604
        -0.000          -0.000
 97  3 10  0  2 30.0000000  0  7 30 24  4  9  5  7 16                0.000412009
  -6339349.990 8  -4655862.88045  24522819.311    24522819.2564   24522825.7014
        -0.000          -0.000
 -30089291.900 9 -22828152.66549  20679447.096    20679446.6474   20679453.1464
        -0.000          -0.000
 -30686491.598 9 -22496742.73849  20910484.886    20910484.6734   20910489.9484
        -0.000          -0.000
 -27683380.468 9 -21544045.84348  21527372.892    21527372.3504   21527378.1824
        -0.000          -0.000
 -22331884.004 9 -16434617.77348  21996938.522    21996937.6574   21996943.4984
        -0.000          -0.000
 -17004358.316 9 -13230156.60546  23344862.706    23344861.7394   23344868.7384
        -0.000          -0.000
  -4271702.995 8  -2277120.11245  24738201.751    24738200.9714   24738208.9014
        -0.000          -0.000
 97  3 10  0  3  0.0000000  0  7 30 24  4  9  5  7 16                0.000400980
  -6454765.606 9  -4745796.99845  24500856.153    24500856.3494   24500862.8484
        -0.000          -0.000
 -30143488.694 9 -22870383.91049  20669133.756    20669133.2974   20669139.8094
        -0.000          -0.000
 -30663164.867 9 -22478566.06249  20914923.830    20914923.6304   20914928.9014
        -0.000          -0.000
 -27671137.106 9 -21534505.56748  21529702.717    21529702.1774   21529708.0354
        -0.000          -0.000
 -22423525.402 9 -16506026.63448  21979499.651    21979498.8104   21979504.7254
        -0.000          -0.000
 -16954444.256 9 -13191262.56246  23354361.082    23354360.0634   23354367.1054
        -0.000          -0.000
  -4276519.680 9  -2280873.39345  24737284.927    24737284.2034   24737292.8224
        -0.000          -0.000
 97  3 10  0  3 30.0000000  0  7 30 24  4  9  5  7 16                0.000389970
  -6570170.547 9  -4835722.92945  24478895.576    24478895.6344   24478901.9464
        -0.000          -0.000
 -30197187.238 9 -22912226.90249  20658915.230    20658914.7914   20658921.2914
        -0.000          -0.000
 -30639334.760 9 -22459997.14449  20919458.528    20919458.3304   20919463.5924
        -0.000          -0.000
 -27658361.516 9 -21524550.57148  21532133.832    21532133.2944   21532139.1634
        -0.000          -0.000
 -22514995.218 9 -16577301.79648  21962093.560    21962092.7104   21962098.5714
        -0.000          -0.000
 -16904484.120 9 -13152332.60246  23363868.232    23363867.2214   23363874.2334
        -0.000          -0.000
  -4280821.218 8  -2284225.23845  24736466.756    24736465.9704   24736474.9554
        -0.000          -0.000
 97  3 10  0  4  0.0000000  0  7 30 24  4  9  5  7 16                0.000378973
  -6685586.299 8  -4925657.19445  24456932.366    24456932.3484   24456938.9564
        -0.000          -0.000
 -30250390.959 9 -22953684.32849  20648790.907    20648790.4504   20648796.9444
        -0.000          -0.000
 -30615024.397 9 -22441054.00549  20924084.606    20924084.3984   20924089.6864
        -0.000          -0.000
 -27645066.168 9 -21514190.57148  21534663.864    21534663.3234   21534669.1984
        -0.000          -0.000
 -22606309.129 9 -16648455.47448  21944717.055    21944716.1794   21944722.0894
        -0.000          -0.000
 -16854486.642 9 -13113373.55446  23373382.444    23373381.4854   23373388.4114
        -0.000          -0.000
  -4284622.188 8  -2287187.04245  24735743.505    24735742.7134   24735751.7484
        -0.000          -0.000
 97  3 10  0  4 30.0000000  0  7 30 24  4  9  5  7 16                0.000367960
  -6801027.376 9  -5015611.22845  24434964.686    24434964.6164   24434971.4184
        -0.000          -0.000
 -30303076.718 9 -22994738.13749  20638765.118    20638764.6704   20638771.1574
        -0.000          -0.000
 -30590216.229 9 -22421722.95949  20928805.451    20928805.2604   20928810.5244
        -0.000          -0.000
 -27631265.475 9 -21503436.79148  21537290.092    21537289.5354   21537295.4134
        -0.000          -0.000
 -22697464.166 9 -16719485.35148  21927370.802    21927369.9584   21927375.8614
        -0.000          -0.000
 -16804458.368 9 -13074390.51246  23382902.562    23382901.6154   23382908.4814
        -0.000          -0.000
  -4287943.680 8  -2289775.22645  24735111.225    24735110.5594   24735119.3494
        -0.000          -0.000
 97  3 10  0  5  0.0000000  0  7 30 24  4  9  5  7 16                0.000356946
  -6916483.554 9  -5105577.01345  24412994.183    24412994.0364   24413000.8594
        -0.000          -0.000
 -30355204.223 9 -23035356.94849  20628845.561    20628845.1084   20628851.6064
        -0.000          -0.000
 -30564891.760 9 -22401989.60649  20933624.529    20933624.3334   20933629.5984
        -0.000          -0.000
 -27616935.620 9 -21492270.68148  21540016.973    21540016.4274   21540022.3044
        -0.000          -0.000
 -22788429.103 9 -16790367.09548  21910060.742    21910059.8714   21910065.8124
        -0.000          -0.000
 -16754394.686 9 -13035379.87746  23392429.369    23392428.4194   23392435.3024
        -0.000          -0.000
  -4290777.008 8  -2291982.97245  24734572.436    24734571.6434   24734579.7994
        -0.000          -0.000
 97  3 10  0  5 30.0000000  0  7 30 24  4  9  5  7 16                0.000345939
  -7031941.843 8  -5195544.45045  24391023.058    24391022.8474   24391029.4624
        -0.000          -0.000
 -30406754.286 9 -23075525.80049  20619035.894    20619035.4294   20619041.9164
        -0.000          -0.000
 -30539054.267 9 -22381856.49449  20938541.258    20938541.0504   20938546.3234
        -0.000          -0.000
 -27602068.696 9 -21480686.07348  21542846.044    21542845.5084   21542851.3874
        -0.000          -0.000
 -22879187.237 9 -16861087.69248  21892789.965    21892789.1474   21892795.0864
        -0.000          -0.000
 -16704291.949 9 -12996338.80546  23401963.703    23401962.6784   23401969.5734
        -0.000          -0.000
  -4293098.361 9  -2293791.78345  24734130.772    24734129.9574   24734137.5314
        -0.000          -0.000
 97  3 10  0  6  0.0000000  0  7 30 24  4  9  5  7 16                0.000334936
  -7147387.899 9  -5285502.34945  24369054.511    24369054.1954   24369060.9144
        -0.000          -0.000
 -30457720.915 9 -23115240.03049  20609337.242    20609336.7834   20609343.2584
        -0.000          -0.000
 -30512684.849 9 -22361308.89249  20943559.151    20943558.9564   20943564.2124
        -0.000          -0.000
 -27586668.194 9 -21468685.68848  21545776.665    21545776.1404   21545782.0554
        -0.000          -0.000
 -22969722.423 9 -16931634.56548  21875561.675    21875560.8454   21875566.7934
        -0.000          -0.000
 -16654149.126 9 -12957266.50046  23411505.581    23411504.6624   23411511.3964
        -0.000          -0.000
  -4294888.423 9  -2295186.56445  24733790.526    24733789.8224   24733796.6044
        -0.000          -0.000
 97  3 10  0  6 30.0000000  0  7 30 24  4  9  5  7 16                0.000323930
  -7262818.043 9  -5375447.81545  24347088.751    24347088.1924   24347095.1704
        -0.000          -0.000
 -30508111.217 9 -23154505.17449  20599748.251    20599747.7814   20599754.2434
        -0.000          -0.000
 -30485796.019 9 -22340356.55649  20948675.961    20948675.7434   20948681.0054
        -0.000          -0.000
 -27570743.872 9 -21456277.14148  21548806.989    21548806.4724   21548812.3644
        -0.000          -0.000
 -23060028.710 9 -17002003.07448  21858376.969    21858376.1214   21858382.0904
        -0.000          -0.000
 -16603973.580 9 -12918168.70846  23421053.711    23421052.7424   23421059.4714
        -0.000          -0.000
  -4296148.135 9  -2296168.10945  24733551.143    24733550.1894   24733557.1514
        -0.000          -0.000
 97  3 10  0  7  0.0000000  0  7 30 24  4  9  5  7 16                0.000312940
  -7378230.611 8  -5465379.57945  24325126.372    24325125.9774   24325133.0174
        -0.000          -0.000
 -30557953.542 9 -23193343.32649  20590263.582    20590263.1274   20590269.5684
        -0.000          -0.000
 -30458424.804 9 -22319028.33449  20953884.511    20953884.2984   20953889.5664
        -0.000          -0.000
 -27554296.034 9 -21443460.65248  21551936.926    21551936.4054   21551942.2994
        -0.000          -0.000
 -23150118.474 9 -17072202.86348  21841233.476    21841232.6194   21841238.5534
        -0.000          -0.000
 -16553776.423 9 -12879054.06646  23430605.901    23430604.9594   23430611.7204
        -0.000          -0.000
  -4296870.178 9  -2296730.75745  24733413.566    24733412.4664   24733420.0544
        -0.000          -0.000
 97  3 10  0  7 30.0000000  0  7 30 24  4  9  5  7 16                0.000301980
  -7493614.935 9  -5555289.40545  24303169.451    24303169.1254   24303175.8644
        -0.000          -0.000
 -30607257.088 9 -23231761.65349  20580881.407    20580880.9434   20580887.3884
        -0.000          -0.000
 -30430576.537 9 -22297328.38649  20959183.873    20959183.6594   20959188.9444
        -0.000          -0.000
 -27537318.301 9 -21430231.26448  21555167.699    21555167.1784   21555173.0694
        -0.000          -0.000
 -23239999.190 9 -17142239.75848  21824129.722    21824128.8604   21824134.7924
        -0.000          -0.000
 -16503547.807 9 -12839914.91446  23440164.144    23440163.1934   23440169.8644
        -0.000          -0.000
  -4297055.098 8  -2296874.85145  24733377.876    24733376.8814   24733384.8494
        -0.000          -0.000
 97  3 10  0  8  0.0000000  0  7 30 24  4  9  5  7 16                0.000291033
  -7608975.597 8  -5645180.67845  24281216.957    24281216.5844   24281223.6114
        -0.000          -0.000
 -30656040.933 9 -23269775.01649  20571598.156    20571597.6694   20571604.1224
        -0.000          -0.000
 -30402240.233 9 -22275248.15049  20964576.089    20964575.8664   20964581.1524
        -0.000          -0.000
 -27519821.639 9 -21416597.51748  21558497.195    21558496.6534   21558502.5724
        -0.000          -0.000
 -23329672.884 9 -17212115.34348  21807065.347    21807064.4734   21807070.4434
        -0.000          -0.000
 -16453273.489 9 -12800740.14446  23449731.085    23449730.0004   23449736.8054
        -0.000          -0.000
  -4296716.628 9  -2296611.11445  24733441.934    24733440.9564   24733448.9354
        -0.000          -0.000
 97  3 10  0  8 30.0000000  0  8 30 24  4  9  5  7 10 16             0.000280101
  -7724325.600 9  -5735063.78345  24259266.504    24259266.3304   24259273.0364
        -0.000          -0.000
 -30704319.792 9 -23307394.88449  20562410.956    20562410.4794   20562416.9164
        -0.000          -0.000
 -30373424.806 9 -22252794.56749  20970059.471    20970059.2704   20970064.5594
        -0.000          -0.000
 -27501805.452 9 -21402558.94448  21561925.589    21561925.0504   21561930.9564
        -0.000          -0.000
 -23419151.389 9 -17281838.83448  21790038.156    21790037.2714   21790043.2484
        -0.000          -0.000
 -16402970.513 9 -12761543.03346  23459303.404    23459302.3724   23459309.1514
        -0.000          -0.000
  -3900381.36018  -2771204.17355  24726646.502    24726645.4705   24726654.3265
        -0.000          -0.000
       517.26119       222.77352         0.000           0.0005          0.0005
        -0.000          -0.000
 97  3 10  0  9  0.0000000  0  8 30 24  4  9  5  7 10 16             0.000269174
  -7839665.272 9  -5824938.69045  24237317.913    24237317.8334   24237324.8554
        -0.000          -0.000
 -30752106.478 9 -23344631.24049  20553317.441    20553316.9754   20553323.4104
        -0.000          -0.000
 -30344134.916 9 -22229971.27949  20975633.144    20975632.9224   20975638.2124
        -0.000          -0.000
 -27483279.608 9 -21388123.23248  21565450.946    21565450.3994   21565456.3064
        -0.000          -0.000
 -23508434.591 9 -17351410.13748  21773048.082    21773047.1834   21773053.1764
        -0.000          -0.000
 -16352650.130 9 -12722332.38046  23468878.971    23468877.9654   23468884.8414
        -0.000          -0.000
  -4010725.053 9  -2857186.04645  24705648.778    24705647.7254   24705656.9124
        -0.000          -0.000
      1883.326 9      1287.53754         0.000           0.0004   24733870.0375
        -0.000          -0.000
 97  3 10  0  9 30.0000000  0  8 30 24  4  9  5  7 10 16             0.000258245
  -7954996.031 9  -5914806.79145  24215371.370    24215371.0894   24215377.8634
        -0.000          -0.000
 -30799379.342 9 -23381467.22249  20544321.676    20544321.2224   20544327.6574
        -0.000          -0.000
 -30314355.644 9 -22206766.65649  20981299.927    20981299.7284   20981305.0204
        -0.000          -0.000
 -27464254.153 9 -21373298.22248  21569071.383    21569070.8634   21569076.7294
        -0.000          -0.000
 -23597508.109 9 -17420818.05448  21756097.970    21756097.0674   21756103.0424
        -0.000          -0.000
 -16302306.612 9 -12683103.69446  23478459.053    23478458.0214   23478464.9814
        -0.000          -0.000
  -4121163.003 8  -2943241.51945  24684633.253    24684632.0264   24684641.1234
        -0.000          -0.000
      3759.65719      2749.62445  24734221.564    24734221.6055   24734230.5644
        -0.000          -0.000
 97  3 10  0 10  0.0000000  0  8 30 24  4  9  5  7 10 16             0.000247307
  -8070317.990 9  -6004667.98245  24193426.104    24193425.9704   24193432.7674
        -0.000          -0.000
 -30846126.784 9 -23417893.77949  20535425.914    20535425.4614   20535431.8724
        -0.000          -0.000
 -30284073.786 9 -22183170.40849  20987062.369    20987062.1594   20987067.4714
        -0.000          -0.000
 -27444728.870 9 -21358083.72748  21572786.936    21572786.3814   21572792.2504
        -0.000          -0.000
 -23686365.484 9 -17490057.54548  21739188.967    21739188.0734   21739194.0374
        -0.000          -0.000
 -16251944.443 9 -12643860.46446  23488042.682    23488041.6174   23488048.5984
        -0.000          -0.000
  -4231711.903 9  -3029383.35945  24663596.366    24663595.2584   24663604.2874
        -0.000          -0.000
      6147.346 8      4610.16245  24734676.240    24734673.9014   24734683.4774
        -0.000          -0.000
 97  3 10  0 10 30.0000000  0  8 30 24  4  9  5  7 10 16             0.000236352
  -8185629.617 9  -6094521.14345  24171483.030    24171482.7104   24171489.3934
        -0.000          -0.000
 -30892334.688 9 -23453899.91349  20526632.864    20526632.3984   20526638.8164
        -0.000          -0.000
 -30253293.065 9 -22159185.42749  20992919.730    20992919.5444   20992924.8424
        -0.000          -0.000
 -27424690.883 9 -21342469.72048  21576600.018    21576599.4914   21576605.3654
        -0.000          -0.000
 -23775007.072 9 -17559128.89748  21722320.995    21722320.1014   21722326.0514
        -0.000          -0.000
 -16201577.620 9 -12604613.61446  23497627.071    23497626.0534   23497633.0794
        -0.000          -0.000
  -4342385.779 8  -3115622.56945  24642535.897    24642534.8784   24642543.7754
        -0.000          -0.000
      9044.328 8      6867.49645  24735225.703    24735224.2514   24735233.8864
        -0.000          -0.000
 97  3 10  0 11  0.0000000  0  8 30 24  4  9  5  7 10 16             0.000225384
  -8300923.520 9  -6184360.45845  24149543.183    24149543.0604   24149549.8944
        -0.000          -0.000
 -30937993.508 9 -23489478.19549  20517944.269    20517943.7834   20517950.1964
        -0.000          -0.000
 -30222015.358 9 -22134813.19049  20998871.694    20998871.5144   20998876.8104
        -0.000          -0.000
 -27404144.878 9 -21326459.85948  21580509.818    21580509.2944   21580515.1654
        -0.000          -0.000
 -23863422.338 9 -17628023.89448  21705496.142    21705495.2684   21705501.1974
        -0.000          -0.000
 -16151192.404 9 -12565352.43846  23507215.093    23507213.9654   23507221.0524
        -0.000          -0.000
  -4453175.273 9  -3201951.89945  24621452.990    24621451.9334   24621460.8514
        -0.000          -0.000
     12447.995 8      9519.75445  24735873.114    24735871.8824   24735881.4454
        -0.000          -0.000
 97  3 10  0 11 30.0000000  0  8 30 24  4  9  5  7 10 16             0.000214413
  -8416184.559 9  -6274174.20945  24127609.564    24127609.4234   24127616.2774
        -0.000          -0.000
 -30983087.608 9 -23524616.43849  20509363.147    20509362.6844   20509369.0734
        -0.000          -0.000
 -30190229.162 9 -22110044.73049  21004920.426    21004920.2464   21004925.5214
        -0.000          -0.000
 -27383071.318 9 -21310038.91948  21584520.015    21584519.4884   21584525.3364
        -0.000          -0.000
 -23951612.971 9 -17696743.85448  21688713.996    21688713.1164   21688719.0494
        -0.000          -0.000
 -16100765.510 9 -12526058.76946  23516811.020    23516809.9614   23516817.0014
        -0.000          -0.000
  -4564061.918 9  -3288356.93645  24600352.099    24600351.0024   24600359.9404
        -0.000          -0.000
     16364.688 9     12571.69445  24736618.705    24736617.5444   24736627.0204
        -0.000          -0.000
 97  3 10  0 12  0.0000000  0  8 30 24  4  9  5  7 10 16             0.000203439
  -8531421.313 9  -6363969.06045  24105681.023    24105680.7164   24105687.3294
        -0.000          -0.000
 -31027654.532 9 -23559343.89249  20500882.340    20500881.8654   20500888.2384
        -0.000          -0.000
 -30157954.470 9 -22084895.62049  21011062.097    21011061.9144   21011067.1864
        -0.000          -0.000
 -27361471.828 9 -21293208.16548  21588630.288    21588629.7624   21588635.5944
        -0.000          -0.000
 -24039595.201 9 -17765301.41448  21671971.477    21671970.6174   21671976.5074
        -0.000          -0.000
 -16050299.970 9 -12486734.99646  23526414.328    23526413.2334   23526420.3424
        -0.000          -0.000
  -4675042.787 8  -3374835.32945  24579232.658    24579231.5134   24579240.8094
        -0.000          -0.000
     20783.035 9     16014.62245  24737460.107    24737458.9624   24737467.7994
        -0.000          -0.000
 97  3 10  0 12 30.0000000  0  8 30 24  4  9  5  7 10 16             0.000192477
  -8646633.075 9  -6453744.37945  24083756.669    24083756.5024   24083763.2854
        -0.000          -0.000
 -31071702.050 9 -23593666.61749  20492500.358    20492499.8984   20492506.2624
        -0.000          -0.000
 -30125215.759 9 -22059384.94249  21017292.042    21017291.8824   21017297.1464
        -0.000          -0.000
 -27339348.209 9 -21275968.99648  21592840.292    21592839.7684   21592845.5904
        -0.000          -0.000
 -24127352.606 9 -17833683.78848  21655271.818    21655270.9484   21655276.8514
        -0.000          -0.000
 -15999788.824 9 -12447375.68246  23536026.319    23536025.2194   23536032.3104
        -0.000          -0.000
  -4786085.241 9  -3461361.77945  24558101.949    24558100.8904   24558109.9464
        -0.000          -0.000
     25710.200 8     19854.04445  24738397.903    24738396.7844   24738404.9054
        -0.000          -0.000
 97  3 10  0 13  0.0000000  0  8 30 24  4  9  5  7 10 16             0.000181531
  -8761831.670 9  -6543509.42746  24061835.087    24061834.9184   24061841.5494
        -0.000          -0.000
 -31115237.903 9 -23627590.64349  20484215.777    20484215.3034   20484221.6424
        -0.000          -0.000
 -30092040.827 9 -22033534.35249  21023605.058    21023604.8814   21023610.1594
        -0.000          -0.000
 -27316723.952 9 -21258339.72048  21597145.556    21597145.0184   21597150.8394
        -0.000          -0.000
 -24214894.659 9 -17901898.35648  21638613.085    21638612.2304   21638618.1314
        -0.000          -0.000
 -15949237.193 9 -12407984.83546  23545645.999    23545644.8894   23545651.9214
        -0.000          -0.000
  -4897172.484 8  -3547923.07245  24536962.630    24536961.5074   24536970.5884
        -0.000          -0.000
     31140.377 9     24085.32645  24739431.197    24739430.1684   24739438.6074
        -0.000          -0.000
 97  3 10  0 13 30.0000000  0  7 30 24  4  9  5  7 10                0.000170617
  -8877013.286 8  -6633261.30245  24039916.692    24039916.5044   24039922.9874
        -0.000          -0.000
 -31158252.821 9 -23661108.74549  20476030.300    20476029.8304   20476036.1534
        -0.000          -0.000
 -30058424.979 9 -22007340.18949  21030001.957    21030001.7634   21030007.0524
        -0.000          -0.000
 -27293599.852 9 -21240320.95648  21601545.929    21601545.4114   21601551.2244
        -0.000          -0.000
 -24302219.311 9 -17969943.52248  21621995.741    21621994.8944   21622000.7764
        -0.000          -0.000
 -15898645.807 9 -12368563.01246  23555273.229    23555272.2244   23555279.1814
        -0.000          -0.000
  -5008295.103 9  -3634511.95045  24515816.668    24515815.5134   24515824.5754
        -0.000          -0.000
 97  3 10  0 14  0.0000000  0  7 30 24  4  9  5  7 10                0.000159699
  -8992198.697 9  -6723016.09646  24017997.598    24017997.5964   24018004.0204
        -0.000          -0.000
 -31200740.490 9 -23694216.00149  20467945.159    20467944.6974   20467951.0204
        -0.000          -0.000
 -30024372.166 9 -21980805.53049  21036481.959    21036481.7874   21036487.0764
        -0.000          -0.000
 -27269991.389 9 -21221924.76348  21606038.487    21606037.9614   21606043.7944
        -0.000          -0.000
 -24389328.055 9 -18037820.44548  21605419.457    21605418.6204   21605424.4644
        -0.000          -0.000
 -15848040.513 9 -12329130.35146  23564903.236    23564902.1484   23564909.1384
        -0.000          -0.000
  -5119457.587 8  -3721131.90745  24494662.956    24494661.8304   24494670.9744
        -0.000          -0.000
 97  3 10  0 14 30.0000000  0  7 30 24  4  9  5  7 10                0.000148779
  -9107373.676 9  -6812762.80055  23996080.525    23996080.4494   23996086.6105
        -0.000          -0.000
 -31242660.240 9 -23726880.72549  20459968.047    20459967.5994   20459973.9234
        -0.000          -0.000
 -29989857.286 9 -21953910.82149  21043049.924    21043049.7604   21043055.0224
        -0.000          -0.000
 -27245891.553 9 -21203145.67848  21610624.530    21610623.9964   21610629.8424
        -0.000          -0.000
 -24476205.505 9 -18105517.14148  21588887.232    21588886.3854   21588892.2424
        -0.000          -0.000
 -15797418.789 9 -12289684.86846  23574536.239    23574535.1394   23574542.1594
        -0.000          -0.000
  -5230657.762 9  -3807781.19545  24473502.179    24473501.1874   24473510.2804
        -0.000          -0.000
 97  3 10  0 15  0.0000000  0  7 30 24  4  9  5  7 10                0.000137860
  -9222507.739 9  -6902477.53046  23974171.158    23974171.0164   23974177.4904
        -0.000          -0.000
 -31283985.557 9 -23759082.25349  20452104.076    20452103.6234   20452109.9484
        -0.000          -0.000
 -29954840.048 9 -21926624.66548  21049713.493    21049713.3074   21049718.5734
        -0.000          -0.000
 -27221281.397 9 -21183968.94648  21615307.639    21615307.1044   21615312.9604
        -0.000          -0.000
 -24562853.091 9 -18173034.72348  21572398.772    21572397.8904   21572403.7224
        -0.000          -0.000
 -15746770.427 9 -12250218.64546  23584174.287    23584173.3164   23584180.3444
        -0.000          -0.000
  -5341893.065 8  -3894457.93245  24452334.664    24452333.4034   24452342.4824
        -0.000          -0.000
 97  3 10  0 15 30.0000000  0  7 30 24  4  9  5  7 10                0.000126927
  -9337611.580 9  -6992168.84146  23952267.738    23952267.6024   23952273.8024
        -0.000          -0.000
 -31324745.423 9 -23790843.17449  20444347.707    20444347.2534   20444353.5714
        -0.000          -0.000
 -29919333.533 9 -21898957.25048  21056470.132    21056469.9594   21056475.2434
        -0.000          -0.000
 -27196173.674 9 -21164404.50048  21620085.439    21620084.9274   21620090.7704
        -0.000          -0.000
 -24649284.359 9 -18240383.74048  21555951.471    21555950.5964   21555956.4024
        -0.000          -0.000
 -15696117.557 9 -12210748.89846  23593813.195    23593812.2434   23593819.1664
        -0.000          -0.000
  -5453193.485 8  -3981185.37445  24431154.977    24431153.8344   24431162.9444
        -0.000          -0.000
 97  3 10  0 16  0.0000000  0  7 30 24  4  9  5  7 10                0.000115982
  -9452682.840 9  -7081834.64046  23930370.309    23930370.2404   23930376.5694
        -0.000          -0.000
 -31364955.720 9 -23822175.85649  20436695.959    20436695.5104   20436701.7874
        -0.000          -0.000
 -29883348.980 9 -21870917.33848  21063317.758    21063317.5894   21063322.8694
        -0.000          -0.000
 -27170552.267 9 -21144439.77748  21624961.065    21624960.5414   21624966.4124
        -0.000          -0.000
 -24735488.632 9 -18307555.88648  21539547.301    21539546.4624   21539552.2444
        -0.000          -0.000
 -15645455.451 9 -12171271.97746  23603453.901    23603452.8884   23603459.9354
        -0.000          -0.000
  -5564562.564 9  -4067966.28145  24409961.622    24409960.5974   24409969.4874
        -0.000          -0.000
 97  3 10  0 16 30.0000000  0  7 30 24  4  9  5  7 10                0.000105027
  -9567722.833 9  -7171476.18646  23908478.931    23908478.7854   23908484.9664
        -0.000          -0.000
 -31404656.191 9 -23853111.27349  20429141.201    20429140.7504   20429147.0364
        -0.000          -0.000
 -29846919.067 9 -21842530.39448  21070250.178    21070250.0194   21070255.2794
        -0.000          -0.000
 -27144439.935 9 -21124092.51648  21629930.100    21629929.5714   21629935.4744
        -0.000          -0.000
 -24821471.320 9 -18374555.36548  21523185.292    21523184.4604   21523190.2264
        -0.000          -0.000
 -15594794.314 9 -12131795.78846  23613094.367    23613093.3564   23613100.5164
        -0.000          -0.000
  -5676018.783 8  -4154815.25445  24388752.280    24388751.3094   24388759.6544
        -0.000          -0.000
 97  3 10  0 17  0.0000000  0  7 30 24  4  9  5  7 10                0.000094068
  -9682720.866 9  -7261084.94546  23886595.412    23886595.4034   23886601.6144
        -0.000          -0.000
 -31443861.780 9 -23883661.06549  20421680.616    20421680.1754   20421686.4284
        -0.000          -0.000
 -29810064.286 9 -21813812.38048  21077263.402    21077263.2344   21077268.5034
        -0.000          -0.000
 -27117846.212 9 -21103370.14848  21634990.748    21634990.1984   21634996.0754
        -0.000          -0.000
 -24907228.296 9 -18441378.96248  21506866.218    21506865.4074   21506871.1524
        -0.000          -0.000
 -15544134.108 9 -12092320.34446  23622734.716    23622733.6124   23622740.9004
        -0.000          -0.000
  -5787556.019 8  -4241727.12445  24367526.886    24367525.9824   24367534.9044
        -0.000          -0.000
 97  3 10  0 17 30.0000000  0  7 30 24  4  9  5  7 10                0.000083119
  -9797682.955 9  -7350665.75446  23864718.760    23864718.7194   23864724.8774
        -0.000          -0.000
 -31482574.629 9 -23913826.90949  20414313.799    20414313.3354   20414319.6124
        -0.000          -0.000
 -29772785.736 9 -21784764.16148  21084357.297    21084357.1334   21084362.4004
        -0.000          -0.000
 -27090768.159 9 -21082270.38048  21640143.544    21640143.0014   21640148.8744
        -0.000          -0.000
 -24992725.753 9 -18508000.33448  21490596.593    21490595.7504   21490601.5274
        -0.000          -0.000
 -15493453.485 9 -12052828.97246  23632378.955    23632377.8764   23632385.2154
        -0.000          -0.000
  -5899149.782 8  -4328683.32545  24346291.540    24346290.6534   24346298.8794
        -0.000          -0.000
 97  3 10  0 18  0.0000000  0  7 30 24  4  9  5  7 10                0.000072180
  -9912600.372 9  -7440211.75146  23842850.635    23842850.5874   23842856.6424
        -0.000          -0.000
 -31520791.628 9 -23943606.36949  20407041.292    20407040.8304   20407047.1204
        -0.000          -0.000
 -29735073.277 9 -21755377.82648  21091533.724    21091533.5854   21091538.8474
        -0.000          -0.000
 -27063205.525 9 -21060793.00848  21645388.534    21645388.0104   21645393.8744
        -0.000          -0.000
 -25077960.035 9 -18574416.63448  21474377.023    21474376.1694   21474381.9574
        -0.000          -0.000
 -15442741.643 9 -12013313.28546  23642029.101    23642028.0644   23642035.3894
        -0.000          -0.000
  -6010797.154 9  -4415681.04145  24325045.403    24325044.5324   24325053.1304
        -0.000          -0.000
 97  3 10  0 18 30.0000000  0  7 30 24  4  9  5  7 10                0.000061258
 -10027461.435 9  -7529713.78146  23820993.404    23820993.2104   23820999.3804
        -0.000          -0.000
 -31558491.933 9 -23972983.21449  20399867.158    20399866.6864   20399872.9734
        -0.000          -0.000
 -29696910.400 9 -21725640.52748  21098795.877    21098795.7184   21098800.9894
        -0.000          -0.000
 -27035173.446 9 -21038949.84748  21650722.877    21650722.3574   21650728.2194
        -0.000          -0.000
 -25162933.001 9 -18640629.31948  21458207.189    21458206.3534   21458212.1324
        -0.000          -0.000
 -15391985.353 9 -11973762.94646  23651687.727    23651686.6784   23651694.0354
        -0.000          -0.000
  -6122480.850 8  -4502707.26845  24303792.986    24303791.8374   24303800.4184
        -0.000          -0.000
 97  3 10  0 19  0.0000000  0  7 30 24  4  9  5  7 10                0.000050355
 -10142268.954 9  -7619174.19346  23799146.271    23799146.0954   23799151.9804
        -0.000          -0.000
 -31595668.209 9 -24001951.72349  20392792.727    20392792.2844   20392798.5624
        -0.000          -0.000
 -29658287.170 9 -21695544.51148  21106145.596    21106145.4604   21106150.7394
        -0.000          -0.000
 -27006667.229 9 -21016737.22348  21656147.374    21656146.8524   21656152.7594
        -0.000          -0.000
 -25247659.793 9 -18706650.17748  21442084.193    21442083.3754   21442089.1594
        -0.000          -0.000
 -15341171.917 9 -11934168.10546  23661357.194    23661356.2044   23661363.5334
        -0.000          -0.000
  -6234184.223 9  -4589748.72045  24282536.206    24282535.1504   24282543.7484
        -0.000          -0.000
 97  3 10  0 19 30.0000000  0  7 30 24  4  9  5  7 10                0.000039462
 -10257040.881 9  -7708606.78746  23777305.774    23777305.7634   23777311.7744
        -0.000          -0.000
 -31632335.122 9 -24030523.32349  20385815.251    20385814.7944   20385821.0814
        -0.000          -0.000
 -29619209.104 9 -21665094.06948  21113581.941    21113581.8114   21113587.0574
        -0.000          -0.000
 -26977701.868 9 -20994166.81948  21661659.331    21661658.7864   21661664.7304
        -0.000          -0.000
 -25332155.748 9 -18772491.16248  21426005.158    21426004.3364   21426010.1314
        -0.000          -0.000
 -15290308.772 9 -11894534.50546  23671036.164    23671035.1244   23671042.5014
        -0.000          -0.000
  -6345915.192 8  -4676811.68345  24261274.408    24261273.2924   24261282.0554
        -0.000          -0.000
 97  3 10  0 20  0.0000000  0  7 30 24  4  9  5  7 10                0.000028581
 -10371750.916 9  -7797991.15446  23755476.909    23755476.8744   23755482.9474
        -0.000          -0.000
 -31668467.875 9 -24058678.69849  20378939.398    20378938.9444   20378945.1934
        -0.000          -0.000
 -29579672.821 9 -21634286.58148  21121105.462    21121105.3034   21121110.5574
        -0.000          -0.000
 -26948266.239 9 -20971229.97748  21667260.697    21667260.1784   21667266.1314
        -0.000          -0.000
 -25416417.841 9 -18838149.92348  21409970.638    21409969.8264   21409975.5684
        -0.000          -0.000
 -15239393.511 9 -11854860.29746  23680724.990    23680724.0354   23680731.4014
        -0.000          -0.000
  -6457677.107 9  -4763898.82545  24240006.771    24240005.6844   24240014.3494
        -0.000          -0.000
 97  3 10  0 20 30.0000000  0  7 30 24  4  9  5  7 10                0.000017717
 -10486390.725 9  -7887320.81146  23733661.787    23733661.5784   23733667.7644
        -0.000          -0.000
 -31704050.214 9 -24086405.17749  20372168.300    20372167.8524   20372174.1004
        -0.000          -0.000
 -29539683.326 9 -21603125.93848  21128715.195    21128715.0654   21128720.3304
        -0.000          -0.000
 -26918366.177 9 -20947931.24048  21672950.492    21672949.9794   21672955.9384
        -0.000          -0.000
 -25500436.047 9 -18903618.63948  21393982.468    21393981.6654   21393987.3964
        -0.000          -0.000
 -15188431.612 9 -11815149.74746  23690422.852    23690421.9014   23690429.1574
        -0.000          -0.000
  -6569450.695 9  -4850994.98245  24218736.624    24218735.5294   24218744.3124
        -0.000          -0.000
 97  3 10  0 21  0.0000000  0  7 30 24  4  9  5  7 10                0.000006861
 -10600966.681 9  -7976600.70946  23711858.776    23711858.5334   23711864.7414
        -0.000          -0.000
 -31739092.186 9 -24113710.59249  20365500.027    20365499.5784   20365505.8344
        -0.000          -0.000
 -29499259.753 9 -21571627.05248  21136407.548    21136407.4204   21136412.6964
        -0.000          -0.000
 -26888005.641 9 -20924273.69348  21678727.879    21678727.3894   21678733.3334
        -0.000          -0.000
 -25584205.106 9 -18968893.21248  21378041.732    21378040.9104   21378046.6754
        -0.000          -0.000
 -15137442.186 9 -11775417.76346  23700125.835    23700124.9154   23700132.0474
        -0.000          -0.000
  -6681246.234 9  -4938108.31745  24197462.584    24197461.6764   24197470.2194
        -0.000          -0.000
 97  3 10  0 21 30.0000000  0  7 30 24  4  9  5  7 10               -0.000003997
 -10715481.113 9  -8065832.72046  23690067.292    23690067.2474   23690073.1504
        -0.000          -0.000
 -31773586.876 9 -24140589.55949  20358935.899    20358935.4524   20358941.6994
        -0.000          -0.000
 -29458420.608 9 -21539804.34448  21144178.965    21144178.8204   21144184.1074
        -0.000          -0.000
 -26857188.567 9 -20900260.40548  21684592.224    21684591.7194   21684597.6724
        -0.000          -0.000
 -25667698.376 9 -19033952.89148  21362153.495    21362152.6604   21362158.4144
        -0.000          -0.000
 -15086441.133 9 -11735676.69746  23709831.142    23709830.0474   23709837.2044
        -0.000          -0.000
  -6793077.226 9  -5025249.21745  24176181.876    24176180.8384   24176189.4164
        -0.000          -0.000
 97  3 10  0 21 59.9990000  0  7 30 24  4  9  5  7 10               -0.000014862
 -10829937.190 9  -8155019.15046  23668286.938    23668286.8264   23668293.0864
        -0.000          -0.000
 -31807535.256 9 -24167042.82349  20352475.710    20352475.2754   20352481.5114
        -0.000          -0.000
 -29417189.578 9 -21507676.27048  21152024.967    21152024.8084   21152030.1254
        -0.000          -0.000
 -26825917.265 9 -20875893.16848  21690542.987    21690542.5104   21690548.4354
        -0.000          -0.000
 -25750915.502 9 -19098797.38548  21346317.785    21346316.9424   21346322.6934
        -0.000          -0.000
 -15035441.536 9 -11695936.76746  23719535.982    23719535.0674   23719542.2404
        -0.000          -0.000
  -6904944.577 8  -5112418.51345  24154894.275    24154893.1564   24154901.6424
        -0.000          -0.000
 97  3 10  0 22 29.9990000  0  7 30 24  4  9  5  7 10               -0.000025726
 -10944344.095 9  -8244167.32846  23646515.879    23646515.6584   23646521.8574
        -0.000          -0.000
 -31840947.984 9 -24193078.69549  20346117.478    20346117.0264   20346123.2504
        -0.000          -0.000
 -29375558.131 9 -21475236.17948  21159947.185    21159947.0144   21159952.3394
        -0.000          -0.000
 -26794192.503 9 -20851172.58248  21696580.026    21696579.5304   21696585.4764
        -0.000          -0.000
 -25833866.185 9 -19163434.26248  21330532.753    21330531.9304   21330537.6754
        -0.000          -0.000
 -14984433.091 9 -11656189.94346  23729242.683    23729241.7474   23729248.9444
        -0.000          -0.000
  -7016826.730 9  -5199599.31745  24133603.680    24133602.7744   24133611.2794
        -0.000          -0.000
 97  3 10  0 22 59.9990000  0  7 30 24  4  9  5  7 10               -0.000036605
 -11058726.558 9  -8333296.47746  23624749.727    23624749.5474   23624755.6354
        -0.000          -0.000
 -31873851.837 9 -24218718.04549  20339856.079    20339855.6414   20339861.8504
        -0.000          -0.000
 -29333553.059 9 -21442504.95548  21167940.457    21167940.2904   21167945.6284
        -0.000          -0.000
 -26762028.874 9 -20826110.03248  21702700.551    21702700.0434   21702706.0264
        -0.000          -0.000
 -25916572.203 9 -19227880.49448  21314794.287    21314793.4964   21314799.2224
        -0.000          -0.000
 -14933441.083 9 -11616455.93746  23738946.200    23738945.1604   23738952.3474
        -0.000          -0.000
  -7128743.536 9  -5286807.07845  24112306.678    24112305.4094   24112314.1404
        -0.000          -0.000
 97  3 10  0 23 29.9990000  0  7 30 24  4  9  5  7 10               -0.000047487
 -11173067.255 9  -8422393.01246  23602991.210    23602991.1094   23602997.5124
        -0.000          -0.000
 -31906218.942 9 -24243939.14949  20333696.813    20333696.3654   20333702.5794
        -0.000          -0.000
 -29291147.201 9 -21409461.43148  21176010.048    21176009.8744   21176015.1984
        -0.000          -0.000
 -26729397.845 9 -20800683.27148  21708910.020    21708909.5054   21708915.5004
        -0.000          -0.000
 -25999018.839 9 -19292124.61148  21299105.227    21299104.4074   21299110.1094
        -0.000          -0.000
 -14882437.645 9 -11576713.01046  23748651.813    23748650.7824   23748657.9584
        -0.000          -0.000
  -7240663.824 9  -5374017.66245  24091009.193    24091007.8734   24091016.2254
        -0.000          -0.000
 97  3 10  0 23 59.9990000  0  7 30 24  4  9  5  7 10               -0.000058361
 -11287343.685 9  -8511439.56646  23581245.062    23581244.9634   23581251.0474
        -0.000          -0.000
 -31938038.850 9 -24268733.86949  20327641.622    20327641.1774   20327647.4014
        -0.000          -0.000
 -29248303.007 9 -21376076.34348  21184162.995    21184162.8494   21184168.1634
        -0.000          -0.000
 -26696284.354 9 -20774880.57048  21715211.316    21715210.8324   21715216.8224
        -0.000          -0.000
 -26081209.626 9 -19356169.36648  21283464.812    21283463.9754   21283469.6604
        -0.000          -0.000
 -14831405.652 9 -11536947.85346  23758362.872    23758361.8394   23758369.0214
        -0.000          -0.000
  -7352570.030 9  -5461217.15746  24069713.888    24069712.5734   24069721.1774
        -0.000          -0.000
 97  3 10  0 24 29.9990000  0  7 30 24  4  9  5  7 10               -0.000069220
 -11401528.552 9  -8600414.63946  23559516.261    23559516.1464   23559522.6724
        -0.000          -0.000
 -31969295.834 9 -24293089.94249  20321693.568    20321693.1254   20321699.3614
        -0.000          -0.000
 -29204985.626 9 -21342322.53948  21192406.031    21192405.8534   21192411.1764
        -0.000          -0.000
 -26662668.027 9 -20748686.03848  21721608.373    21721607.8844   21721613.8474
        -0.000          -0.000
 -26163124.502 9 -19419999.11748  21267876.899    21267876.0764   21267881.7844
        -0.000          -0.000
 -14780338.535 9 -11497155.32346  23768080.557    23768079.5414   23768086.8394
        -0.000          -0.000
  -7464447.171 9  -5548394.08845  24048424.260    24048423.0654   24048431.4474
        -0.000          -0.000
 97  3 10  0 24 59.9990000  0  7 30 24  4  9  5  7 10               -0.000080081
 -11515635.116 9  -8689328.81646  23537802.585    23537802.4304   23537808.8084
        -0.000          -0.000
 -32000002.937 9 -24317017.54349  20315850.194    20315849.7704   20315856.0124
        -0.000          -0.000
 -29161220.506 9 -21308219.85048  21200734.246    21200734.0774   21200739.4154
        -0.000          -0.000
 -26628559.624 9 -20722108.08548  21728099.015    21728098.5204   21728104.4544
        -0.000          -0.000
 -26244765.766 9 -19483615.67948  21252341.059    21252340.2414   21252345.9544
        -0.000          -0.000
 -14729254.386 9 -11457349.52446  23777801.476    23777800.3914   23777807.7124
        -0.000          -0.000
  -7576333.550 9  -5635578.22446  24027133.011    24027131.9324   24027140.1534
        -0.000          -0.000
 97  3 10  0 25 29.9990000  0  7 30 24  4  9  5  7 10               -0.000090956
 -11629681.822 9  -8778196.42546  23516100.314    23516100.2944   23516106.0724
        -0.000          -0.000
 -32030189.617 9 -24340539.61949  20310105.862    20310105.4364   20310111.6764
        -0.000          -0.000
 -29117023.358 9 -21273780.51548  21209144.678    21209144.4954   21209149.8244
        -0.000          -0.000
 -26593985.059 9 -20695166.88348  21734678.297    21734677.8164   21734683.7704
        -0.000          -0.000
 -26326144.161 9 -19547027.40048  21236855.241    21236854.4124   21236860.1384
        -0.000          -0.000
 -14678161.477 9 -11417536.88645  23787524.082    23787523.1304   23787530.3874
        -0.000          -0.000
  -7688253.196 9  -5722788.24046  24005835.248    24005834.1174   24005842.4134
        -0.000          -0.000
 97  3 10  0 25 59.9990000  0  7 30 24  4  9  5  7 10               -0.000101837
 -11743654.599 9  -8867006.29246  23494411.813    23494411.9874   23494418.0754
        -0.000          -0.000
 -32059869.549 9 -24363666.82649  20304457.963    20304457.5074   20304463.7654
        -0.000          -0.000
 -29072398.507 9 -21239007.90348  21217636.497    21217636.3264   21217641.6674
        -0.000          -0.000
 -26558952.526 9 -20667868.81748  21741344.804    21741344.3114   21741350.2784
        -0.000          -0.000
 -26407245.129 9 -19610222.94448  21221422.234    21221421.3864   21221427.1304
        -0.000          -0.000
 -14627061.861 9 -11377719.01145  23797247.992    23797247.1584   23797254.3184
        -0.000          -0.000
  -7800202.302 9  -5810021.24846  23984532.178    23984530.9664   23984539.1754
        -0.000          -0.000
 97  3 10  0 26 29.9990000  0  7 30 24  4  9  5  7 10               -0.000112716
 -11857554.261 9  -8955759.21646  23472737.352    23472737.4124   23472743.5444
        -0.000          -0.000
 -32089032.788 9 -24386391.41149  20298908.316    20298907.8894   20298914.1274
        -0.000          -0.000
 -29027356.206 9 -21203910.00648  21226207.791    21226207.6124   21226212.9444
        -0.000          -0.000
 -26523466.571 9 -20640217.44048  21748097.556    21748097.0364   21748103.0374
        -0.000          -0.000
 -26488050.868 9 -19673188.43348  21206045.413    21206044.5714   21206050.2994
        -0.000          -0.000
 -14575938.012 8 -11337882.28745  23806976.489    23806975.6844   23806982.9804
        -0.000          -0.000
  -7912160.376 9  -5897261.25846  23963227.062    23963225.9834   23963234.1344
        -0.000          -0.000
 97  3 10  0 26 59.9990000  0  7 30 24  4  9  5  7 10               -0.000123591
 -11971398.300 9  -9044468.82746  23451073.525    23451073.5084   23451079.5144
        -0.000          -0.000
 -32117675.198 9 -24408710.15549  20293457.831    20293457.4024   20293463.6384
        -0.000          -0.000
 -28981918.258 9 -21168503.81048  21234854.364    21234854.1864   21234859.5184
        -0.000          -0.000
 -26487544.857 9 -20612226.50348  21754933.246    21754932.7434   21754938.7544
        -0.000          -0.000
 -26568564.606 9 -19735926.39248  21190724.165    21190723.3174   21190729.0324
        -0.000          -0.000
 -14524768.257 8 -11298009.79745  23816713.757    23816712.9244   23816720.3114
        -0.000          -0.000
  -8024107.108 9  -5984492.35146  23941924.153    23941922.9614   23941931.3624
        -0.000          -0.000
 97  3 10  0 27 29.9990000  0  7 30 24  4  9  5  7 10               -0.000134472
 -12085209.946 9  -9133153.16746  23429415.849    23429415.7734   23429421.9514
        -0.000          -0.000
 -32145796.927 9 -24430623.17749  20288106.505    20288106.0664   20288112.2994
        -0.000          -0.000
 -28936089.894 9 -21132793.40048  21243575.187    21243575.0094   21243580.3214
        -0.000          -0.000
 -26451208.842 9 -20583912.74448  21761847.754    21761847.2564   21761853.2884
        -0.000          -0.000
 -26648803.731 9 -19798450.37048  21175455.195    21175454.3184   21175460.0434
        -0.000          -0.000
 -14473565.844 9 -11258111.86045  23826457.270    23826456.4064   23826463.8444
        -0.000          -0.000
  -8136034.069 9  -6071708.11746  23920625.234    23920623.9674   23920632.2904
        -0.000          -0.000
 97  3 10  0 27 59.9990000  0  7 30 24  4  9  5  7 10               -0.000145366
 -12198989.117 9  -9221812.21146  23407764.264    23407764.2824   23407770.4984
        -0.000          -0.000
 -32173382.612 9 -24452118.50649  20282857.100    20282856.6614   20282862.8814
        -0.000          -0.000
 -28889875.488 9 -21096782.17648  21252369.457    21252369.3014   21252374.5934
        -0.000          -0.000
 -26414475.473 9 -20555289.35848  21768837.892    21768837.4074   21768843.3994
        -0.000          -0.000
 -26728777.345 9 -19860767.45748  21160236.713    21160235.8444   21160241.5684
        -0.000          -0.000
 -14422338.557 9 -11218194.51145  23836205.555    23836204.6684   23836212.0394
        -0.000          -0.000
  -8247932.079 9  -6158901.28046  23899331.579    23899330.4784   23899338.7864
        -0.000          -0.000
 97  3 10  0 28 29.9990000  0  7 30 24  4  9  5  7 10               -0.000156278
 -12312744.870 9  -9310453.00646  23386117.276    23386117.3484   23386123.5514
        -0.000          -0.000
 -32200431.238 9 -24473195.34549  20277709.913    20277709.4844   20277715.7164
        -0.000          -0.000
 -28843284.586 9 -21060477.57848  21261235.413    21261235.2634   21261240.5504
        -0.000          -0.000
 -26377354.567 9 -20526363.99148  21775901.831    21775901.3374   21775907.2844
        -0.000          -0.000
 -26808502.907 9 -19922891.25648  21145065.406    21145064.5564   21145070.2744
        -0.000          -0.000
 -14371081.630 8 -11178254.06245  23845959.622    23845958.7964   23845965.8924
        -0.000          -0.000
  -8359805.965 9  -6246075.62746  23878042.648    23878041.4064   23878049.8444
        -0.000          -0.000
 97  3 10  0 28 59.9990000  0  7 30 24  4  9  5  7 10               -0.000167191
 -12426436.253 9  -9399043.68046  23364482.472    23364482.5654   23364488.5864
        -0.000          -0.000
 -32226921.494 9 -24493837.08849  20272668.972    20272668.5344   20272674.7584
        -0.000          -0.000
 -28796285.511 9 -21023854.92348  21270179.043    21270178.9014   21270184.1694
        -0.000          -0.000
 -26339807.758 9 -20497106.75348  21783046.747    21783046.2614   21783052.1994
        -0.000          -0.000
 -26887944.092 9 -19984793.46248  21129948.200    21129947.3624   21129953.0794
        -0.000          -0.000
 -14319781.132 8 -11138279.66845  23855721.864    23855720.9994   23855728.2044
        -0.000          -0.000
  -8471632.027 9  -6333212.79746  23856762.872    23856761.7494   23856769.8734
        -0.000          -0.000
 97  3 10  0 29 29.9990000  0  7 30 24  4  9  5  7 10               -0.000178107
 -12540034.679 9  -9487561.86746  23342865.345    23342865.3604   23342871.4224
        -0.000          -0.000
 -32252864.321 9 -24514052.26549  20267732.193    20267731.7714   20267737.9764
        -0.000          -0.000
 -28748862.826 9 -20986902.18148  21279203.285    21279203.1444   21279208.4174
        -0.000          -0.000
 -26301831.464 9 -20467514.84848  21790273.405    21790272.9284   21790278.8614
        -0.000          -0.000
 -26967085.233 9 -20046461.86548  21114888.116    21114887.2984   21114893.0124
        -0.000          -0.000
 -14268458.047 8 -11098287.65745  23865488.270    23865487.5194   23865494.5044
        -0.000          -0.000
  -8583430.765 9  -6420328.60146  23835488.119    23835487.0954   23835495.2984
        -0.000          -0.000
 97  3 10  0 29 59.9990000  0  7 30 24  4  9  5  7 10               -0.000189008
 -12653505.896 9  -9575980.91446  23321272.513    23321272.4804   23321278.7864
        -0.000          -0.000
 -32278278.120 9 -24533855.21649  20262896.129    20262895.6994   20262901.8924
        -0.000          -0.000
 -28701025.543 9 -20949626.38048  21288306.431    21288306.2824   21288311.5594
        -0.000          -0.000
 -26263423.277 9 -20437586.40748  21797582.236    21797581.7584   21797587.7154
        -0.000          -0.000
 -27045917.001 9 -20107889.20148  21099886.958    21099886.1234   21099891.8264
        -0.000          -0.000
 -14217108.609 8 -11058275.16545  23875259.719    23875258.9524   23875266.0804
        -0.000          -0.000
  -8695201.678 9  -6507422.73846  23814218.814    23814217.6014   23814225.8294
        -0.000          -0.000
 97  3 10  0 30 29.9990000  0  7 30 24  4  9  5  7 10               -0.000199898
 -12766859.650 9  -9664308.48646  23299702.005    23299701.9624   23299708.1444
        -0.000          -0.000
 -32303185.354 9 -24553263.42949  20258156.446    20258156.0204   20258162.2234
        -0.000          -0.000
 -28652794.828 9 -20912044.00848  21297484.448    21297484.2984   21297489.5654
        -0.000          -0.000
 -26224566.431 9 -20407308.35748  21804976.448    21804975.9794   21804981.9324
        -0.000          -0.000
 -27124435.900 9 -20169072.74248  21084945.306    21084944.4974   21084950.1864
        -0.000          -0.000
 -14165748.647 8 -11018254.42145  23885033.137    23885032.3364   23885039.4734
        -0.000          -0.000
  -8806956.911 9  -6594504.65646  23792952.533    23792951.3324   23792959.4994
        -0.000          -0.000
 97  3 10  0 30 59.9990000  0  7 30 24  4  9  5  7 10               -0.000210784
 -12880092.724 9  -9752542.02546  23278154.433    23278154.3804   23278160.4574
        -0.000          -0.000
 -32327585.380 9 -24572276.42549  20253513.246    20253512.8254   20253519.0014
        -0.000          -0.000
 -28604178.293 9 -20874161.00348  21306735.877    21306735.7244   21306741.0074
        -0.000          -0.000
 -26185264.188 9 -20376683.25148  21812455.439    21812454.9724   21812460.9244
        -0.000          -0.000
 -27202632.223 9 -20230004.92548  21070064.999    21070064.1884   21070069.8884
        -0.000          -0.000
 -14114395.911 9 -10978239.33245  23894805.184    23894804.3324   23894811.6254
        -0.000          -0.000
  -8918704.968 9  -6681581.03146  23771687.459    23771686.3334   23771694.2194
        -0.000          -0.000
 97  3 10  0 31 29.9990000  0  7 30 24  4  9  5  7 10               -0.000221658
 -12993204.299 9  -9840680.86346  23256630.072    23256630.0414   23256636.0424
        -0.000          -0.000
 -32351478.852 9 -24590894.70449  20248966.452    20248966.0134   20248972.1994
        -0.000          -0.000
 -28555186.637 9 -20835985.69448  21316058.667    21316058.5104   21316063.7994
        -0.000          -0.000
 -26145519.226 9 -20345713.16648  21820018.713    21820018.2354   21820024.1894
        -0.000          -0.000
 -27280519.089 9 -20290695.97548  21055243.613    21055242.7994   21055248.4894
        -0.000          -0.000
 -14063031.713 8 -10938215.29345  23904579.659    23904578.7654   23904585.8214
        -0.000          -0.000
  -9030437.196 9  -6768644.97746  23750425.547    23750424.2844   23750432.5024
        -0.000          -0.000
 97  3 10  0 31 59.9990000  0  7 30 24  4  9  5  7 10               -0.000232524
 -13106223.170 9  -9928747.46946  23235123.289    23235123.2294   23235129.2044
        -0.000          -0.000
 -32374873.003 9 -24609123.89849  20244514.675    20244514.2454   20244520.4364
        -0.000          -0.000
 -28505840.771 9 -20797534.37648  21325448.846    21325448.7294   21325454.0144
        -0.000          -0.000
 -26105328.927 9 -20314396.06048  21827666.678    21827666.2214   21827672.1744
        -0.000          -0.000
 -27358121.710 9 -20351165.53448  21040476.333    21040475.5324   21040481.1984
        -0.000          -0.000
 -14011644.612 9 -10898173.37545  23914358.384    23914357.6354   23914364.4144
        -0.000          -0.000
  -9142153.114 9  -6855696.33946  23729166.641    23729165.4724   23729173.2834
        -0.000          -0.000
 97  3 10  0 32 29.9990000  0  7 30 24  4  9  5  7 10               -0.000243386
 -13219163.283 9 -10016752.73946  23213631.451    23213631.4074   23213637.1694
        -0.000          -0.000
 -32397757.957 9 -24626956.31549  20240159.810    20240159.3694   20240165.5544
        -0.000          -0.000
 -28456133.859 9 -20758801.72448  21334907.756    21334907.6414   21334912.9354
        -0.000          -0.000
 -26064683.368 9 -20282724.21148  21835401.285    21835400.7974   21835406.7604
        -0.000          -0.000
 -27435432.103 9 -20411407.38748  21025764.609    21025763.8274   21025769.4784
        -0.000          -0.000
 -13960216.684 9 -10858099.70245  23924144.569    23924143.9094   23924150.7224
        -0.000          -0.000
  -9253846.538 9  -6942730.08946  23707911.942    23707910.9144   23707918.9634
        -0.000          -0.000
 97  3 10  0 32 59.9990000  0  7 30 24  4  9  5  7 10               -0.000254239
 -13332021.260 9 -10104693.95946  23192155.183    23192155.1054   23192161.0664
        -0.000          -0.000
 -32420142.324 9 -24644398.66649  20235900.213    20235899.7784   20235905.9554
        -0.000          -0.000
 -28406081.424 9 -20719799.83248  21344432.448    21344432.2974   21344437.6044
        -0.000          -0.000
 -26023618.795 9 -20250725.85948  21843215.577    21843215.0974   21843221.0384
        -0.000          -0.000
 -27512462.229 9 -20471430.84948  21011106.296    21011105.4944   21011111.1364
        -0.000          -0.000
 -13908740.879 9 -10817988.71945  23933940.042    23933939.3184   23933946.3634
        -0.000          -0.000
  -9365515.529 9  -7029744.85746  23686661.916    23686660.8664   23686668.7854
        -0.000          -0.000
 97  3 10  0 33 29.9990000  0  7 30 24  4  9  5  7 10               -0.000265063
 -13444785.201 9 -10192561.89846  23170696.847    23170696.8204   23170702.8484
        -0.000          -0.000
 -32442012.352 9 -24661440.23649  20231738.469    20231738.0294   20231744.2224
        -0.000          -0.000
 -28355667.212 9 -20680516.04148  21354025.997    21354025.8364   21354031.1374
        -0.000          -0.000
 -25982124.103 9 -20218392.35048  21851111.770    21851111.2704   21851117.2184
        -0.000          -0.000
 -27589192.608 9 -20531220.74048  20996504.966    20996504.1634   20996509.8094
        -0.000          -0.000
 -13857185.797 9 -10777815.94045  23943750.705    23943750.0554   23943757.0014
        -0.000          -0.000
  -9477117.447 9  -7116707.31646  23665424.846    23665423.6394   23665431.6654
        -0.000          -0.000
 97  3 10  0 33 59.9990000  0  7 30 24  4  9  5  7 10               -0.000275883
 -13557474.576 9 -10280371.78646  23149252.726    23149252.7264   23149258.5054
        -0.000          -0.000
 -32463380.082 9 -24678090.40249  20227672.274    20227671.8444   20227678.0174
        -0.000          -0.000
 -28304911.551 9 -20640966.18148  21363684.493    21363684.3494   21363689.6334
        -0.000          -0.000
 -25940243.535 9 -20185758.15948  21859081.348    21859080.8634   21859086.8524
        -0.000          -0.000
 -27665627.415 9 -20590780.31349  20981959.905    20981959.0824   20981964.7574
        -0.000          -0.000
 -13805587.271 9 -10737609.28945  23953569.736    23953569.1294   23953575.8074
        -0.000          -0.000
  -9588667.902 9  -7203629.70746  23644197.493    23644196.2744   23644204.2514
        -0.000          -0.000
 97  3 10  0 34 29.9990000  0  7 30 24  4  9  5  7 10               -0.000286711
 -13670090.686 9 -10368124.56346  23127822.419    23127822.5024   23127828.3344
        -0.000          -0.000
 -32484248.308 9 -24694351.34149  20223701.188    20223700.7434   20223706.9164
        -0.000          -0.000
 -28253838.565 9 -20601169.05348  21373403.349    21373403.2114   21373408.5144
        -0.000          -0.000
 -25898015.631 9 -20152853.31148  21867117.067    21867116.6004   21867122.5604
        -0.000          -0.000
 -27741760.080 9 -20650104.45349  20967472.305    20967471.4824   20967477.1544
        -0.000          -0.000
 -13753984.480 9 -10697399.33045  23963389.481    23963388.9404   23963395.4674
        -0.000          -0.000
  -9700168.099 9  -7290512.93446  23622979.527    23622978.4424   23622986.2804
        -0.000          -0.000
 97  3 10  0 34 59.9990000  0  7 30 24  4  9  5  7 10               -0.000297553
 -13782612.922 9 -10455804.17546  23106410.280    23106410.1864   23106416.1374
        -0.000          -0.000
 -32504587.350 9 -24710199.92949  20219830.796    20219830.3734   20219836.5164
        -0.000          -0.000
 -28202430.299 9 -20561110.66848  21383186.013    21383185.8794   21383191.1654
        -0.000          -0.000
 -25855434.918 9 -20119673.55448  21875219.914    21875219.4514   21875225.4294
        -0.000          -0.000
 -27817579.536 9 -20709184.53549  20953044.322    20953043.5304   20953049.1914
        -0.000          -0.000
 -13702386.009 9 -10657192.77345  23973208.412    23973207.6134   23973214.5014
        -0.000          -0.000
  -9811601.302 9  -7377343.89746  23601774.491    23601773.3524   23601781.4594
        -0.000          -0.000
 97  3 10  0 35 29.9990000  0  7 30 24  4  9  5  7 10               -0.000308418
 -13895040.658 9 -10543410.17846  23085015.924    23085015.8364   23085021.8304
        -0.000          -0.000
 -32524389.165 9 -24725629.90149  20216062.666    20216062.2314   20216068.3774
        -0.000          -0.000
 -28150668.878 9 -20520777.09848  21393035.926    21393035.7404   21393041.0664
        -0.000          -0.000
 -25812484.659 9 -20086205.83448  21883393.098    21883392.6324   21883398.6174
        -0.000          -0.000
 -27893093.503 9 -20768026.57849  20938674.523    20938673.6984   20938679.3504
        -0.000          -0.000
 -13650814.308 9 -10617007.02245  23983022.156    23983021.3514   23983028.3974
        -0.000          -0.000
  -9922969.374 9  -7464124.22246  23580581.960    23580580.8144   23580588.5814
        -0.000          -0.000
 97  3 10  0 35 59.9990000  0  7 30 24  4  9  5  7 10               -0.000319319
 -14007376.372 9 -10630944.48246  23063639.271    23063639.1064   23063644.9174
        -0.000          -0.000
 -32543660.040 9 -24740646.15249  20212395.539    20212395.1104   20212401.2384
        -0.000          -0.000
 -28098555.426 9 -20480169.22048  21402952.753    21402952.5844   21402957.9254
        -0.000          -0.000
 -25769158.387 9 -20052445.11748  21891637.847    21891637.3654   21891643.3684
        -0.000          -0.000
 -27968311.176 9 -20826637.74449  20924361.024    20924360.2174   20924365.8854
        -0.000          -0.000
 -13599287.152 9 -10576855.99145  23992827.441    23992826.6934   23992833.7604
        -0.000          -0.000
 -10034294.814 9  -7550871.22846  23559397.283    23559396.2294   23559404.1724
        -0.000          -0.000
 97  3 10  0 36 29.9990000  0  7 30 24  4  9  5  7 10               -0.000330233
 -14119592.439 9 -10718385.55146  23042285.186    23042285.0394   23042290.8224
        -0.000          -0.000
 -32562378.030 9 -24755231.58249  20208833.564    20208833.1264   20208839.2824
        -0.000          -0.000
 -28046057.160 9 -20439261.47948  21412942.831    21412942.6784   21412948.0194
        -0.000          -0.000
 -25725400.512 9 -20018348.08748  21899964.676    21899964.1904   21899970.2344
        -0.000          -0.000
 -28043219.427 9 -20885007.79749  20910106.471    20910105.6654   20910111.3174
        -0.000          -0.000
 -13547771.553 9 -10536714.01445  24002630.443    24002629.7074   24002636.8064
        -0.000          -0.000
 -10145549.276 9  -7637562.96346  23538226.214    23538225.0864   23538232.9264
        -0.000          -0.000
 97  3 10  0 36 59.9990000  0  7 30 24  4  9  5  7 10               -0.000341158
 -14231697.806 9 -10805740.36746  23020952.263    23020952.1774   23020957.9744
        -0.000          -0.000
 -32580567.047 9 -24769404.82949  20205372.297    20205371.8724   20205378.0264
        -0.000          -0.000
 -27993165.296 9 -20398047.04148  21423007.821    21423007.6604   21423013.0294
        -0.000          -0.000
 -25681210.525 9 -19983914.34548  21908373.736    21908373.2594   21908379.3164
        -0.000          -0.000
 -28117842.181 9 -20943155.39249  20895906.199    20895905.4264   20895911.0534
        -0.000          -0.000
 -13496253.784 9 -10496570.31245  24012434.068    24012433.2304   24012440.4054
        -0.000          -0.000
 -10256745.847 9  -7724209.58046  23517066.140    23517065.0554   23517072.9244
        -0.000          -0.000
 97  3 10  0 37 29.9990000  0  7 30 24  4  9  5  7 10               -0.000352075
 -14343685.627 9 -10893003.55946  22999641.539    22999641.4804   22999647.2654
        -0.000          -0.000
 -32598250.740 9 -24783184.31449  20202007.163    20202006.7524   20202012.9084
        -0.000          -0.000
 -27939881.249 9 -20356526.99748  21433147.446    21433147.2814   21433152.6514
        -0.000          -0.000
 -25636585.385 9 -19949141.52348  21916865.630    21916865.1304   21916871.2174
        -0.000          -0.000
 -28192166.108 9 -21001070.12649  20881762.794    20881762.0274   20881767.6554
        -0.000          -0.000
 -13444709.052 9 -10456405.59745  24022242.829    24022242.0984   24022249.0004
        -0.000          -0.000
 -10367871.894 9  -7810801.23446  23495919.495    23495918.4344   23495926.3594
        -0.000          -0.000
 97  3 10  0 37 59.9990000  0  7 30 24  4  9  5  7 10               -0.000362966
 -14455545.414 9 -10980167.02246  22978355.401    22978355.3274   22978360.9054
        -0.000          -0.000
 -32615435.284 9 -24796574.85849  20198737.030    20198736.6364   20198742.8074
        -0.000          -0.000
 -27886219.813 9 -20314712.89448  21443358.850    21443358.7024   21443364.0734
        -0.000          -0.000
 -25591532.027 9 -19914035.02548  21925438.993    21925438.4954   21925444.6044
        -0.000          -0.000
 -28266162.778 9 -21058729.86149  20867681.667    20867680.9054   20867686.5234
        -0.000          -0.000
 -13393109.837 9 -10416198.43545  24032061.783    24032061.0704   24032067.9704
        -0.000          -0.000
 -10478906.511 9  -7897321.67946  23474790.312    23474789.1914   23474796.9334
        -0.000          -0.000
 97  3 10  0 38 29.9990000  0  7 30 24  4  9  5  7 10               -0.000373836
 -14567286.025 9 -11067237.56546  22957091.828    22957091.6474   22957097.4814
        -0.000          -0.000
 -32632152.892 9 -24809601.55149  20195555.811    20195555.4084   20195561.5884
        -0.000          -0.000
 -27832218.525 9 -20272633.97048  21453635.007    21453634.8684   21453640.2004
        -0.000          -0.000
 -25546098.041 9 -19878631.93448  21934084.833    21934084.3394   21934090.4274
        -0.000          -0.000
 -28339843.823 9 -21116143.64849  20853660.652    20853659.8824   20853665.5114
        -0.000          -0.000
 -13341467.532 9 -10375957.73445  24041889.076    24041888.3484   24041895.3274
        -0.000          -0.000
 -10589863.234 9  -7983781.38446  23453675.986    23453674.7894   23453682.8024
        -0.000          -0.000
 97  3 10  0 38 59.9990000  0  7 30 24  4  9  5  7 10               -0.000384682
 -14678897.362 9 -11154207.40046  22935852.854    22935852.7104   22935858.3814
        -0.000          -0.000
 -32648401.220 9 -24822262.57549  20192463.869    20192463.4584   20192469.6144
        -0.000          -0.000
 -27777889.497 9 -20230299.66148  21463973.455    21463973.3014   21463978.6734
        -0.000          -0.000
 -25500305.883 9 -19842949.75148  21942798.824    21942798.3174   21942804.3864
        -0.000          -0.000
 -28413181.340 9 -21173289.75549  20839704.991    20839704.2134   20839709.8144
        -0.000          -0.000
 -13289775.864 9 -10335678.53645  24051725.707    24051724.9174   24051731.8814
        -0.000          -0.000
 -10700736.000 9  -8070175.70646  23432577.506    23432576.3654   23432584.1884
        -0.000          -0.000
 97  3 10  0 39 29.9990000  0  7 30 24  4  9  5  7 10               -0.000395514
 -14790387.933 9 -11241083.12146  22914636.848    22914636.6974   22914642.4894
        -0.000          -0.000
 -32664178.733 9 -24834556.72949  20189461.477    20189461.0474   20189467.1934
        -0.000          -0.000
 -27723260.379 9 -20187731.51948  21474368.980    21474368.8444   21474374.2144
        -0.000          -0.000
 -25454170.645 9 -19807000.23448  21951578.102    21951577.5994   21951583.6494
        -0.000          -0.000
 -28486161.829 9 -21230157.65949  20825817.277    20825816.4774   20825822.1024
        -0.000          -0.000
 -13238050.023 9 -10295372.70045  24061568.832    24061568.0534   24061575.0634
        -0.000          -0.000
 -10811523.213 9  -8156503.37746  23411495.389    23411494.2414   23411502.0094
        -0.000          -0.000
 97  3 10  0 39 59.9990000  0  7 30 24  4  9  5  7 10               -0.000406342
 -14901752.493 9 -11327860.66246  22893444.820    22893444.7484   22893450.5394
        -0.000          -0.000
 -32679457.116 9 -24846461.95549  20186554.095    20186553.6704   20186559.8084
        -0.000          -0.000
 -27668329.096 9 -20144927.92948  21484822.052    21484821.9274   21484827.2634
        -0.000          -0.000
 -25407696.280 9 -19770786.45948  21960421.872    21960421.3774   21960427.4554
        -0.000          -0.000
 -28558782.054 9 -21286744.83849  20811998.106    20811997.3144   20812002.9224
        -0.000          -0.000
 -13186292.190 9 -10255041.93345  24071418.012    24071417.2554   24071424.0114
        -0.000          -0.000
 -10922222.600 9  -8242762.56946  23390429.907    23390428.8534   23390436.6324
        -0.000          -0.000
 97  3 10  0 40 29.9990000  0  7 30 24  4  9  5  7 10               -0.000417181
 -15013000.090 9 -11414547.05746  22872275.146    22872275.0044   22872280.7394
        -0.000          -0.000
 -32694219.691 9 -24857965.24549  20183744.825    20183744.3954   20183750.5344
        -0.000          -0.000
 -27613082.458 9 -20101878.60148  21495335.151    21495335.0194   21495340.3914
        -0.000          -0.000
 -25360871.280 9 -19734299.46048  21969332.406    21969331.8884   21969337.9694
        -0.000          -0.000
 -28631047.899 9 -21343055.87249  20798246.335    20798245.5544   20798251.1954
        -0.000          -0.000
 -13134507.765 8 -10214690.48445  24081272.173    24081271.3234   24081278.3564
        -0.000          -0.000
 -11032847.325 9  -8328963.60246  23369378.610    23369377.5764   23369385.2864
        -0.000          -0.000
 97  3 10  0 40 59.9990000  0  7 30 24  4  9  5  7 10               -0.000428046
 -15124147.708 9 -11501155.52846  22851124.399    22851124.2664   22851130.1314
        -0.000          -0.000
 -32708462.630 9 -24869063.62449  20181034.452    20181034.0314   20181040.1654
        -0.000          -0.000
 -27557529.205 9 -20058590.35348  21505906.634    21505906.4814   21505911.8104
        -0.000          -0.000
 -25313684.425 9 -19697530.50148  21978311.757    21978311.2624   21978317.3334
        -0.000          -0.000
 -28702972.753 9 -21399101.20149  20784559.496    20784558.7104   20784564.3484
        -0.000          -0.000
 -13082715.642 9 -10174333.01245  24091128.078    24091127.2694   24091134.1014
        -0.000          -0.000
 -11143408.493 9  -8415115.06546  23348339.435    23348338.3414   23348346.2754
        -0.000          -0.000
 97  3 10  0 41 29.9990000  0  7 30 24  4  9  5  7 10               -0.000438934
 -15235182.592 9 -11587676.16746  22829995.207    22829995.0144   22830000.7764
        -0.000          -0.000
 -32722172.008 9 -24879746.24449  20178425.658    20178425.2474   20178431.3744
        -0.000          -0.000
 -27501642.995 9 -20015042.66648  21516541.431    21516541.2884   21516546.5994
        -0.000          -0.000
 -25266111.830 9 -19660460.96848  21987364.560    21987364.0654   21987370.1424
        -0.000          -0.000
 -28774552.959 9 -21454877.97349  20770938.208    20770937.4294   20770943.0564
        -0.000          -0.000
 -13030909.544 8 -10133964.63845  24100986.421    24100985.6854   24100992.5784
        -0.000          -0.000
 -11253899.864 9  -8501212.18646  23327313.663    23327312.4984   23327320.2964
        -0.000          -0.000
 97  3 10  0 41 59.9990000  0  7 30 24  4  9  5  7 10               -0.000449824
 -15346071.713 9 -11674083.23746  22808893.647    22808893.5014   22808899.2294
        -0.000          -0.000
 -32735328.252 9 -24889997.84849  20175922.123    20175921.6804   20175927.7974
        -0.000          -0.000
 -27445399.662 9 -19971216.69048  21527244.210    21527244.0894   21527249.3804
        -0.000          -0.000
 -25218118.918 9 -19623063.90748  21996497.295    21996496.8024   21996502.8814
        -0.000          -0.000
 -28845762.044 9 -21510365.55849  20757387.567    20757386.7804   20757392.3994
        -0.000          -0.000
 -12979065.873 8 -10093566.92845  24110852.102    24110851.3254   24110857.8524
        -0.000          -0.000
 -11364296.996 9  -8587235.89346  23306305.842    23306304.6724   23306312.3444
        -0.000          -0.000
 97  3 10  0 42 29.9990000  0  7 30 24  4  9  5  7 10               -0.000460706
 -15456800.202 9 -11760365.13347  22787822.642    22787822.5084   22787828.3314
        -0.000          -0.000
 -32747942.194 9 -24899826.88049  20173521.732    20173521.2924   20173527.4134
        -0.000          -0.000
 -27388799.196 9 -19927112.43748  21538014.882    21538014.7834   21538020.0904
        -0.000          -0.000
 -25169703.620 9 -19585337.72248  22005710.451    22005709.9344   22005716.0224
        -0.000          -0.000
 -28916591.004 9 -21565556.94849  20743909.261    20743908.4814   20743914.0854
        -0.000          -0.000
 -12927184.902 9 -10053140.25345  24120724.513    24120723.7494   24120730.8484
        -0.000          -0.000
 -11474590.044 9  -8673178.42846  23285317.724    23285316.5514   23285324.3554
        -0.000          -0.000
 97  3 10  0 42 59.9990000  0  7 30 24  4  9  5  7 10               -0.000471601
 -15567400.186 9 -11846546.90547  22766776.095    22766775.9394   22766781.7274
        -0.000          -0.000
 -32760061.714 9 -24909270.65049  20171215.453    20171215.0094   20171221.1354
        -0.000          -0.000
 -27331885.444 9 -19882764.06748  21548845.198    21548845.0654   21548850.4024
        -0.000          -0.000
 -25120924.516 9 -19547328.05148  22014992.761    22014992.2584   22014998.3764
        -0.000          -0.000
 -28987079.879 9 -21620483.33049  20730495.654    20730494.8674   20730500.4694
        -0.000          -0.000
 -12875305.882 8 -10012715.05445  24130596.699    24130595.8654   24130602.9354
        -0.000          -0.000
 -11584800.513 9  -8759056.68046  23264345.273    23264344.1394   23264351.7474
        -0.000          -0.000
 97  3 10  0 43 29.9990000  0  8 30 24  4  9  5  7 10  6            -0.000482497
 -15677847.679 9 -11932609.85147  22745758.605    22745758.4994   22745764.1914
        -0.000          -0.000
 -32771675.409 9 -24918320.26649  20169005.408    20169004.9884   20169011.1364
        -0.000          -0.000
 -27274637.174 9 -19838155.03448  21559739.161    21559739.0434   21559744.3824
        -0.000          -0.000
 -25071782.527 9 -19509035.61448  22024344.157    22024343.6744   22024349.7804
        -0.000          -0.000
 -29057210.628 9 -21675130.65949  20717150.214    20717149.4264   20717155.0364
        -0.000          -0.000
 -12823401.588 8  -9972270.12645  24140473.858    24140473.0784   24140480.1404
        -0.000          -0.000
 -11694894.365 9  -8844844.00846  23243395.026    23243393.8744   23243401.6314
        -0.000          -0.000
  -3265526.35118  -2521219.76355  24724157.825    24724157.6025   24724164.7375
        -0.000          -0.000
 97  3 10  0 43 59.9990000  0  8 30 24  4  9  5  7 10  6            -0.000493371
 -15788141.150 9 -12018552.77647  22724770.489    22724770.3894   22724776.0694
        -0.000          -0.000
 -32782794.102 9 -24926984.16849  20166889.597    20166889.1634   20166895.3414
        -0.000          -0.000
 -27217074.881 9 -19793301.30648  21570692.906    21570692.8004   21570698.1194
        -0.000          -0.000
 -25022289.258 9 -19470469.44548  22033762.483    22033761.9744   22033768.0964
        -0.000          -0.000
 -29126991.630 9 -21729505.45549  20703871.329    20703870.5394   20703876.1494
        -0.000          -0.000
 -12771461.389 8  -9931797.33745  24150357.583    24150356.6454   24150364.1204
        -0.000          -0.000
 -11804854.096 9  -8930526.84046  23222470.245    23222469.1104   23222477.0594
        -0.000          -0.000
  -3353009.197 8  -2589388.15245  24707510.289    24707509.9864   24707517.1824
        -0.000          -0.000
 97  3 10  0 44 29.9990000  0  8 30 24  4  9  5  7 10  6            -0.000504249
 -15898299.860 9 -12104390.69347  22703807.883    22703807.8704   22703813.4834
        -0.000          -0.000
 -32793430.215 9 -24935272.03249  20164865.579    20164865.1644   20164871.3334
        -0.000          -0.000
 -27159206.406 9 -19748208.98948  21581704.915    21581704.8074   21581710.1404
        -0.000          -0.000
 -24972479.928 9 -19431656.99548  22043240.912    22043240.3924   22043246.5034
        -0.000          -0.000
 -29196461.059 9 -21783637.46449  20690651.737    20690650.9304   20690656.5424
        -0.000          -0.000
 -12719501.125 8  -9891308.68845  24160245.457    24160244.4924   24160251.5414
        -0.000          -0.000
 -11914695.427 9  -9016117.44046  23201568.142    23201566.9504   23201574.6794
        -0.000          -0.000
  -3440488.947 8  -2657554.12745  24690863.370    24690863.1414   24690870.0844
        -0.000          -0.000
 97  3 10  0 44 59.9990000  0  8 30 24  4  9  5  7 10  6            -0.000515133
 -16008332.831 9 -12190130.65847  22682869.398    22682869.2874   22682874.8394
        -0.000          -0.000
 -32803575.269 9 -24943177.25849  20162935.020    20162934.6114   20162940.7524
        -0.000          -0.000
 -27101030.751 9 -19702877.31648  21592775.374    21592775.2634   21592780.5914
        -0.000          -0.000
 -24922350.407 9 -19392595.04948  22052780.197    22052779.7184   22052785.8144
        -0.000          -0.000
 -29265614.060 9 -21837522.90549  20677492.320    20677491.5214   20677497.1314
        -0.000          -0.000
 -12667514.534 9  -9850799.84045  24170137.760    24170137.1504   24170144.9024
        -0.000          -0.000
 -12024413.292 9  -9101611.80646  23180689.565    23180688.3644   23180696.1504
        -0.000          -0.000
  -3527963.095 8  -2725715.66545  24674217.424    24674217.3644   24674224.4494
        -0.000          -0.000
 97  3 10  0 45 29.9990000  0  8 30 24  4  9  5  7 10  6            -0.000526010
 -16118213.324 9 -12275751.77847  22661959.731    22661959.6724   22661965.2894
        -0.000          -0.000
 -32813222.338 9 -24950694.43949  20161099.248    20161098.8224   20161104.9744
        -0.000          -0.000
 -27042538.887 9 -19657299.24248  21603906.045    21603905.9474   21603911.2284
        -0.000          -0.000
 -24871876.821 9 -19353264.99648  22062385.025    22062384.5694   22062390.6564
        -0.000          -0.000
 -29334427.710 9 -21891143.92049  20664397.488    20664396.7064   20664402.3144
        -0.000          -0.000
 -12615488.697 8  -9810260.09145  24180038.012    24180037.1414   24180044.2814
        -0.000          -0.000
 -12133994.328 9  -9186999.55746  23159836.901    23159835.7604   23159843.5064
        -0.000          -0.000
  -3615409.605 9  -2793855.70045  24657576.672    24657576.6244   24657583.9294
        -0.000          -0.000
 97  3 10  0 45 59.9990000  0  8 30 24  4  9  5  7 10  6            -0.000536884
 -16227951.751 9 -12361262.23647  22641077.209    22641077.1594   22641082.6124
        -0.000          -0.000
 -32822370.568 9 -24957822.92449  20159358.403    20159357.9974   20159364.1354
        -0.000          -0.000
 -26983727.427 9 -19611472.13748  21615097.528    21615097.4094   21615102.6974
        -0.000          -0.000
 -24821050.701 9 -19313660.24948  22072056.987    22072056.5034   22072062.5644
        -0.000          -0.000
 -29402887.957 9 -21944489.56049  20651369.951    20651369.1554   20651374.7544
        -0.000          -0.000
 -12563434.808 9  -9769698.74245  24189943.475    24189942.9094   24189950.6264
        -0.000          -0.000
 -12243445.272 9  -9272285.96346  23139008.985    23139007.9094   23139015.4724
        -0.000          -0.000
  -3702815.466 9  -2861964.12945  24640943.855    24640943.6904   24640951.0064
        -0.000          -0.000
 97  3 10  0 46 29.9990000  0  8 30 24  4  9  5  7 10  6            -0.000547766
 -16337557.375 9 -12446669.17547  22620219.903    22620219.8084   22620225.3094
        -0.000          -0.000
 -32831028.513 9 -24964569.36349  20157710.829    20157710.4274   20157716.5504
        -0.000          -0.000
 -26924605.377 9 -19565403.00648  21626348.124    21626347.9814   21626353.2504
        -0.000          -0.000
 -24769879.755 9 -19273786.80148  22081794.495    22081794.0224   22081800.0584
        -0.000          -0.000
 -29470999.599 9 -21997563.55649  20638408.738    20638407.9384   20638413.5464
        -0.000          -0.000
 -12511376.34218  -9729133.66945  24199849.946    24199848.7555   24199856.6644
        -0.000          -0.000
 -12352786.661 9  -9357486.96846  23118201.875    23118200.8924   23118208.4974
        -0.000          -0.000
  -3790184.530 9  -2930043.82245  24624318.037    24624317.7804   24624325.2124
        -0.000          -0.000
 97  3 10  0 46 59.9990000  0  8 30 24  4  9  5  7 10  6            -0.000558648
 -16447018.786 9 -12531963.75947  22599390.091    22599390.0084   22599395.5234
        -0.000          -0.000
 -32839208.294 9 -24970943.21249  20156154.264    20156153.8554   20156159.9694
        -0.000          -0.000
 -26865189.082 9 -19519104.60448  21637654.642    21637654.5134   21637659.7964
        -0.000          -0.000
 -24718346.665 9 -19233631.16847  22091600.969    22091600.4534   22091606.5354
        -0.000          -0.000
 -29538743.205 9 -22050350.77149  20625517.534    20625516.7324   20625522.3444
        -0.000          -0.000
 -12459312.211 8  -9688564.16355  24209758.101    24209757.2924   24209764.5555
        -0.000          -0.000
 -12462015.251 9  -9442600.05346  23097416.332    23097415.3114   23097423.0664
        -0.000          -0.000
  -3877502.207 9  -2998083.49545  24607701.998    24607701.6254   24607709.2244
        -0.000          -0.000
 97  3 10  0 47 29.9990000  0  8 30 24  4  9  5  7 10  6            -0.000569526
 -16556321.241 9 -12617134.48547  22578590.477    22578590.3974   22578595.8634
        -0.000          -0.000
 -32846913.668 9 -24976947.38949  20154687.942    20154687.5404   20154693.6504
        -0.000          -0.000
 -26805479.921 9 -19472577.98748  21649016.878    21649016.7584   21649022.0194
        -0.000          -0.000
 -24666439.648 9 -19193184.15547  22101478.522    22101478.0354   22101484.0914
        -0.000          -0.000
 -29606119.128 9 -22102851.48249  20612696.300    20612695.5084   20612701.0974
        -0.000          -0.000
 -12407237.64619  -9647986.16155  24219666.833    24219667.1235          0.0005
        -0.000          -0.000
 -12571121.824 9  -9527618.08746  23076653.982    23076652.8954   23076660.5464
        -0.000          -0.000
  -3964756.893 8  -3066074.15745  24591098.033    24591097.8604   24591104.8264
        -0.000          -0.000
 97  3 10  0 47 59.9990000  0  8 30 24  4  9  5  7 10  6            -0.000580390
 -16665457.924 9 -12702176.02447  22557822.397    22557822.3654   22557827.8324
        -0.000          -0.000
 -32854140.363 9 -24982578.57049  20153312.735    20153312.3324   20153318.4524
        -0.000          -0.000
 -26745478.345 9 -19425823.51648  21660434.845    21660434.6934   21660439.9754
        -0.000          -0.000
 -24614154.959 9 -19152442.85747  22111427.969    22111427.4674   22111433.5994
        -0.000          -0.000
 -29673124.738 9 -22155063.63349  20599945.567    20599944.7854   20599950.3554
        -0.000          -0.000
 -12355136.924 8  -9607388.01355  24229582.072    24229581.7314   24229590.5855
        -0.000          -0.000
 -12680093.617 9  -9612531.09246  23055917.374    23055916.2024   23055923.8674
        -0.000          -0.000
  -4051951.814 8  -3134018.17445  24574505.321    24574505.1064   24574512.4324
        -0.000          -0.000
 97  3 10  0 48 29.9990000  0  8 30 24  4  9  5  7 10  6            -0.000591247
 -16774417.016 9 -12787079.18347  22537088.233    22537088.1884   22537093.6494
        -0.000          -0.000
 -32860902.745 9 -24987847.94649  20152025.906    20152025.5034   20152031.6214
        -0.000          -0.000
 -26685198.449 9 -19378852.17248  21671905.732    21671905.6024   21671910.8474
        -0.000          -0.000
 -24561513.004 9 -19111423.17047  22121445.365    22121444.8824   22121451.0434
        -0.000          -0.000
 -29739778.216 9 -22207001.40249  20587261.835    20587261.0464   20587266.6214
        -0.000          -0.000
 -12303014.085 9  -9566773.13145  24239500.186    24239499.7424   24239509.4394
        -0.000          -0.000
 -12788928.556 9  -9697337.45046  23035206.685    23035205.5204   23035213.2694
        -0.000          -0.000
  -4139114.088 8  -3201936.77445  24557918.864    24557918.5474   24557926.1284
        -0.000          -0.000
 97  3 10  0 48 59.9990000  0  7 30 24  4  9  5 10  6               -0.000602076
 -16883196.149 9 -12871842.11647  22516388.194    22516388.1894   22516393.5944
        -0.000          -0.000
 -32867195.144 9 -24992751.10449  20150828.505    20150828.0924   20150834.1834
        -0.000          -0.000
 -26624622.196 9 -19331649.90348  21683432.993    21683432.8724   21683438.1344
        -0.000          -0.000
 -24508508.407 9 -19070120.90347  22131531.781    22131531.3294   22131537.4964
        -0.000          -0.000
 -29806060.054 9 -22258649.58049  20574648.825    20574648.0374   20574653.5884
        -0.000          -0.000
 -12897608.784 9  -9782023.27546  23014525.473    23014524.3784   23014532.0874
        -0.000          -0.000
  -4226239.134 8  -3269826.40745  24541339.440    24541339.1644   24541346.5844
        -0.000          -0.000
 97  3 10  0 49 29.9990000  0  7 30 24  4  9  5 10  6               -0.000612898
 -16991797.424 9 -12956466.45147  22495722.085    22495722.0164   22495727.4544
        -0.000          -0.000
 -32873008.033 9 -24997280.61349  20149722.338    20149721.9184   20149728.0044
        -0.000          -0.000
 -26563732.913 9 -19284203.71248  21695019.827    21695019.7204   21695024.9784
        -0.000          -0.000
 -24455151.544 9 -19028544.14647  22141685.265    22141684.7914   22141690.9674
        -0.000          -0.000
 -29871959.249 9 -22309999.59349  20562108.611    20562107.8294   20562113.3744
        -0.000          -0.000
 -13006126.100 9  -9866582.18646  22993875.280    22993874.2134   22993881.7414
        -0.000          -0.000
  -4313329.134 8  -3337688.70645  24524766.655    24524766.3784   24524773.8454
        -0.000          -0.000
 97  3 10  0 49 59.9990000  0  7 30 24  4  9  5 10  6               -0.000623709
 -17100217.374 9 -13040949.50047  22475090.380    22475090.3594   22475095.8094
        -0.000          -0.000
 -32878335.755 9 -25001432.06949  20148708.484    20148708.0704   20148714.1524
        -0.000          -0.000
 -26502522.322 9 -19236507.15248  21706667.827    21706667.6964   21706672.9864
        -0.000          -0.000
 -24401464.549 9 -18986710.14147  22151901.595    22151901.1184   22151907.2864
        -0.000          -0.000
 -29937460.041 9 -22361039.16849  20549644.232    20549643.4384   20549648.9844
        -0.000          -0.000
 -13114489.301 9  -9951020.96346  22973254.340    22973253.3284   22973260.8644
        -0.000          -0.000
  -4400390.063 8  -3405528.34345  24508199.462    24508199.1774   24508206.6194
        -0.000          -0.000
 97  3 10  0 50 29.9990000  0  7 30 24  4  9  5 10  6               -0.000634515
 -17208474.282 9 -13125305.48947  22454489.801    22454489.8004   22454495.2104
        -0.000          -0.000
 -32883160.876 9 -25005191.89549  20147790.294    20147789.8754   20147795.9524
        -0.000          -0.000
 -26440984.148 9 -19188555.33248  21718378.142    21718378.0404   21718383.3164
        -0.000          -0.000
 -24347458.791 9 -18944627.74547  22162178.575    22162178.0934   22162184.2674
        -0.000          -0.000
 -30002559.093 9 -22411765.69649  20537256.274    20537255.4744   20537261.0174
        -0.000          -0.000
 -13222704.158 9 -10035344.15446  22952661.681    22952660.6244   22952668.2424
        -0.000          -0.000
  -4487419.378 8  -3473343.34945  24491638.327    24491638.0614   24491645.3744
        -0.000          -0.000
 97  3 10  0 50 59.9990000  0  7 30 24  4  9  5 10  6               -0.000645337
 -17316585.151 9 -13209547.69547  22433916.971    22433916.9424   22433922.3614
        -0.000          -0.000
 -32887486.749 9 -25008562.69349  20146967.123    20146966.7054   20146972.7864
        -0.000          -0.000
 -26379147.544 9 -19140370.97048  21730145.255    21730145.1234   21730150.4184
        -0.000          -0.000
 -24293144.656 9 -18902305.06047  22172514.249    22172513.7684   22172519.9254
        -0.000          -0.000
 -30067259.359 9 -22462181.48249  20524944.191    20524943.3974   20524948.9414
        -0.000          -0.000
 -13330792.385 9 -10119568.69346  22932093.132    22932092.0544   22932099.5804
        -0.000          -0.000
  -4574417.471 8  -3541134.01045  24475083.140    24475082.9224   24475090.1234
        -0.000          -0.000
 97  3 10  0 51 29.9990000  0  7 30 24  4  9  5 10  6               -0.000656177
 -17424539.589 9 -13293668.00547  22413373.957    22413373.9144   22413379.3164
        -0.000          -0.000
 -32891310.434 9 -25011542.17749  20146239.464    20146239.0494   20146245.1094
        -0.000          -0.000
 -26317027.876 9 -19091966.04048  21741966.233    21741966.1004   21741971.4014
        -0.000          -0.000
 -24238545.360 9 -18859760.17147  22182904.195    22182903.7154   22182909.8704
        -0.000          -0.000
 -30131559.957 9 -22512285.83849  20512708.199    20512707.3984   20512712.9434
        -0.000          -0.000
 -13438746.913 9 -10203689.04846  22911550.075    22911548.9854   22911556.4434
        -0.000          -0.000
  -4661390.247 8  -3608904.92245  24458532.636    24458532.4514   24458539.9614
        -0.000          -0.000
 97  3 10  0 51 59.9990000  0  7 30 24  4  9  5 10  6               -0.000667030
 -17532326.603 9 -13377657.84447  22392862.714    22392862.6844   22392868.1124
        -0.000          -0.000
 -32894623.210 9 -25014123.54649  20145609.043    20145608.6554   20145614.7064
        -0.000          -0.000
 -26254634.034 9 -19043347.46448  21753839.342    21753839.2114   21753844.5554
        -0.000          -0.000
 -24183666.869 9 -18816997.72347  22193347.196    22193346.7464   22193352.9184
        -0.000          -0.000
 -30195468.745 9 -22562084.88149  20500546.749    20500545.9374   20500551.5144
        -0.000          -0.000
 -13546553.035 9 -10287693.74046  22891035.163    22891034.0774   22891041.5394
        -0.000          -0.000
  -4748332.192 9  -3676651.78645  24441988.071    24441987.8144   24441995.5244
        -0.000          -0.000
 97  3 10  0 52 29.9990000  0  7 30 24  4  9  5 10  6               -0.000677898
 -17639949.308 9 -13461519.66747  22372382.754    22372382.6924   22372388.0894
        -0.000          -0.000
 -32897432.646 9 -25016312.70449  20145074.404    20145074.0064   20145080.0754
        -0.000          -0.000
 -26191988.146 9 -18994532.48848  21765760.442    21765760.3184   21765765.6784
        -0.000          -0.000
 -24128506.353 9 -18774015.52147  22203843.895    22203843.4494   22203849.6524
        -0.000          -0.000
 -30258996.891 9 -22611587.32249  20488457.743    20488456.9264   20488462.4934
        -0.000          -0.000
 -13654200.638 9 -10371574.92146  22870550.451    22870549.3294   22870556.8234
        -0.000          -0.000
  -4835252.007 8  -3744381.42045  24425447.807    24425447.4144   24425455.1114
        -0.000          -0.000
 97  3 10  0 52 59.9990000  0  7 30 24  4  9  5 10  6               -0.000688778
 -17747386.962 9 -13545237.28847  22351938.086    22351937.9954   22351943.4024
        -0.000          -0.000
 -32899767.275 9 -25018131.88149  20144630.149    20144629.7634   20144635.8244
        -0.000          -0.000
 -26129107.834 9 -18945534.84848  21777726.189    21777726.0344   21777731.3964
        -0.000          -0.000
 -24073064.177 9 -18730813.84347  22214394.213    22214393.7454   22214399.9394
        -0.000          -0.000
 -30322138.058 9 -22660788.22549  20476442.386    20476441.5744   20476447.1404
        -0.000          -0.000
 -13761682.154 9 -10455326.70646  22850097.299    22850096.2384   22850103.6694
        -0.000          -0.000
  -4922149.610 9  -3812093.74545  24408911.714    24408911.4224   24408918.9594
        -0.000          -0.000
 97  3 10  0 53 29.9990000  0  7 30 24  4  9  5 10  6               -0.000699652
 -17854626.385 9 -13628800.43847  22331531.011    22331530.9234   22331536.4254
        -0.000          -0.000
 -32901621.757 9 -25019576.92049  20144277.239    20144276.8374   20144282.8974
        -0.000          -0.000
 -26065968.244 9 -18896335.17448  21789741.238    21789741.0864   21789746.4514
        -0.000          -0.000
 -24017325.421 9 -18687381.06947  22225000.961    22225000.5024   22225006.6994
        -0.000          -0.000
 -30384882.604 9 -22709680.06949  20464502.483    20464501.6904   20464507.2304
        -0.000          -0.000
 -13868972.082 9 -10538929.17146  22829680.616    22829679.5724   22829686.9984
        -0.000          -0.000
  -5009018.014 9  -3879783.32345  24392381.102    24392380.7774   24392388.3704
        -0.000          -0.000
 97  3 10  0 53 59.9990000  0  7 30 24  4  9  5 10  6               -0.000710515
 -17961656.995 9 -13712200.87847  22311163.687    22311163.6134   22311169.1834
        -0.000          -0.000
 -32902985.535 9 -25020639.58949  20144017.707    20144017.3074   20144023.3714
        -0.000          -0.000
 -26002565.497 9 -18846930.44248  21801806.376    21801806.2544   21801811.5984
        -0.000          -0.000
 -23961260.538 9 -18643694.16347  22235669.761    22235669.3164   22235675.4944
        -0.000          -0.000
 -30447229.815 9 -22758262.30049  20452638.165    20452637.3844   20452642.9314
        -0.000          -0.000
 -13976068.636 9 -10622380.96246  22809300.810    22809299.7104   22809307.2644
        -0.000          -0.000
  -5095837.549 9  -3947434.82845  24375859.793    24375859.2944   24375866.9104
        -0.000          -0.000
 97  3 10  0 54 29.9990000  0  7 30 24  4  9  5 10  6               -0.000721375
 -18068493.978 9 -13795450.43947  22290833.226    22290833.2074   22290838.7554
        -0.000          -0.000
 -32903876.924 9 -25021334.16649  20143848.048    20143847.6644   20143853.7364
        -0.000          -0.000
 -25938913.688 9 -18797331.63148  21813918.907    21813918.7984   21813924.1354
        -0.000          -0.000
 -23904865.019 9 -18599749.62747  22246401.471    22246401.0374   22246407.2544
        -0.000          -0.000
 -30509182.323 9 -22806536.97349  20440849.008    20440848.2254   20440853.8034
        -0.000          -0.000
 -14082974.375 9 -10705684.07646  22788957.259    22788956.1744   22788963.6864
        -0.000          -0.000
  -5182612.332 9  -4015051.44145  24359347.080    24359346.4764   24359354.0904
        -0.000          -0.000
 97  3 10  0 54 59.9990000  0  7 30 24  4  9  5 10  6               -0.000732213
 -18175119.069 9 -13878534.89047  22270543.148    22270543.1044   22270548.6434
        -0.000          -0.000
 -32904287.427 9 -25021654.02849  20143769.914    20143769.5394   20143775.6004
        -0.000          -0.000
 -25874991.045 9 -18747521.77748  21826083.003    21826082.8874   21826088.2404
        -0.000          -0.000
 -23848137.345 9 -18555546.26547  22257196.414    22257195.9544   22257202.1724
        -0.000          -0.000
 -30570724.626 9 -22854492.00149  20429137.877    20429137.0934   20429142.6784
        -0.000          -0.000
 -14189671.034 9 -10788824.26946  22768653.454    22768652.3804   22768659.8244
        -0.000          -0.000
  -5269324.167 9  -4082619.02145  24342846.266    24342845.7294   24342853.1764
        -0.000          -0.000
 97  3 10  0 55 29.9990000  0  7 30 24  4  9  5 10  6               -0.000743033
 -18281542.122 9 -13961461.90647  22250291.477    22250291.4044   22250296.9814
        -0.000          -0.000
 -32904226.376 9 -25021606.44449  20143781.523    20143781.1604   20143787.2404
        -0.000          -0.000
 -25810803.163 9 -18697505.24748  21838297.538    21838297.4314   21838302.7644
        -0.000          -0.000
 -23791098.803 9 -18511100.67347  22268050.500    22268050.0304   22268056.2604
        -0.000          -0.000
 -30631888.303 9 -22902151.99749  20417498.793    20417497.9904   20417503.5744
        -0.000          -0.000
 -14296165.080 9 -10871806.59746  22748388.301    22748387.2294   22748394.6824
        -0.000          -0.000
  -5355999.215 8  -4150157.94345  24326352.536    24326352.0174   24326359.4704
        -0.000          -0.000
 97  3 10  0 55 59.9990000  0  7 30 24  4  9  5 10  6               -0.000753845
 -18387778.867 9 -14044243.74547  22230075.333    22230075.2394   22230080.7644
        -0.000          -0.000
 -32903713.241 9 -25021206.58449  20143879.154    20143878.7834   20143884.8734
        -0.000          -0.000
 -25746370.804 9 -18647298.21248  21850558.605    21850558.5034   21850563.8504
        -0.000          -0.000
 -23733773.396 9 -18466431.54147  22278959.130    22278958.7074   22278964.9344
        -0.000          -0.000
 -30692680.278 9 -22949522.35649  20405930.446    20405929.6694   20405935.2384
        -0.000          -0.000
 -14402465.451 9 -10954637.98247  22728159.889    22728158.8744   22728166.4034
        -0.000          -0.000
  -5442653.139 9  -4217680.39745  24309862.746    24309862.2324   24309869.7464
        -0.000          -0.000
 97  3 10  0 56 29.9990000  0  7 30 24  4  9  5 10  6               -0.000764649
 -18493829.128 9 -14126880.27747  22209894.561    22209894.5104   22209900.0204
        -0.000          -0.000
 -32902757.223 9 -25020461.62649  20144061.044    20144060.6574   20144066.7674
        -0.000          -0.000
 -25681681.418 9 -18596890.89848  21862868.583    21862868.4714   21862873.8334
        -0.000          -0.000
 -23676178.423 9 -18421552.35647  22289919.101    22289918.6604   22289924.8924
        -0.000          -0.000
 -30753092.595 9 -22996596.88049  20394434.377    20394433.5974   20394439.1674
        -0.000          -0.000
 -14508573.645 9 -11037319.64747  22707968.133    22707967.1014   22707974.5454
        -0.000          -0.000
  -5529300.541 9  -4285197.76645  24293374.204    24293373.7374   24293381.2654
        -0.000          -0.000
 97  3 10  0 56 59.9990000  0  7 30 24  4  9  5 10  6               -0.000775455
 -18599682.863 9 -14209363.68047  22189751.260    22189751.2154   22189756.6994
        -0.000          -0.000
 -32901358.810 9 -25019371.94449  20144327.144    20144326.7634   20144332.8634
        -0.000          -0.000
 -25616736.966 9 -18546284.82848  21875227.104    21875226.9954   21875232.3814
        -0.000          -0.000
 -23618327.249 9 -18376473.54347  22300927.828    22300927.3994   22300933.5804
        -0.000          -0.000
 -30813120.902 9 -23043372.17649  20383011.334    20383010.5854   20383016.1584
        -0.000          -0.000
 -14614508.513 9 -11119866.25747  22687809.372    22687808.3274   22687815.6554
        -0.000          -0.000
  -5615945.980 9  -4352713.63345  24276886.028    24276885.6414   24276893.1494
        -0.000          -0.000
 97  3 10  0 57 29.9990000  0  7 30 24  4  9  5 10  6               -0.000786274
 -18705356.669 9 -14291706.87547  22169642.170    22169642.1164   22169647.6604
        -0.000          -0.000
 -32899524.012 9 -25017942.22049  20144676.287    20144675.9014   20144681.9824
        -0.000          -0.000
 -25551557.548 9 -18495495.67047  21887630.281    21887630.2094   21887635.6054
        -0.000          -0.000
 -23560214.594 9 -18331190.97147  22311986.328    22311985.8844   22311992.0364
        -0.000          -0.000
 -30872772.571 9 -23089853.98649  20371659.983    20371659.2244   20371664.7974
        -0.000          -0.000
 -14720287.612 9 -11202291.47147  22667680.260    22667679.1834   22667686.5404
        -0.000          -0.000
  -5702587.888 8  -4420226.73745  24260398.553    24260398.1864   24260405.6424
        -0.000          -0.000
 97  3 10  0 57 59.9990000  0  7 30 24  4  9  5 10  6               -0.000797121
 -18810866.988 9 -14373922.67047  22149564.163    22149564.1164   22149569.6764
        -0.000          -0.000
 -32897246.001 9 -25016167.13949  20145109.781    20145109.3914   20145115.4694
        -0.000          -0.000
 -25486156.390 9 -18444533.73847  21900075.727    21900075.6634   21900081.0684
        -0.000          -0.000
 -23501845.837 9 -18285708.83947  22323093.517    22323093.0944   22323099.2564
        -0.000          -0.000
 -30932032.365 9 -23136030.43749  20360383.199    20360382.4514   20360388.0274
        -0.000          -0.000
 -14825920.118 9 -11284602.45947  22647579.059    22647577.9384   22647585.3794
        -0.000          -0.000
  -5789217.181 9  -4487730.02845  24243913.540    24243913.1494   24243920.4814
        -0.000          -0.000
 97  3 10  0 58 29.9990000  0  7 30 24  4  9  5 10  6               -0.000807980
 -18916176.755 9 -14455982.19447  22129524.355    22129524.2994   22129529.8534
        -0.000          -0.000
 -32894510.533 9 -25014035.59549  20145630.305    20145629.9214   20145636.0094
        -0.000          -0.000
 -25420522.017 9 -18393390.06747  21912565.557    21912565.4674   21912570.8734
        -0.000          -0.000
 -23443194.229 9 -18240006.30447  22334254.557    22334254.1284   22334260.3074
        -0.000          -0.000
 -30990879.951 9 -23181885.68549  20349184.854    20349184.1234   20349189.7224
        -0.000          -0.000
 -14931385.650 9 -11366783.35447  22627509.624    22627508.5324   22627515.9234
        -0.000          -0.000
  -5875805.779 9  -4555201.59645  24227436.124    24227435.7564   24227443.1314
        -0.000          -0.000
 97  3 10  0 58 59.9990000  0  7 30 24  4  9  5 10  6               -0.000818847
 -19021284.397 9 -14537884.21347  22109523.047    22109522.9764   22109528.4584
        -0.000          -0.000
 -32891331.218 9 -25011558.19949  20146235.301    20146234.9024   20146240.9924
        -0.000          -0.000
 -25354673.485 9 -18342079.52247  21925096.079    21925096.0124   21925101.4094
        -0.000          -0.000
 -23384254.942 9 -18194079.60647  22345470.339    22345469.9134   22345476.1014
        -0.000          -0.000
 -31049325.968 9 -23227428.02349  20338062.930    20338062.1734   20338067.7704
        -0.000          -0.000
 -15036676.625 9 -11448828.21447  22607473.343    22607472.2634   22607479.6574
        -0.000          -0.000
  -5962349.201 9  -4622637.94745  24210967.429    24210967.0864   24210974.5074
        -0.000          -0.000
 97  3 10  0 59 29.9990000  0  7 30 24  4  9  5 10  6               -0.000829709
 -19126185.356 9 -14619625.19147  22089560.952    22089560.9354   22089566.4314
        -0.000          -0.000
 -32887702.622 9 -25008730.70949  20146925.784    20146925.4044   20146931.4984
        -0.000          -0.000
 -25288602.234 9 -18290595.43347  21937668.999    21937668.9584   21937674.3554
        -0.000          -0.000
 -23325023.365 9 -18147925.15247  22356741.808    22356741.3404   22356747.5084
        -0.000          -0.000
 -31107371.429 9 -23272658.24349  20327017.228    20327016.4994   20327022.0864
        -0.000          -0.000
 -15141764.185 9 -11530714.56947  22587475.860    22587474.7274   22587482.0804
        -0.000          -0.000
  -6048850.531 8  -4690041.53345  24194506.841    24194506.5024   24194513.6934
        -0.000          -0.000
 97  3 10  0 59 59.9990000  0  7 30 24  4  9  5 10  6               -0.000840571
 -19230870.858 9 -14701198.27747  22069639.977    22069639.9564   22069645.4094
        -0.000          -0.000
 -32883626.459 9 -25005554.47049  20147701.447    20147701.0574   20147707.1494
        -0.000          -0.000
 -25222308.650 9 -18238938.10447  21950284.262    21950284.1954   21950289.5994
        -0.000          -0.000
 -23265508.198 9 -18101549.71647  22368067.234    22368066.7594   22368072.9374
        -0.000          -0.000
 -31165011.797 9 -23317572.80949  20316048.630    20316047.8734   20316053.4454
        -0.000          -0.000
 -15246638.589 9 -11612434.83947  22567518.873    22567517.7724   22567525.1664
        -0.000          -0.000
  -6135328.952 8  -4757427.24845  24178050.335    24178050.1354   24178057.1864
        -0.000          -0.000
 97  3 10  1  0 29.9990000  0  7 30 24  4  9  5 10  6               -0.000851436
 -19335336.337 9 -14782599.92347  22049760.864    22049760.7884   22049766.2334
        -0.000          -0.000
 -32879119.978 9 -25002042.91349  20148558.991    20148558.6134   20148564.7254
        -0.000          -0.000
 -25155802.834 9 -18187115.39147  21962939.917    21962939.8234   21962945.2454
        -0.000          -0.000
 -23205721.009 9 -18054962.30647  22379444.354    22379443.8734   22379450.0684
        -0.000          -0.000
 -31222255.758 9 -23362178.48649  20305155.457    20305154.7244   20305160.2964
        -0.000          -0.000
 -15351312.006 9 -11693998.48947  22547600.121    22547599.0514   22547606.4194
        -0.000          -0.000
  -6221793.618 9  -4824802.23545  24161596.595    24161596.3154   24161603.5984
        -0.000          -0.000
 97  3 10  1  0 59.9990000  0  7 30 24  4  9  5 10  6               -0.000862300
 -19439583.914 9 -14863831.76647  22029923.182    22029923.1214   22029928.5674
        -0.000          -0.000
 -32874170.762 9 -24998186.36949  20149500.775    20149500.4014   20149506.4984
        -0.000          -0.000
 -25089074.983 9 -18135119.66847  21975637.827    21975637.7424   21975643.1314
        -0.000          -0.000
 -23145676.385 9 -18008174.30847  22390870.441    22390870.0034   22390876.1914
        -0.000          -0.000
 -31279103.087 9 -23406475.10449  20294337.742    20294336.9934   20294342.5724
        -0.000          -0.000
 -15455769.457 9 -11775393.87547  22527722.492    22527721.4524   22527728.7204
        -0.000          -0.000
  -6308250.495 9  -4892171.14345  24145144.246    24145143.9944   24145151.3014
        -0.000          -0.000
 97  3 10  1  1 29.9990000  0  7 30 24  4  9  5 10  6               -0.000873174
 -19543616.725 9 -14944896.26147  22010126.403    22010126.3374   22010131.7204
        -0.000          -0.000
 -32868773.686 9 -24993980.84349  20150527.769    20150527.3804   20150533.4884
        -0.000          -0.000
 -25022132.909 9 -18082957.01647  21988376.475    21988376.3744   21988381.7874
        -0.000          -0.000
 -23085394.105 9 -17961201.11347  22402341.784    22402341.3524   22402347.5594
        -0.000          -0.000
 -31335541.967 9 -23450453.44649  20283597.771    20283597.0184   20283602.5924
        -0.000          -0.000
 -15560005.810 9 -11856616.95547  22507886.979    22507885.9554   22507893.1264
        -0.000          -0.000
  -6394709.621 9  -4959541.82345  24128691.711    24128691.4434   24128698.6764
        -0.000          -0.000
 97  3 10  1  1 59.9990000  0  7 30 24  4  9  5 10  6               -0.000884055
 -19647414.012 9 -15025777.24247  21990374.424    21990374.3614   21990379.7514
        -0.000          -0.000
 -32862916.385 9 -24989416.69949  20151642.367    20151641.9994   20151648.0984
        -0.000          -0.000
 -24954968.682 9 -18030621.25847  22001157.379    22001157.3064   22001162.7004
        -0.000          -0.000
 -23024871.098 9 -17914040.34447  22413858.941    22413858.5084   22413864.7384
        -0.000          -0.000
 -31391535.548 9 -23494084.80149  20272942.573    20272941.8144   20272947.3984
        -0.000          -0.000
 -15664011.478 9 -11937660.27247  22488095.327    22488094.2564   22488101.4274
        -0.000          -0.000
  -6481144.053 8  -5026893.26845  24112243.750    24112243.5524   24112250.6594
        -0.000          -0.000
 97  3 10  1  2 29.9990000  0  7 30 24  4  9  5 10  6               -0.000894943
 -19750983.997 9 -15106481.09947  21970665.653    21970665.6154   21970670.9734
        -0.000          -0.000
 -32856617.374 9 -24984508.37049  20152841.015    20152840.6394   20152846.7444
        -0.000          -0.000
 -24887588.762 9 -17978117.42547  22013979.430    22013979.3394   22013984.7244
        -0.000          -0.000
 -22964125.007 9 -17866705.74247  22425418.583    22425418.1364   22425424.3634
        -0.000          -0.000
 -31447099.797 9 -23537381.61149  20262369.037    20262368.2844   20262373.8464
        -0.000          -0.000
 -15767791.919 9 -12018528.08847  22468346.473    22468345.3784   22468352.5894
        -0.000          -0.000
  -6567565.698 9  -5094234.73445  24095798.156    24095797.8374   24095805.0124
        -0.000          -0.000
 97  3 10  1  2 59.9990000  0  7 30 24  4  9  5 10  6               -0.000905836
 -19854323.549 9 -15187005.39147  21951000.754    21951000.7084   21951006.0774
        -0.000          -0.000
 -32849867.305 9 -24979248.56249  20154125.463    20154125.1004   20154131.2124
        -0.000          -0.000
 -24819990.308 9 -17925443.31747  22026842.939    22026842.8744   22026848.2364
        -0.000          -0.000
 -22903141.052 9 -17819185.79547  22437023.468    22437023.0124   22437029.2874
        -0.000          -0.000
 -31502228.205 9 -23580338.80349  20251878.454    20251877.6974   20251883.2544
        -0.000          -0.000
 -15871323.371 9 -12099201.88647  22448645.045    22448643.9874   22448651.1214
        -0.000          -0.000
  -6653979.820 9  -5161570.34845  24079354.050    24079353.6604   24079360.8754
        -0.000          -0.000
 97  3 10  1  3 29.9990000  0  7 30 24  4  9  5 10  6               -0.000916758
 -19957453.583 9 -15267366.43147  21931375.718    21931375.6544   21931381.0434
        -0.000          -0.000
 -32842669.545 9 -24973639.91249  20155495.116    20155494.7714   20155500.8864
        -0.000          -0.000
 -24752196.722 9 -17872617.14847  22039743.645    22039743.5634   22039748.9124
        -0.000          -0.000
 -22841925.874 9 -17771485.67047  22448672.334    22448671.8884   22448678.1844
        -0.000          -0.000
 -31556921.874 9 -23622957.23849  20241470.588    20241469.8124   20241475.3384
        -0.000          -0.000
 -15974637.526 9 -12179706.36847  22428984.923    22428983.8984   22428990.9764
        -0.000          -0.000
  -6740390.618 9  -5228903.40245  24062910.593    24062910.2634   24062917.2724
        -0.000          -0.000
 97  3 10  1  3 59.9990000  0  7 30 24  4  9  5 10  6               -0.000927711
 -20060381.412 9 -15347569.90847  21911789.169    21911789.1044   21911794.4464
        -0.000          -0.000
 -32835034.470 9 -24967690.49749  20156948.056    20156947.6854   20156953.7914
        -0.000          -0.000
 -24684215.913 9 -17819645.09547  22052679.987    22052679.8884   22052685.2234
        -0.000          -0.000
 -22780480.464 9 -17723606.14547  22460365.018    22460364.5734   22460370.8444
        -0.000          -0.000
 -31611198.258 9 -23665250.51549  20231142.132    20231141.3524   20231146.8824
        -0.000          -0.000
 -16077761.134 9 -12260062.37147  22409361.156    22409360.1034   22409367.2024
        -0.000          -0.000
  -6826793.258 9  -5296230.11545  24046468.802    24046468.3864   24046475.3414
        -0.000          -0.000
 97  3 10  1  4 29.9990000  0  7 30 24  4  9  5 10  6               -0.000938671
 -20163083.098 9 -15427597.16947  21892245.702    21892245.6044   21892250.9344
        -0.000          -0.000
 -32826939.560 9 -24961382.76949  20158488.447    20158488.0994   20158494.1884
        -0.000          -0.000
 -24616023.681 9 -17766508.29047  22065656.582    22065656.4544   22065661.8004
        -0.000          -0.000
 -22718769.837 9 -17675519.96447  22472108.151    22472107.7344   22472113.9654
        -0.000          -0.000
 -31665049.357 9 -23707212.40049  20220894.568    20220893.8074   20220899.3084
        -0.000          -0.000
 -16180658.924 9 -12340242.39147  22389780.380    22389779.2484   22389786.4144
        -0.000          -0.000
  -6913165.479 9  -5363533.09345  24030032.644    24030032.2364   24030039.3164
        -0.000          -0.000
 97  3 10  1  4 59.9990000  0  7 30 24  4  9  5 10  6               -0.000949651
 -20265575.946 9 -15507461.69347  21872741.933    21872741.8264   21872747.1604
        -0.000          -0.000
 -32818412.113 9 -24954737.99649  20160111.180    20160110.8264   20160116.9104
        -0.000          -0.000
 -24547648.014 9 -17713228.54747  22078668.086    22078667.9564   22078673.2774
        -0.000          -0.000
 -22656829.323 9 -17627254.63947  22483895.096    22483894.6344   22483900.8694
        -0.000          -0.000
 -31718478.968 9 -23748845.85049  20210727.232    20210726.4754   20210731.9814
        -0.000          -0.000
 -16283352.159 9 -12420263.04647  22370238.480    22370237.3664   22370244.4804
        -0.000          -0.000
  -6999507.921 9  -5430812.85445  24013602.119    24013601.7794   24013608.8224
        -0.000          -0.000
 97  3 10  1  5 29.9990000  0  7 30 24  4  9  5 10  6               -0.000960637
 -20367852.262 9 -15587157.48847  21853279.328    21853279.2404   21853284.5884
        -0.000          -0.000
 -32809456.093 9 -24947759.27149  20161815.427    20161815.0564   20161821.1634
        -0.000          -0.000
 -24479076.049 9 -17659795.85647  22091716.883    22091716.7234   22091722.0764
        -0.000          -0.000
 -22594673.365 9 -17578821.43847  22495722.971    22495722.5554   22495728.8174
        -0.000          -0.000
 -31771474.703 9 -23790141.21649  20200642.515    20200641.7574   20200647.2614
        -0.000          -0.000
 -16385839.307 9 -12500123.12147  22350735.764    22350734.6784   22350741.7374
        -0.000          -0.000
  -7085801.845 9  -5498054.83945  23997180.887    23997180.6274   23997187.5694
        -0.000          -0.000
 97  3 10  1  5 59.9990000  0  7 30 24  4  9  5 10  6               -0.000971613
 -20469897.705 9 -15666673.39447  21833860.679    21833860.6434   21833865.9404
        -0.000          -0.000
 -32800091.456 9 -24940462.14249  20163597.447    20163597.0924   20163603.2034
        -0.000          -0.000
 -24410298.164 9 -17606202.69447  22104804.877    22104804.7424   22104810.0894
        -0.000          -0.000
 -22532302.334 9 -17530220.64847  22507591.791    22507591.3094   22507597.6314
        -0.000          -0.000
 -31824042.196 9 -23831102.88549  20190639.250    20190638.4924   20190643.9914
        -0.000          -0.000
 -16488093.008 9 -12579801.27447  22331277.423    22331276.3894   22331283.4114
        -0.000          -0.000
  -7172056.532 9  -5565266.26245  23980767.128    23980766.8314   23980773.7364
        -0.000          -0.000
 97  3 10  1  6 29.9990000  0  7 30 24  4  9  5 10  6               -0.000982577
 -20571708.258 9 -15746006.25947  21814486.754    21814486.7154   21814492.0304
        -0.000          -0.000
 -32790326.392 9 -24932852.98649  20165455.665    20165455.2964   20165461.3844
        -0.000          -0.000
 -24341310.236 9 -17552445.87047  22117932.844    22117932.7344   22117938.0914
        -0.000          -0.000
 -22469725.109 9 -17481459.18047  22519499.814    22519499.3454   22519505.7054
        -0.000          -0.000
 -31876172.677 9 -23871724.02849  20180719.138    20180718.3794   20180723.8654
        -0.000          -0.000
 -16590085.670 9 -12659276.01147  22311868.852    22311867.7854   22311874.8624
        -0.000          -0.000
  -7258294.095 9  -5632464.34045  23964356.651    23964356.2924   23964363.1634
        -0.000          -0.000
 97  3 10  1  6 59.9990000  0  7 30 24  4  9  5 10  6               -0.000993535
 -20673274.327 9 -15825148.61947  21795159.313    21795159.2854   21795164.6134
        -0.000          -0.000
 -32780160.771 9 -24924931.71249  20167390.098    20167389.7374   20167395.8314
        -0.000          -0.000
 -24272115.107 9 -17498527.58947  22131100.248    22131100.1284   22131105.4434
        -0.000          -0.000
 -22406947.383 9 -17432541.48847  22531445.951    22531445.4954   22531451.8524
        -0.000          -0.000
 -31927858.784 9 -23911998.90249  20170883.600    20170882.8584   20170888.3374
        -0.000          -0.000
 -16691822.379 9 -12738551.31647  22292508.982    22292507.8484   22292514.9314
        -0.000          -0.000
  -7344518.831 9  -5699652.39445  23947948.580    23947948.1314   23947955.1984
        -0.000          -0.000
 97  3 10  1  7 29.9990000  0  7 30 24  4  9  5 10  6               -0.001004490
 -20774580.916 9 -15904088.78447  21775881.338    21775881.3014   21775886.6084
        -0.000          -0.000
 -32769578.155 9 -24916685.50349  20169403.873    20169403.5134   20169409.6124
        -0.000          -0.000
 -24202716.617 9 -17444450.84547  22144306.347    22144306.2354   22144311.5664
        -0.000          -0.000
 -22343949.227 9 -17383452.03147  22543434.147    22543433.6864   22543440.0254
        -0.000          -0.000
 -31979110.952 9 -23951935.64249  20161130.609    20161129.8504   20161135.3334
        -0.000          -0.000
 -16793293.392 9 -12817619.59947  22273199.601    22273198.5364   22273205.5484
        -0.000          -0.000
  -7430743.115 9  -5766840.08945  23931540.482    23931540.0204   23931547.2994
        -0.000          -0.000
 97  3 10  1  7 59.9980000  0  7 30 24  4  9  5 10  6               -0.001015441
 -20875605.607 9 -15982809.29447  21756656.914    21756656.8704   21756662.1944
        -0.000          -0.000
 -32758580.251 9 -24908115.69249  20171496.702    20171496.3444   20171502.4334
        -0.000          -0.000
 -24133128.446 9 -17390226.29447  22157548.555    22157548.4284   22157553.7794
        -0.000          -0.000
 -22280722.126 9 -17334184.17047  22555465.829    22555465.3974   22555471.7574
        -0.000          -0.000
 -32029926.539 9 -23991532.18649  20151460.718    20151459.9654   20151465.4474
        -0.000          -0.000
 -16894482.643 9 -12896468.30147  22253943.855    22253942.7974   22253949.7994
        -0.000          -0.000
  -7516966.695 9  -5834027.25846  23915132.702    23915132.2084   23915139.3844
        -0.000          -0.000
 97  3 10  1  8 29.9980000  0  7 30 24  4  9  5 10  6               -0.001026400
 -20976349.407 9 -16061310.93047  21737485.978    21737485.9524   21737491.2564
        -0.000          -0.000
 -32747153.449 9 -24899211.67649  20173671.125    20173670.7884   20173676.8804
        -0.000          -0.000
 -24063353.898 9 -17335856.52147  22170826.188    22170826.0574   22170831.4034
        -0.000          -0.000
 -22217263.734 9 -17284736.09247  22567541.504    22567541.0474   22567547.4944
        -0.000          -0.000
 -32080295.802 9 -24030780.95149  20141875.735    20141874.9904   20141880.4704
        -0.000          -0.000
 -16995402.345 9 -12975106.97447  22234739.427    22234738.3714   22234745.4084
        -0.000          -0.000
  -7603188.332 9  -5901212.93045  23898725.218    23898724.8174   23898731.7114
        -0.000          -0.000
 97  3 10  1  8 59.9980000  0  7 30 24  4  9  5 10  6               -0.001037381
 -21076813.359 9 -16139594.50347  21718368.317    21718368.2574   21718373.5794
        -0.000          -0.000
 -32735291.652 9 -24889968.70349  20175928.373    20175928.0364   20175934.0994
        -0.000          -0.000
 -23993415.266 9 -17281358.88347  22184135.078    22184134.9734   22184140.2984
        -0.000          -0.000
 -22153581.418 9 -17235113.52147  22579659.850    22579659.4074   22579665.8484
        -0.000          -0.000
 -32130219.900 9 -24069682.83349  20132375.480    20132374.7274   20132380.2174
        -0.000          -0.000
 -17096073.508 9 -13053551.98347  22215582.237    22215581.2234   22215588.2974
        -0.000          -0.000
  -7689399.134 9  -5968390.11245  23882319.781    23882319.3644   23882326.3724
        -0.000          -0.000
 97  3 10  1  9 29.9980000  0  7 30 24  4  9  5 10  6               -0.001048382
 -21177019.784 9 -16217677.40147  21699299.625    21699299.6074   21699304.9034
        -0.000          -0.000
 -32723006.518 9 -24880395.85849  20178266.179    20178265.8274   20178271.8744
        -0.000          -0.000
 -23923314.582 9 -17226734.97547  22197474.788    22197474.6784   22197480.0084
        -0.000          -0.000
 -22089683.805 9 -17185323.19047  22591819.222    22591818.7694   22591825.2214
        -0.000          -0.000
 -32179708.185 9 -24108245.12549  20122958.152    20122957.4064   20122962.8934
        -0.000          -0.000
 -17196493.999 9 -13131801.64747  22196472.849    22196471.7934   22196478.8684
        -0.000          -0.000
  -7775604.395 9  -6035563.00245  23865915.472    23865915.0214   23865922.0884
        -0.000          -0.000
 97  3 10  1  9 59.9980000  0  7 30 24  4  9  5 10  6               -0.001059399
 -21276984.747 9 -16295572.15147  21680276.905    21680276.8874   21680282.1714
        -0.000          -0.000
 -32710310.117 9 -24870502.54549  20180682.230    20180681.8754   20180687.9164
        -0.000          -0.000
 -23853043.795 9 -17171978.51647  22210846.854    22210846.7414   22210852.0854
        -0.000          -0.000
 -22025575.967 9 -17135369.05147  22604018.595    22604018.1144   22604024.5654
        -0.000          -0.000
 -32228749.840 9 -24146459.39449  20113625.829    20113625.0774   20113630.5674
        -0.000          -0.000
 -17296659.936 9 -13209852.97747  22177411.833    22177410.8184   22177417.8574
        -0.000          -0.000
  -7861801.230 9  -6102729.33746  23849512.696    23849512.2664   23849519.3564
        -0.000          -0.000
 97  3 10  1 10 29.9980000  0  7 30 24  4  9  5 10  6               -0.001070422
 -21376715.416 9 -16373284.33247  21661298.710    21661298.7254   21661304.0484
        -0.000          -0.000
 -32697188.815 9 -24860278.13949  20183179.145    20183178.7964   20183184.8084
        -0.000          -0.000
 -23782586.234 9 -17117076.52347  22224254.485    22224254.3994   22224259.7384
        -0.000          -0.000
 -21961247.264 9 -17085242.81347  22616259.943    22616259.4704   22616265.8964
        -0.000          -0.000
 -32277339.823 9 -24184321.70949  20104379.418    20104378.6984   20104384.1704
        -0.000          -0.000
 -17396567.247 9 -13287702.78547  22158400.114    22158399.0804   22158406.1024
        -0.000          -0.000
  -7947978.298 9  -6169880.25946  23833113.829    23833113.4094   23833120.4764
        -0.000          -0.000
 97  3 10  1 10 59.9980000  0  7 30 24  4  9  5 10  6               -0.001081439
 -21476217.408 9 -16450818.33347  21642364.103    21642364.1034   21642369.4194
        -0.000          -0.000
 -32683659.440 9 -24849735.75649  20185753.703    20185753.3344   20185759.3504
        -0.000          -0.000
 -23711942.471 9 -17062029.43547  22237697.551    22237697.4134   22237702.7764
        -0.000          -0.000
 -21896701.183 9 -17034947.18347  22628542.649    22628542.1964   22628548.6074
        -0.000          -0.000
 -32325489.672 9 -24221841.06549  20095216.820    20095216.0814   20095221.5564
        -0.000          -0.000
 -17496209.591 9 -13365346.11647  22139438.732    22139437.7164   22139444.7154
        -0.000          -0.000
  -8034129.236 9  -6237010.81246  23816719.876    23816719.3984   23816726.3754
        -0.000          -0.000
 97  3 10  1 11 29.9980000  0  7 30 24  4  9  5 10  6               -0.001092435
 -21575491.122 9 -16528174.44447  21623472.931    21623472.9014   21623478.2624
        -0.000          -0.000
 -32669733.190 9 -24838884.12149  20188403.776    20188403.4094   20188409.4354
        -0.000          -0.000
 -23641107.553 9 -17006833.39447  22251177.011    22251176.8414   22251182.1984
        -0.000          -0.000
 -21831946.556 9 -16984489.03447  22640864.989    22640864.5754   22640871.0024
        -0.000          -0.000
 -32373208.689 9 -24259024.70549  20086136.179    20086135.4584   20086140.9204
        -0.000          -0.000
 -17595573.017 9 -13442772.10647  22120530.472    22120529.4764   22120536.4274
        -0.000          -0.000
  -8120252.021 9  -6304119.45646  23800331.157    23800330.8334   23800337.7184
        -0.000          -0.000
 97  3 10  1 11 59.9980000  0  7 30 24  4  9  5 10  6               -0.001103416
 -21674510.655 9 -16605332.50047  21604630.107    21604630.1464   21604635.4494
        -0.000          -0.000
 -32655396.071 9 -24827712.33249  20191131.999    20191131.6404   20191137.6744
        -0.000          -0.000
 -23570089.078 9 -16951494.31947  22264691.371    22264691.2254   22264696.5434
        -0.000          -0.000
 -21766985.449 9 -16933870.01147  22653226.666    22653226.2584   22653232.7264
        -0.000          -0.000
 -32420483.646 9 -24295862.32449  20077140.056    20077139.3364   20077144.7964
        -0.000          -0.000
 -17694645.459 9 -13519971.36047  22101677.548    22101676.5574   22101683.4774
        -0.000          -0.000
  -8206342.479 9  -6371202.90346  23783948.721    23783948.3764   23783955.1804
        -0.000          -0.000
 97  3 10  1 12 29.9980000  0  7 30 24  4  9  5 10  6               -0.001114385
 -21773246.491 9 -16682269.48947  21585841.290    21585841.3234   21585846.5764
        -0.000          -0.000
 -32640629.269 9 -24816205.72349  20193942.018    20193941.6554   20193947.6944
        -0.000          -0.000
 -23498889.942 9 -16896014.46847  22278240.103    22278240.0054   22278245.2934
        -0.000          -0.000
 -21701828.302 9 -16883098.22047  22665625.711    22665625.2644   22665631.7014
        -0.000          -0.000
 -32467308.301 9 -24332349.05649  20068229.651    20068228.9044   20068234.3714
        -0.000          -0.000
 -17793429.240 9 -13596945.68347  22082879.596    22082878.6314   22082885.4924
        -0.000          -0.000
  -8292390.553 9  -6438253.33246  23767574.300    23767574.0124   23767580.7154
        -0.000          -0.000
 97  3 10  1 12 59.9980000  0  7 30 24  4  9  5 10  6               -0.001125352
 -21871679.497 9 -16758970.51448  21567110.085    21567110.1004   21567115.3314
        -0.000          -0.000
 -32625438.841 9 -24804369.02149  20196832.644    20196832.2744   20196838.3244
        -0.000          -0.000
 -23427527.859 9 -16840407.63947  22291819.856    22291819.7644   22291825.0344
        -0.000          -0.000
 -21636499.117 9 -16832192.37647  22678057.417    22678056.9784   22678063.4334
        -0.000          -0.000
 -32513677.909 9 -24368481.20849  20059405.780    20059405.0434   20059410.4974
        -0.000          -0.000
 -17891919.811 9 -13673691.52347  22064137.452    22064136.3974   22064143.2874
        -0.000          -0.000
  -8378398.279 9  -6505272.28146  23751207.590    23751207.2824   23751213.9464
        -0.000          -0.000
 97  3 10  1 13 29.9980000  0  7 30 24  4  9  5 10  6               -0.001136327
 -21969809.957 9 -16835435.77548  21548436.478    21548436.4784   21548441.6934
        -0.000          -0.000
 -32609833.362 9 -24792208.89749  20199802.222    20199801.8584   20199807.9124
        -0.000          -0.000
 -23356009.773 9 -16784679.25747  22305429.265    22305429.1834   22305434.4834
        -0.000          -0.000
 -21571015.161 9 -16781165.92747  22690518.589    22690518.2114   22690524.5954
        -0.000          -0.000
 -32559591.628 9 -24404258.12049  20050668.672    20050667.9424   20050673.3964
        -0.000          -0.000
 -17990118.148 9 -13750209.65047  22045450.860    22045449.8424   22045456.7234
        -0.000          -0.000
  -8464384.749 9  -6572274.69546  23734844.857    23734844.4994   23734851.1764
        -0.000          -0.000
 97  3 10  1 13 59.9980000  0  7 30 24  4  9  5 10  6               -0.001147312
 -22067633.731 9 -16911662.06348  21529821.159    21529821.1854   21529826.4384
        -0.000          -0.000
 -32593812.260 9 -24779724.91149  20202850.941    20202850.5884   20202856.6394
        -0.000          -0.000
 -23284328.364 9 -16728823.61347  22319069.718    22319069.6204   22319074.9804
        -0.000          -0.000
 -21505363.708 9 -16730008.97147  22703011.699    22703011.3024   22703017.7014
        -0.000          -0.000
 -32605024.185 9 -24439660.10449  20042023.123    20042022.3974   20042027.8434
        -0.000          -0.000
 -18088024.019 9 -13826499.90547  22026820.019    22026818.9614   22026825.8284
        -0.000          -0.000
  -8550341.413 9  -6639253.86646  23718487.808    23718487.3634   23718494.2304
        -0.000          -0.000
 97  3 10  1 14 29.9980000  0  7 30 24  4  9  5 10  6               -0.001158306
 -22165158.583 9 -16987655.43048  21511262.793    21511262.8334   21511268.0874
        -0.000          -0.000
 -32577404.788 9 -24766939.86149  20205973.159    20205972.8064   20205978.8294
        -0.000          -0.000
 -23212485.494 9 -16672842.15847  22332740.916    22332740.8554   22332746.1944
        -0.000          -0.000
 -21439546.747 9 -16678723.04547  22715536.291    22715535.9024   22715542.2794
        -0.000          -0.000
 -32649972.141 9 -24474684.47949  20033469.822    20033469.0884   20033474.5204
        -0.000          -0.000
 -18185641.330 9 -13902565.28447  22008244.010    22008242.9614   22008249.8784
        -0.000          -0.000
  -8636278.579 9  -6706217.85646  23702134.433    23702134.0544   23702140.9174
        -0.000          -0.000
 97  3 10  1 14 59.9980000  0  7 30 24  4  9  5 10  6               -0.001169303
 -22262418.241 9 -17063442.14948  21492754.868    21492754.8864   21492760.1744
        -0.000          -0.000
 -32560648.483 9 -24753882.98649  20209161.780    20209161.4094   20209167.4334
        -0.000          -0.000
 -23140486.087 9 -16616738.72347  22346441.945    22346441.9004   22346447.2704
        -0.000          -0.000
 -21373560.807 9 -16627305.43047  22728093.018    22728092.6194   22728098.9964
        -0.000          -0.000
 -32694446.851 9 -24509340.08649  20025006.531    20025005.8174   20025011.2544
        -0.000          -0.000
 -18282961.060 9 -13978398.80347  21989724.632    21989723.5914   21989730.5074
        -0.000          -0.000
  -8722217.452 9  -6773183.16846  23685780.735    23685780.4564   23685787.1314
        -0.000          -0.000
 97  3 10  1 15 29.9980000  0  7 30 24  4  9  5 10  6               -0.001180303
 -22359434.052 9 -17139038.85048  21474293.423    21474293.4164   21474298.6824
        -0.000          -0.000
 -32543548.596 9 -24740558.38949  20212415.774    20212415.4164   20212421.4194
        -0.000          -0.000
 -23068326.951 9 -16560510.82547  22360173.362    22360173.3144   22360178.6394
        -0.000          -0.000
 -21307390.261 9 -16575743.98347  22740684.918    22740684.5024   22740690.8764
        -0.000          -0.000
 -32738447.876 9 -24543626.59249  20016633.407    20016632.6944   20016638.1344
        -0.000          -0.000
 -18379987.038 9 -14054003.42347  21971261.113    21971260.0934   21971267.0404
        -0.000          -0.000
  -8808167.058 9  -6840156.83646  23669425.180    23669424.8284   23669431.3954
        -0.000          -0.000
 97  3 10  1 15 59.9980000  0  7 30 24  4  9  5 10  6               -0.001191313
 -22456191.887 9 -17214434.54348  21455881.020    21455880.9734   21455886.2124
        -0.000          -0.000
 -32526106.824 9 -24726967.38449  20215734.828    20215734.4584   20215740.4704
        -0.000          -0.000
 -22996026.759 9 -16504173.00647  22373931.653    22373931.6194   22373936.8884
        -0.000          -0.000
 -21241037.594 9 -16524040.61347  22753311.434    22753310.9714   22753317.3554
        -0.000          -0.000
 -32781977.441 9 -24577545.72549  20008350.007    20008349.2884   20008354.7164
        -0.000          -0.000
 -18476729.099 9 -14129386.79747  21952851.668    21952850.6584   21952857.5934
        -0.000          -0.000
  -8894124.855 9  -6907136.88346  23653067.981    23653067.5624   23653074.2764
        -0.000          -0.000
 97  3 10  1 16 29.9980000  0  7 30 24  4  9  5 10  6               -0.001202328
 -22552670.672 9 -17289612.79548  21437521.617    21437521.6334   21437526.8394
        -0.000          -0.000
 -32508300.918 9 -24713092.63749  20219123.154    20219122.7934   20219128.7994
        -0.000          -0.000
 -22923591.032 9 -16447729.58347  22387715.722    22387715.6574   22387720.9124
        -0.000          -0.000
 -21174506.497 9 -16472198.21047  22765971.836    22765971.4164   22765977.7594
        -0.000          -0.000
 -32825046.087 9 -24611105.70549  20000154.314    20000153.6024   20000159.0484
        -0.000          -0.000
 -18573166.984 9 -14204533.15447  21934500.117    21934499.0824   21934506.0404
        -0.000          -0.000
  -8980076.651 9  -6974112.23646  23636711.826    23636711.4264   23636718.1964
        -0.000          -0.000
 97  3 10  1 16 59.9980000  0  7 30 24  4  9  5 10  6               -0.001213350
 -22648881.606 9 -17364582.32548  21419213.346    21419213.3474   21419218.4874
        -0.000          -0.000
 -32490112.545 9 -24698919.86649  20222584.299    20222583.9374   20222589.9484
        -0.000          -0.000
 -22851035.824 9 -16391193.06347  22401522.495    22401522.4494   22401527.7474
        -0.000          -0.000
 -21107813.815 9 -16420229.88647  22778663.032    22778662.6104   22778668.9854
        -0.000          -0.000
 -32867682.834 9 -24644329.14149  19992040.761    19992040.0294   19992045.4864
        -0.000          -0.000
 -18669319.587 9 -14279457.22947  21916202.849    21916201.8394   21916208.7424
        -0.000          -0.000
  -9066015.681 9  -7041077.65246  23620358.055    23620357.6874   23620364.4644
        -0.000          -0.000
 97  3 10  1 17 29.9980000  0  7 30 24  4  9  5 10  6               -0.001224385
 -22744779.790 9 -17439308.15048  21400964.492    21400964.4814   21400969.6444
        -0.000          -0.000
 -32471495.962 9 -24684413.42449  20226126.907    20226126.5444   20226132.5364
        -0.000          -0.000
 -22778357.894 9 -16334560.90447  22415352.653    22415352.5944   22415357.9134
        -0.000          -0.000
 -21040960.212 9 -16368136.16247  22791384.789    22791384.4434   22791390.8114
        -0.000          -0.000
 -32909870.319 9 -24677202.49949  19984012.744    19984012.0264   19984017.4744
        -0.000          -0.000
 -18765176.723 9 -14354151.06647  21897961.837    21897960.8074   21897967.6444
        -0.000          -0.000
  -9151918.867 9  -7108015.15646  23604011.241    23604010.9834   23604017.5644
        -0.000          -0.000
 97  3 10  1 17 59.9980000  0  7 30 24  4  9  5 10  6               -0.001235445
 -22840366.679 9 -17513791.41848  21382774.838    21382774.8434   21382780.0454
        -0.000          -0.000
 -32452451.194 9 -24669573.33149  20229750.955    20229750.5954   20229756.5934
        -0.000          -0.000
 -22705571.036 9 -16277843.87247  22429203.546    22429203.4564   22429208.7874
        -0.000          -0.000
 -20973979.766 9 -16315943.62147  22804130.744    22804130.3894   22804136.7974
        -0.000          -0.000
 -32951617.417 9 -24709732.69749  19976068.516    19976067.7964   19976073.2484
        -0.000          -0.000
 -18860742.775 9 -14428618.05547  21879776.181    21879775.1274   21879781.9354
        -0.000          -0.000
  -9237798.705 9  -7174934.45846  23587668.859    23587668.5874   23587675.0664
        -0.000          -0.000
 97  3 10  1 18 29.9980000  0  7 30 24  4  9  5 10  6               -0.001246517
 -22935648.605 9 -17588037.05448  21364643.322    21364643.2954   21364648.4564
        -0.000          -0.000
 -32432964.314 9 -24654388.73849  20233459.181    20233458.8084   20233464.8154
        -0.000          -0.000
 -22632647.674 9 -16221020.47147  22443080.344    22443080.2694   22443085.6644
        -0.000          -0.000
 -20906857.385 9 -16263640.48747  22816903.749    22816903.3174   22816909.7314
        -0.000          -0.000
 -32992906.036 9 -24741905.63949  19968211.551    19968210.8354   19968216.3044
        -0.000          -0.000
 -18955996.214 9 -14502841.47447  21861650.037    21861648.9954   21861655.7784
        -0.000          -0.000
  -9323648.670 9  -7241830.44346  23571331.971    23571331.6384   23571338.3294
        -0.000          -0.000
 97  3 10  1 18 59.9980000  0  7 30 24  4  9  5 10  6               -0.001257595
 -23030604.850 9 -17662028.90748  21346573.727    21346573.7054   21346578.8844
        -0.000          -0.000
 -32413038.533 9 -24638862.14249  20237250.888    20237250.5334   20237256.5494
        -0.000          -0.000
 -22559562.419 9 -16164070.93047  22456988.011    22456987.9614   22456993.3114
        -0.000          -0.000
 -20839577.849 9 -16211214.88747  22829706.645    22829706.2034   22829712.6074
        -0.000          -0.000
 -33033706.433 9 -24773698.14449  19960447.483    19960446.7704   19960452.2294
        -0.000          -0.000
 -19050914.942 9 -14576804.07047  21843587.528    21843586.5204   21843593.2584
        -0.000          -0.000
  -9409481.775 9  -7308713.31046  23554998.279    23554998.0444   23555004.9054
        -0.000          -0.000
 97  3 10  1 19 29.9980000  0  7 30 24  4  9  5 10  6               -0.001268679
 -23125238.679 9 -17735769.52848  21328565.441    21328565.4524   21328570.6624
        -0.000          -0.000
 -32392713.346 9 -24623024.32649  20241118.604    20241118.2464   20241124.2734
        -0.000          -0.000
 -22486317.712 9 -16106997.12647  22470926.034    22470925.9624   22470931.3484
        -0.000          -0.000
 -20772158.795 9 -16158680.56647  22842536.051    22842535.6524   22842542.0254
        -0.000          -0.000
 -33074009.818 9 -24805103.37349  19952778.000    19952777.3104   19952782.7694
        -0.000          -0.000
 -19145489.952 9 -14650498.84447  21825590.495    21825589.4794   21825596.2184
        -0.000          -0.000
  -9495316.410 9  -7375597.38546  23538664.508    23538664.2824   23538671.1004
        -0.000          -0.000
 97  3 10  1 19 59.9980000  0  7 30 24  4  9  5 10  6               -0.001279760
 -23219573.795 9 -17809277.38748  21310614.016    21310614.0394   21310619.2104
        -0.000          -0.000
 -32372029.034 9 -24606906.67049  20245054.700    20245054.3514   20245060.3984
        -0.000          -0.000
 -22412911.229 9 -16049797.26347  22484894.858    22484894.7614   22484900.1534
        -0.000          -0.000
 -20704602.543 9 -16106039.34447  22855391.615    22855391.1824   22855397.5654
        -0.000          -0.000
 -33113815.887 9 -24836121.08049  19945203.164    19945202.4744   19945207.9244
        -0.000          -0.000
 -19239717.576 9 -14723922.91147  21807659.481    21807658.4924   21807665.2154
        -0.000          -0.000
  -9581153.580 9  -7442483.44046  23522330.161    23522329.9414   23522336.7074
        -0.000          -0.000
 97  3 10  1 20 29.9980000  0  7 30 24  4  9  5 10  6               -0.001290822
 -23313600.997 9 -17882545.31548  21292721.282    21292721.2864   21292726.4094
        -0.000          -0.000
 -32351009.351 9 -24590527.68549  20249054.573    20249054.2214   20249060.2784
        -0.000          -0.000
 -22339342.725 9 -15992471.15647  22498894.524    22498894.3904   22498899.7754
        -0.000          -0.000
 -20636895.593 9 -16053280.68647  22868275.845    22868275.4024   22868281.7764
        -0.000          -0.000
 -33153132.967 9 -24866757.75849  19937721.383    19937720.6834   19937726.1474
        -0.000          -0.000
 -19333588.712 9 -14797069.21247  21789796.343    21789795.3784   21789802.0894
        -0.000          -0.000
  -9666989.604 9  -7509368.57946  23505995.934    23505995.7284   23506002.5564
        -0.000          -0.000
 97  3 10  1 20 59.9980000  0  7 30 24  4  9  5 10  6               -0.001301866
 -23407311.970 9 -17955566.82948  21274888.614    21274888.6514   21274893.8054
        -0.000          -0.000
 -32329659.462 9 -24573891.39849  20253117.315    20253116.9794   20253123.0384
        -0.000          -0.000
 -22265624.977 9 -15935028.75447  22512922.541    22512922.4084   22512927.7804
        -0.000          -0.000
 -20569052.337 9 -16000415.82447  22881185.981    22881185.5754   22881191.9434
        -0.000          -0.000
 -33191973.036 9 -24897022.73649  19930330.313    19930329.6304   19930335.0884
        -0.000          -0.000
 -19427101.748 9 -14869936.47447  21772001.416    21772000.4184   21772007.1414
        -0.000          -0.000
  -9752822.372 9  -7576251.18846  23489662.574    23489662.3554   23489669.1534
        -0.000          -0.000
 97  3 10  1 21 29.9980000  0  7 30 24  4  9  5 10  6               -0.001312908
 -23500744.591 9 -18028371.44648  21257108.960    21257109.0104   21257114.1734
        -0.000          -0.000
 -32308003.605 9 -24557016.69249  20257238.274    20257237.9264   20257243.9964
        -0.000          -0.000
 -22191797.633 9 -15877500.96447  22526971.394    22526971.3024   22526976.6864
        -0.000          -0.000
 -20501100.968 9 -15947466.70747  22894116.631    22894116.2634   22894122.6904
        -0.000          -0.000
 -33230358.180 9 -24926933.23149  19923025.888    19923025.2074   19923030.6564
        -0.000          -0.000
 -19520286.545 9 -14942547.96147  21754268.911    21754267.8844   21754274.6314
        -0.000          -0.000
  -9838649.475 9  -7643129.38446  23473330.346    23473330.0024   23473336.7574
        -0.000          -0.000
 97  3 10  1 21 59.9980000  0  7 30 24  4  9  5 10  6               -0.001323953
 -23593882.376 9 -18100946.32348  21239385.453    21239385.4504   21239390.6284
        -0.000          -0.000
 -32286014.864 9 -24539882.59849  20261422.593    20261422.2394   20261428.2934
        -0.000          -0.000
 -22117864.805 9 -15819890.97047  22541040.308    22541040.2624   22541045.6234
        -0.000          -0.000
 -20433016.872 9 -15894414.17447  22907072.581    22907072.2144   22907078.6544
        -0.000          -0.000
 -33268274.428 9 -24956478.35149  19915810.644    19915809.9524   19915815.4034
        -0.000          -0.000
 -19613139.124 9 -15014900.56247  21736599.637    21736598.5864   21736605.3574
        -0.000          -0.000
  -9924465.524 9  -7709998.97346  23456999.839    23456999.5374   23457006.3684
        -0.000          -0.000
 97  3 10  1 22 29.9980000  0  7 30 24  4  9  5 10  6               -0.001335011
 -23686702.992 9 -18173274.05448  21221722.214    21221722.2374   21221727.3744
        -0.000          -0.000
 -32263649.580 9 -24522455.09149  20265678.560    20265678.2034   20265684.2404
        -0.000          -0.000
 -22043828.904 9 -15762200.65547  22555128.833    22555128.8204   22555134.2144
        -0.000          -0.000
 -20364792.885 9 -15841252.63647  22920055.202    22920054.7864   22920061.2764
        -0.000          -0.000
 -33305709.597 9 -24985648.60249  19908686.970    19908686.2834   19908691.7194
        -0.000          -0.000
 -19705654.831 9 -15086990.69547  21718994.426    21718993.4234   21719000.1144
        -0.000          -0.000
 -10010266.781 9  -7776857.04146  23440672.332    23440672.0504   23440678.8184
        -0.000          -0.000
 97  3 10  1 22 59.9980000  0  7 30 24  4  9  5 10  6               -0.001346084
 -23779187.838 9 -18245340.14648  21204122.889    21204122.9114   21204128.1004
        -0.000          -0.000
 -32240876.512 9 -24504709.83349  20270012.154    20270011.8134   20270017.8194
        -0.000          -0.000
 -21969684.554 9 -15704425.84147  22569238.012    22569238.0324   22569243.4094
        -0.000          -0.000
 -20296415.398 9 -15787971.49247  22933067.009    22933066.5994   22933073.1014
        -0.000          -0.000
 -33342628.730 9 -25014416.74949  19901661.487    19901660.7874   19901666.2174
        -0.000          -0.000
 -19797823.082 9 -15158810.06147  21701455.365    21701454.3664   21701461.0524
        -0.000          -0.000
 -10096027.605 9  -7843683.60546  23424352.494    23424352.1884   23424359.0764
        -0.000          -0.000
 97  3 10  1 23 29.9980000  0  7 30 24  4  9  5 10  6               -0.001357182
 -23871346.833 9 -18317152.32948  21186585.594    21186585.6424   21186590.7824
        -0.000          -0.000
 -32217714.823 9 -24486661.75549  20274419.677    20274419.3224   20274425.3314
        -0.000          -0.000
 -21895448.403 9 -15646579.48747  22583364.726    22583364.7324   22583370.1314
        -0.000          -0.000
 -20227893.039 9 -15734577.46347  22946106.364    22946105.9714   22946112.4594
        -0.000          -0.000
 -33379031.847 9 -25042782.80549  19894734.170    19894733.4734   19894738.8944
        -0.000          -0.000
 -19889653.327 9 -15230366.05747  21683980.638    21683979.6144   21683986.3204
        -0.000          -0.000
 -10181766.561 9  -7910493.12446  23408036.892    23408036.5734   23408043.5194
        -0.000          -0.000
 97  3 10  1 23 59.9980000  0  7 30 24  4  9  5 10  6               -0.001368291
 -23963148.683 9 -18388686.21648  21169116.302    21169116.2964   21169121.4114
        -0.000          -0.000
 -32194157.731 9 -24468305.57449  20278902.465    20278902.1184   20278908.1264
        -0.000          -0.000
 -21821102.614 9 -15588647.70547  22597512.240    22597512.2284   22597517.6714
        -0.000          -0.000
 -20159219.284 9 -15681065.46447  22959174.611    22959174.2244   22959180.6144
        -0.000          -0.000
 -33414928.322 9 -25070754.07849  19887903.307    19887902.6114   19887908.0194
        -0.000          -0.000
 -19981133.698 9 -15301649.40747  21666572.394    21666571.3944   21666578.1054
        -0.000          -0.000
 -10267482.939 9  -7977285.05546  23391725.510    23391725.2664   23391732.1054
        -0.000          -0.000
 97  3 10  1 24 29.9980000  0  7 30 24  4  9  5 10  6               -0.001379393
 -24054587.880 9 -18459937.51248  21151715.968    21151715.9924   21151721.1124
        -0.000          -0.000
 -32170211.916 9 -24449646.49049  20283459.172    20283458.8344   20283464.8464
        -0.000          -0.000
 -21746638.249 9 -15530623.52247  22611682.360    22611682.3284   22611687.8244
        -0.000          -0.000
 -20090408.330 9 -15627446.55346  22972268.948    22972268.5504   22972274.9594
        -0.000          -0.000
 -33450336.683 9 -25098345.00149  19881165.325    19881164.6164   19881170.0434
        -0.000          -0.000
 -20072256.130 9 -15372653.86047  21649232.351    21649231.3594   21649238.0934
        -0.000          -0.000
 -10353158.694 9  -8044045.35046  23375421.962    23375421.6424   23375428.4064
        -0.000          -0.000
 97  3 10  1 24 59.9980000  0  7 30 24  4  9  5 10  6               -0.001390478
 -24145663.034 9 -18530905.13848  21134384.895    21134384.9304   21134390.0404
        -0.000          -0.000
 -32145903.479 9 -24430704.84549  20288084.888    20288084.5614   20288090.5684
        -0.000          -0.000
 -21672056.858 9 -15472508.14047  22625874.743    22625874.6924   22625880.1854
        -0.000          -0.000
 -20021465.119 9 -15573724.58446  22985388.351    22985387.9474   22985394.4144
        -0.000          -0.000
 -33485266.043 9 -25125562.67949  19874518.452    19874517.7584   19874523.2004
        -0.000          -0.000
 -20163015.269 9 -15443375.22347  21631961.407    21631960.4354   21631967.1474
        -0.000          -0.000
 -10438791.647 9  -8110772.26846  23359126.660    23359126.1734   23359132.9774
        -0.000          -0.000
 97  3 10  1 25 29.9980000  0  7 30 24  4  9  5 10  6               -0.001401555
 -24236390.692 9 -18601601.98448  21117120.028    21117120.0424   21117125.1314
        -0.000          -0.000
 -32121252.034 9 -24411495.92449  20292775.873    20292775.5544   20292781.5424
        -0.000          -0.000
 -21597368.976 9 -15414309.79347  22640087.382    22640087.3344   22640092.8364
        -0.000          -0.000
 -19952413.067 9 -15519917.80546  22998528.545    22998528.1604   22998534.6084
        -0.000          -0.000
 -33519737.508 9 -25152423.55249  19867958.751    19867958.0494   19867963.5134
        -0.000          -0.000
 -20253425.847 9 -15513824.98647  21614756.878    21614755.8764   21614762.5464
        -0.000          -0.000
 -10524404.745 9  -8177483.72146  23342835.023    23342834.5034   23342841.2484
        -0.000          -0.000
 97  3 10  1 25 59.9980000  0  7 30 24  4  9  5 10  6               -0.001412628
 -24326778.062 9 -18672033.67648  21099919.867    21099919.8604   21099924.9494
        -0.000          -0.000
 -32096257.215 9 -24392019.43649  20297532.246    20297531.9314   20297537.9344
        -0.000          -0.000
 -21522583.102 9 -15356035.08647  22654318.622    22654318.5624   22654324.0624
        -0.000          -0.000
 -19883262.745 9 -15466034.44546  23011687.456    23011687.0604   23011693.5304
        -0.000          -0.000
 -33553753.903 9 -25178929.83049  19861485.636    19861484.9404   19861490.4114
        -0.000          -0.000
 -20343493.639 9 -15584007.64247  21597617.522    21597616.5014   21597623.1364
        -0.000          -0.000
 -10609998.693 9  -8244180.23246  23326546.890    23326546.4994   23326553.1774
        -0.000          -0.000
 97  3 10  1 26 29.9980000  0  7 30 24  4  9  5 10  6               -0.001423711
 -24416834.768 9 -18742207.70548  21082782.593    21082782.5934   21082787.7124
        -0.000          -0.000
 -32070912.314 9 -24372270.15949  20302355.197    20302354.8724   20302360.8714
        -0.000          -0.000
 -21447700.674 9 -15297685.14047  22668568.270    22668568.1574   22668573.7294
        -0.000          -0.000
 -19814002.931 9 -15412065.77046  23024867.041    23024866.6764   23024873.1734
        -0.000          -0.000
 -33587271.535 9 -25205047.46049  19855107.445    19855106.7364   19855112.1994
        -0.000          -0.000
 -20433206.238 9 -15653913.53747  21580545.742    21580544.7004   21580551.3164
        -0.000          -0.000
 -10695579.612 9  -8310866.60946  23310261.294    23310261.0014   23310267.6604
        -0.000          -0.000
 97  3 10  1 26 59.9980000  0  7 30 24  4  9  5 10  6               -0.001434803
 -24506548.111 9 -18812114.17948  21065710.642    21065710.7024   21065715.8044
        -0.000          -0.000
 -32045204.492 9 -24352238.08449  20307247.235    20307246.9254   20307252.9034
        -0.000          -0.000
 -21372701.508 9 -15239244.23247  22682840.111    22682840.0074   22682845.5764
        -0.000          -0.000
 -19744618.628 9 -15358000.09646  23038070.438    23038070.0664   23038076.5934
        -0.000          -0.000
 -33620244.071 9 -25230740.33849  19848832.968    19848832.2794   19848837.7374
        -0.000          -0.000
 -20522539.230 9 -15723523.61747  21563546.190    21563545.1594   21563551.7684
        -0.000          -0.000
 -10781145.008 9  -8377540.88746  23293978.836    23293978.4344   23293985.0784
        -0.000          -0.000
 97  3 10  1 27 29.9980000  0  7 30 24  4  9  5 10  6               -0.001445918
 -24595941.084 9 -18881771.02048  21048699.739    21048699.7884   21048704.8504
        -0.000          -0.000
 -32019160.475 9 -24331944.03849  20312203.258    20312202.9354   20312208.9034
        -0.000          -0.000
 -21297604.381 9 -15180726.98547  22697130.565    22697130.4834   22697136.0144
        -0.000          -0.000
 -19675139.649 9 -15303860.63246  23051291.896    23051291.5234   23051297.9894
        -0.000          -0.000
 -33652683.845 9 -25256018.08449  19842659.874    19842659.1734   19842664.6314
        -0.000          -0.000
 -20611505.955 9 -15792848.30247  21546616.311    21546615.3194   21546621.9204
        -0.000          -0.000
 -10866722.692 9  -8444224.75346  23277693.895    23277693.5884   23277700.0544
        -0.000          -0.000
 97  3 10  1 27 59.9980000  0  7 30 24  4  9  5 10  6               -0.001457051
 -24685004.400 9 -18951170.97948  21031751.527    21031751.5514   21031756.6194
        -0.000          -0.000
 -31992781.799 9 -24311389.21849  20317222.932    20317222.6104   20317228.5704
        -0.000          -0.000
 -21222411.569 9 -15122135.18147  22711439.276    22711439.2284   22711444.6914
        -0.000          -0.000
 -19605562.335 9 -15249644.55346  23064532.092    23064531.6974   23064538.0804
        -0.000          -0.000
 -33684586.668 9 -25280877.42249  19836588.954    19836588.2664   19836593.7124
        -0.000          -0.000
 -20700082.080 9 -15861868.63247  21529760.820    21529759.8274   21529766.4114
        -0.000          -0.000
 -10952303.289 9  -8510910.85746  23261408.311    23261408.0324   23261414.5204
        -0.000          -0.000
 97  3 10  1 28 29.9980000  0  7 30 24  4  9  5 10  6               -0.001468193
 -24773736.478 9 -19020312.83248  21014866.306    21014866.3514   21014871.4384
        -0.000          -0.000
 -31966067.358 9 -24290572.76249  20322306.531    20322306.2104   20322312.1784
        -0.000          -0.000
 -21147117.494 9 -15063464.47247  22725767.254    22725767.2584   22725772.6614
        -0.000          -0.000
 -19535894.084 9 -15195357.60546  23077789.542    23077789.1194   23077795.4804
        -0.000          -0.000
 -33715966.175 9 -25305328.98149  19830617.658    19830616.9604   19830622.4124
        -0.000          -0.000
 -20788263.109 9 -15930581.07247  21512980.531    21512979.5044   21512986.0924
        -0.000          -0.000
 -11037883.423 9  -8577596.61746  23245122.922    23245122.6964   23245129.1044
        -0.000          -0.000
 97  3 10  1 28 59.9980000  0  7 30 24  4  9  5 10  6               -0.001479330
 -24862122.536 9 -19089185.06748  20998047.006    20998047.0354   20998052.1034
        -0.000          -0.000
 -31939015.556 9 -24269493.42649  20327454.302    20327453.9764   20327459.9344
        -0.000          -0.000
 -21071719.310 9 -15004712.62046  22740115.083    22740115.0564   22740120.4784
        -0.000          -0.000
 -19466135.220 9 -15141000.05746  23091064.165    23091063.7894   23091070.1284
        -0.000          -0.000
 -33746844.942 9 -25329390.35249  19824741.601    19824740.9274   19824746.3474
        -0.000          -0.000
 -20876052.869 9 -15998988.65248  21496274.644    21496273.6204   21496280.2004
        -0.000          -0.000
 -11123447.521 9  -8644269.89246  23228840.594    23228840.3084   23228846.8214
        -0.000          -0.000
 97  3 10  1 29 29.9980000  0  7 30 24  4  9  5 10  6               -0.001490456
 -24950148.797 9 -19157776.93148  20981296.135    20981296.1614   20981301.2404
        -0.000          -0.000
 -31911626.435 9 -24248151.24649  20332666.289    20332665.9684   20332671.9214
        -0.000          -0.000
 -20996222.144 9 -14945883.66146  22754481.685    22754481.6904   22754487.0654
        -0.000          -0.000
 -19396277.394 9 -15086565.37646  23104357.666    23104357.2474   23104363.6064
        -0.000          -0.000
 -33777229.772 9 -25353066.83649  19818959.560    19818958.8704   19818964.3034
        -0.000          -0.000
 -20963449.097 9 -16067089.56248  21479643.614    21479642.6334   21479649.1944
        -0.000          -0.000
 -11208986.323 9  -8710923.44346  23212562.978    23212562.6474   23212569.2254
        -0.000          -0.000
 97  3 10  1 29 59.9980000  0  7 30 24  4  9  5 10  6               -0.001501561
 -25037800.140 9 -19226076.65948  20964616.636    20964616.6484   20964621.7294
        -0.000          -0.000
 -31883882.607 9 -24226532.67149  20337945.798    20337945.4634   20337951.4114
        -0.000          -0.000
 -20920619.100 9 -14886972.18746  22768868.479    22768868.4514   22768873.7984
        -0.000          -0.000
 -19326305.726 9 -15032042.01146  23117672.852    23117672.4684   23117678.8154
        -0.000          -0.000
 -33807113.374 9 -25376352.75849  19813272.874    19813272.1974   19813277.6164
        -0.000          -0.000
 -21050446.960 9 -16134880.06748  21463088.449    21463087.4744   21463094.0424
        -0.000          -0.000
 -11294477.114 9  -8777539.58046  23196294.523    23196294.2304   23196300.7844
        -0.000          -0.000
 97  3 10  1 30 29.9980000  0  7 30 24  4  9  5 10  6               -0.001512644
 -25125071.363 9 -19294080.18648  20948009.447    20948009.4954   20948014.5604
        -0.000          -0.000
 -31855776.906 9 -24204632.11449  20343294.094    20343293.7814   20343299.7454
        -0.000          -0.000
 -20844899.150 9 -14827969.61346  22783277.453    22783277.4654   22783282.8084
        -0.000          -0.000
 -19256231.712 9 -14977438.88646  23131007.486    23131007.1364   23131013.5024
        -0.000          -0.000
 -33836491.575 9 -25399244.85649  19807682.388    19807681.7074   19807687.1404
        -0.000          -0.000
 -21137049.271 9 -16202362.34948  21446608.552    21446607.5734   21446614.1614
        -0.000          -0.000
 -11379921.758 9  -8844119.77346  23180035.105    23180034.6964   23180041.1354
        -0.000          -0.000
 97  3 10  1 30 59.9980000  0  7 30 24  4  9  5 10  6               -0.001523719
 -25211953.908 9 -19361780.85448  20931476.233    20931476.2614   20931481.3424
        -0.000          -0.000
 -31827327.951 9 -24182464.08949  20348707.701    20348707.3934   20348713.3974
        -0.000          -0.000
 -20769078.655 9 -14768888.70146  22797705.541    22797705.6274   22797710.9074
        -0.000          -0.000
 -19186068.815 9 -14922766.49446  23144358.981    23144358.6444   23144365.0984
        -0.000          -0.000
 -33865354.537 9 -25421735.47549  19802189.948    19802189.2704   19802194.7124
        -0.000          -0.000
 -21223250.190 9 -16269531.85048  21430205.020    21430204.0584   21430210.6384
        -0.000          -0.000
 -11465326.586 9  -8910668.93646  23163783.012    23163782.6274   23163789.1394
        -0.000          -0.000
 97  3 10  1 31 29.9980000  0  7 30 24  4  9  5 10  6               -0.001534793
 -25298459.157 9 -19429187.51948  20915014.783    20915014.8274   20915019.9174
        -0.000          -0.000
 -31798544.523 9 -24160035.43349  20354184.986    20354184.6814   20354190.6804
        -0.000          -0.000
 -20693170.970 9 -14709739.85546  22812150.278    22812150.3874   22812155.6374
        -0.000          -0.000
 -19115843.012 9 -14868045.09646  23157722.438    23157722.1034   23157728.5974
        -0.000          -0.000
 -33893708.116 9 -25443829.17249  19796794.411    19796793.7354   19796799.1744
        -0.000          -0.000
 -21309030.529 9 -16336373.64048  21413881.578    21413880.5894   21413887.1674
        -0.000          -0.000
 -11550695.498 9  -8977190.11246  23147537.683    23147537.3634   23147543.8874
        -0.000          -0.000
 97  3 10  1 31 59.9980000  0  7 30 24  4  9  5 10  6               -0.001545870
 -25384599.860 9 -19496310.12848  20898622.689    20898622.7654   20898627.8344
        -0.000          -0.000
 -31769420.267 9 -24137341.19649  20359727.096    20359726.7954   20359732.8284
        -0.000          -0.000
 -20617178.965 9 -14650525.29446  22826611.024    22826611.1164   22826616.4684
        -0.000          -0.000
 -19045576.226 9 -14813291.75046  23171093.748    23171093.4164   23171099.9214
        -0.000          -0.000
 -33921558.024 9 -25465530.39449  19791494.745    19791494.0844   19791499.5364
        -0.000          -0.000
 -21394385.239 9 -16402883.76048  21397639.060    21397638.0634   21397644.6374
        -0.000          -0.000
 -11636033.931 9  -9043687.54746  23131298.343    23131298.0364   23131304.4624
        -0.000          -0.000
 97  3 10  1 32 29.9980000  0  7 30 24  4  9  5 10  6               -0.001556964
 -25470389.485 9 -19563159.17048  20882297.474    20882297.5464   20882302.6204
        -0.000          -0.000
 -31739973.508 9 -24114395.66649  20365330.622    20365330.3054   20365336.3454
        -0.000          -0.000
 -20541112.801 9 -14591252.95346  22841085.990    22841085.9954   22841091.3324
        -0.000          -0.000
 -18975275.127 9 -14758511.68946  23184471.586    23184471.3044   23184477.7724
        -0.000          -0.000
 -33948910.843 9 -25486844.27749  19786289.663    19786288.9874   19786294.4314
        -0.000          -0.000
 -21479325.786 9 -16469071.16548  21381475.388    21381474.3834   21381480.9454
        -0.000          -0.000
 -11721375.125 9  -9110187.11646  23115058.436    23115058.0194   23115064.5834
        -0.000          -0.000
 97  3 10  1 32 59.9980000  0  7 30 24  4  9  5 10  6               -0.001568069
 -25555825.912 9 -19629732.99048  20866039.493    20866039.5224   20866044.5734
        -0.000          -0.000
 -31710222.932 9 -24091213.38949  20370991.912    20370991.5964   20370997.6544
        -0.000          -0.000
 -20464982.148 9 -14531930.35746  22855573.209    22855573.1864   22855578.5684
        -0.000          -0.000
 -18904921.823 9 -14703690.94546  23197859.406    23197859.0874   23197865.5394
        -0.000          -0.000
 -33975774.184 9 -25507776.74649  19781177.769    19781177.1064   19781182.5344
        -0.000          -0.000
 -21563864.744 9 -16534945.64248  21365388.095    21365387.1204   21365393.6654
        -0.000          -0.000
 -11806726.419 9  -9176694.54646  23098816.442    23098816.1134   23098822.7404
        -0.000          -0.000
 97  3 10  1 33 29.9980000  0  7 30 24  4  9  5 10  6               -0.001579180
 -25640902.580 9 -19696026.47748  20849849.919    20849849.9494   20849855.0094
        -0.000          -0.000
 -31680156.016 9 -24067784.61549  20376713.453    20376713.1454   20376719.2134
        -0.000          -0.000
 -20388779.947 9 -14472552.01546  22870074.028    22870073.9774   22870079.3774
        -0.000          -0.000
 -18834498.462 9 -14648815.60146  23211260.645    23211260.2684   23211266.6754
        -0.000          -0.000
 -34002140.262 9 -25528321.73849  19776160.472    19776159.8094   19776165.2224
        -0.000          -0.000
 -21648014.404 9 -16600516.76448  21349374.899    21349373.9264   21349380.4574
        -0.000          -0.000
 -11892084.780 9  -9243207.52846  23082573.269    23082573.0174   23082579.5264
        -0.000          -0.000
 97  3 10  1 33 59.9980000  0  7 30 24  4  9  5 10  6               -0.001590289
 -25725579.959 9 -19762008.82748  20833736.291    20833736.3744   20833741.4334
        -0.000          -0.000
 -31649753.276 9 -24044094.15749  20382498.877    20382498.5904   20382504.6504
        -0.000          -0.000
 -20312486.999 9 -14413102.95246  22884592.092    22884592.0364   22884597.4944
        -0.000          -0.000
 -18763970.367 9 -14593858.65246  23224681.740    23224681.2984   23224687.7494
        -0.000          -0.000
 -34027984.936 9 -25548460.43849  19771242.380    19771241.7144   19771247.1484
        -0.000          -0.000
 -21731777.122 9 -16665786.37548  21333435.359    21333434.4014   21333440.9164
        -0.000          -0.000
 -11977444.678 9  -9309721.69346  23066329.891    23066329.5934   23066335.9784
        -0.000          -0.000
 97  3 10  1 34 29.9980000  0  7 30 24  4  9  5 10  6               -0.001601383
 -25809819.450 9 -19827649.96848  20817706.026    20817706.1024   20817711.1594
        -0.000          -0.000
 -31619011.122 9 -24020139.22249  20388348.928    20388348.6404   20388354.7044
        -0.000          -0.000
 -20236096.258 9 -14353577.70346  22899128.703    22899128.6144   22899134.1244
        -0.000          -0.000
 -18693310.635 9 -14538799.12246  23238127.811    23238127.4094   23238133.8484
        -0.000          -0.000
 -34053288.377 9 -25568177.40049  19766427.290    19766426.6184   19766432.0564
        -0.000          -0.000
 -21815151.293 9 -16730753.22548  21317569.716    21317568.7644   21317575.2844
        -0.000          -0.000
 -12062785.160 9  -9376220.71746  23050090.050    23050089.7254   23050096.1934
        -0.000          -0.000
 97  3 10  1 34 59.9980000  0  7 30 24  4  9  5 10  6               -0.001612473
 -25893617.422 9 -19892947.06548  20801759.805    20801759.8614   20801764.8864
        -0.000          -0.000
 -31587936.696 9 -23995925.36949  20394262.165    20394261.8664   20394267.9404
        -0.000          -0.000
 -20159626.026 9 -14293990.50146  22913680.409    22913680.4184   22913685.9284
        -0.000          -0.000
 -18622556.708 9 -14483666.19646  23251591.742    23251591.3484   23251597.9024
        -0.000          -0.000
 -34078064.864 9 -25587483.74849  19761712.444    19761711.8024   19761717.2214
        -0.000          -0.000
 -21898138.408 9 -16795418.47748  21301777.761    21301776.8074   21301783.3314
        -0.000          -0.000
 -12148093.107 9  -9442694.37446  23033856.381    23033856.1034   23033862.6574
        -0.000          -0.000
 97  3 10  1 35 29.9980000  0  7 30 24  4  9  5 10  6               -0.001623563
 -25976980.537 9 -19957905.31248  20785896.323    20785896.3734   20785901.4114
        -0.000          -0.000
 -31556522.640 9 -23971446.87349  20400240.012    20400239.7484   20400245.8204
        -0.000          -0.000
 -20083081.881 9 -14234345.69546  22928246.274    22928246.2364   22928251.7934
        -0.000          -0.000
 -18551731.935 9 -14428478.06746  23265069.219    23265068.8884   23265075.3934
        -0.000          -0.000
 -34102305.414 9 -25606372.48449  19757099.617    19757098.9854   19757104.3954
        -0.000          -0.000
 -21980714.731 9 -16859763.62048  21286063.972    21286063.0054   21286069.5224
        -0.000          -0.000
 -12233360.687 9  -9509136.59846  23017630.478    23017630.2364   23017636.6014
        -0.000          -0.000
 97  3 10  1 35 59.9980000  0  7 30 24  4  9  5 10  6               -0.001634647
 -26059909.514 9 -20022525.27548  20770115.442    20770115.4884   20770120.5264
        -0.000          -0.000
 -31524768.133 9 -23946703.09149  20406282.693    20406282.4154   20406288.4814
        -0.000          -0.000
 -20006452.826 9 -14174634.73546  22942828.252    22942828.2214   22942833.7814
        -0.000          -0.000
 -18480841.012 9 -14373238.38846  23278559.283    23278559.0394   23278565.5264
        -0.000          -0.000
 -34125996.384 9 -25624832.97549  19752591.403    19752590.7364   19752596.1464
        -0.000          -0.000
 -22062847.498 9 -16923763.14448  21270434.597    21270433.6354   21270440.1484
        -0.000          -0.000
 -12318574.322 9  -9575536.78746  23001414.847    23001414.5724   23001420.8574
        -0.000          -0.000
 97  3 10  1 36 29.9980000  0  7 30 24  4  9  5 10  6               -0.001645732
 -26142426.882 9 -20086824.49948  20754412.909    20754412.9494   20754417.9734
        -0.000          -0.000
 -31492681.897 9 -23921700.82249  20412388.519    20412388.2484   20412394.2984
        -0.000          -0.000
 -19929751.683 9 -14114867.60046  22957423.965    22957423.9064   22957429.5014
        -0.000          -0.000
 -18409907.710 9 -14317965.68946  23292057.494    23292057.1754   23292063.6734
        -0.000          -0.000
 -34149138.720 9 -25642865.95949  19748187.502    19748186.8654   19748192.2924
        -0.000          -0.000
 -22144525.611 9 -16987408.38648  21254891.731    21254890.7754   21254897.2624
        -0.000          -0.000
 -12403731.781 9  -9641893.20446  22985209.837    22985209.5814   22985215.9154
        -0.000          -0.000
 97  3 10  1 36 59.9980000  0  7 30 24  4  9  5 10  6               -0.001656828
 -26224572.329 9 -20150833.92248  20738781.072    20738781.1614   20738786.1734
        -0.000          -0.000
 -31460282.339 9 -23896454.40349  20418553.935    20418553.6394   20418559.6964
        -0.000          -0.000
 -19852991.541 9 -14055054.49546  22972030.936    22972030.8844   22972036.5214
        -0.000          -0.000
 -18338953.685 9 -14262676.85446  23305559.618    23305559.2874   23305565.7984
        -0.000          -0.000
 -34171741.366 9 -25660478.40749  19743886.324    19743885.6924   19743891.1524
        -0.000          -0.000
 -22225746.584 9 -17050697.43148  21239435.849    21239434.9454   21239441.3824
        -0.000          -0.000
 -12488856.920 9  -9708224.40846  22969010.909    22969010.7654   22969017.1884
        -0.000          -0.000
 97  3 10  1 37 29.9980000  0  7 30 24  4  9  5 10  6               -0.001667944
 -26306364.474 9 -20214568.03648  20723216.502    20723216.5864   20723221.6364
        -0.000          -0.000
 -31427588.566 9 -23870978.72549  20424775.350    20424775.0824   20424781.1294
        -0.000          -0.000
 -19776193.554 9 -13995211.89446  22986645.160    22986645.1064   22986650.7164
        -0.000          -0.000
 -18267974.209 9 -14207368.17746  23319066.526    23319066.1264   23319072.8394
        -0.000          -0.000
 -34193804.807 9 -25677670.69749  19739687.803    19739687.1794   19739692.6284
        -0.000          -0.000
 -22306520.735 9 -17113638.29148  21224064.970    21224064.0764   21224070.5174
        -0.000          -0.000
 -12573973.001 9  -9774548.58046  22952813.951    22952813.7184   22952820.0134
        -0.000          -0.000
 97  3 10  1 37 59.9980000  0  7 30 24  4  9  5 10  6               -0.001679068
 -26387784.135 9 -20278011.90948  20707722.823    20707722.9224   20707727.9494
        -0.000          -0.000
 -31394586.740 9 -23845263.00349  20431055.351    20431055.1054   20431061.1384
        -0.000          -0.000
 -19699343.365 9 -13935328.61246  23001269.224    23001269.2334   23001274.7674
        -0.000          -0.000
 -18196956.229 9 -14152029.49746  23332580.802    23332580.4004   23332587.1604
        -0.000          -0.000
 -34215329.417 9 -25694443.11749  19735591.814    19735591.1854   19735596.6264
        -0.000          -0.000
 -22386844.395 9 -17176228.12648  21208779.941    21208779.0084   21208785.4274
        -0.000          -0.000
 -12659067.732 9  -9840856.10946  22936620.867    22936620.6094   22936626.9404
        -0.000          -0.000
 97  3 10  1 38 29.9980000  0  7 30 24  4  9  5 10  6               -0.001690185
 -26468801.834 9 -20341142.56548  20692305.670    20692305.7654   20692310.7614
        -0.000          -0.000
 -31361257.573 9 -23819292.21149  20437397.658    20437397.4044   20437403.4184
        -0.000          -0.000
 -19622420.759 9 -13875388.90946  23015907.084    23015907.0694   23015912.6314
        -0.000          -0.000
 -18125886.094 9 -14096650.18246  23346104.938    23346104.5784   23346111.2604
        -0.000          -0.000
 -34236315.850 9 -25710796.17949  19731598.204    19731597.5894   19731603.0274
        -0.000          -0.000
 -22466711.724 9 -17238462.37148  21193581.656    21193580.7294   21193587.1394
        -0.000          -0.000
 -12744130.356 9  -9907138.60446  22920433.906    22920433.6744   22920440.1224
        -0.000          -0.000
 97  3 10  1 38 59.9980000  0  7 30 24  4  9  5 10  6               -0.001701297
 -26549429.619 9 -20403969.38948  20676962.689    20676962.7674   20676967.7674
        -0.000          -0.000
 -31327631.448 9 -23793090.02449  20443796.494    20443796.2344   20443802.2494
        -0.000          -0.000
 -19545434.615 9 -13815399.70446  23030557.089    23030557.0874   23030562.5704
        -0.000          -0.000
 -18054772.849 9 -14041237.26546  23359637.290    23359636.9804   23359643.7174
        -0.000          -0.000
 -34256779.791 9 -25726742.10449  19727704.074    19727703.4554   19727708.8724
        -0.000          -0.000
 -22546147.076 9 -17300360.01948  21178465.559    21178464.6444   21178471.0824
        -0.000          -0.000
 -12829177.577 9  -9973409.11146  22904250.085    22904249.7984   22904256.2334
        -0.000          -0.000
 97  3 10  1 39 29.9980000  0  7 30 24  4  9  5 10  6               -0.001712409
 -26629658.516 9 -20466485.39648  20661695.624    20661695.7364   20661700.7304
        -0.000          -0.000
 -31293706.644 9 -23766655.10049  20450252.183    20450251.9154   20450257.9304
        -0.000          -0.000
 -19468399.063 9 -13755371.98446  23045216.489    23045216.4794   23045221.9464
        -0.000          -0.000
 -17983630.650 9 -13985801.78546  23373175.252    23373174.8894   23373181.6824
        -0.000          -0.000
 -34276743.738 9 -25742298.42249  19723905.007    19723904.3854   19723909.8264
        -0.000          -0.000
 -22625151.497 9 -17361921.87748  21163431.453    21163430.5724   21163436.9994
        -0.000          -0.000
 -12914212.622 9 -10039670.13246  22888068.351    22888068.0124   22888074.5254
        -0.000          -0.000
 97  3 10  1 39 59.9980000  0  7 30 24  4  9  5 10  6               -0.001723499
 -26709451.572 9 -20528661.78848  20646511.499    20646511.5784   20646516.5894
        -0.000          -0.000
 -31259457.310 9 -23739967.29449  20456769.632    20456769.3634   20456775.3604
        -0.000          -0.000
 -19391275.835 9 -13695275.93546  23059892.557    23059892.5994   23059897.9414
        -0.000          -0.000
 -17912436.649 9 -13930325.93446  23386723.046    23386722.7084   23386729.3934
        -0.000          -0.000
 -34296185.942 9 -25757448.19049  19720205.264    19720204.6564   19720210.1254
        -0.000          -0.000
 -22703700.227 9 -17423128.64648  21148484.124    21148483.2304   21148489.6594
        -0.000          -0.000
 -12999209.921 9 -10105901.73546  22871893.697    22871893.4774   22871899.8464
        -0.000          -0.000
 97  3 10  1 40 29.9980000  0  7 30 24  4  9  5 10  6               -0.001734578
 -26788812.775 9 -20590501.66848  20631409.542    20631409.6424   20631414.6444
        -0.000          -0.000
 -31224910.261 9 -23713047.50549  20463343.695    20463343.4224   20463349.4174
        -0.000          -0.000
 -19314085.181 9 -13635127.37246  23074581.456    23074581.5994   23074586.8384
        -0.000          -0.000
 -17841189.040 9 -13874808.34446  23400281.015    23400280.6734   23400287.3914
        -0.000          -0.000
 -34315092.306 9 -25772180.42049  19716607.483    19716606.8874   19716612.3414
        -0.000          -0.000
 -22781800.014 9 -17483985.59748  21133622.223    21133621.3084   21133627.7524
        -0.000          -0.000
 -13084188.255 9 -10172118.57546  22855722.942    22855722.6524   22855729.0104
        -0.000          -0.000
 97  3 10  1 40 59.9980000  0  7 30 24  4  9  5 10  6               -0.001745669
 -26867764.475 9 -20652022.45348  20616385.535    20616385.6334   20616390.6304
        -0.000          -0.000
 -31190099.845 9 -23685922.49549  20469967.912    20469967.6364   20469973.6294
        -0.000          -0.000
 -19236871.715 9 -13574961.01346  23089274.681    23089274.7484   23089280.0244
        -0.000          -0.000
 -17769906.486 9 -13819263.48246  23413845.691    23413845.4224   23413851.9874
        -0.000          -0.000
 -34333474.099 9 -25786503.89549  19713109.550    19713108.9294   19713114.4074
        -0.000          -0.000
 -22859461.398 9 -17544500.94048  21118843.717    21118842.7994   21118849.2114
        -0.000          -0.000
 -13169167.157 9 -10238335.83846  22839551.908    22839551.5784   22839558.1274
        -0.000          -0.000
 97  3 10  1 41 29.9980000  0  7 30 24  4  9  5 10  6               -0.001756769
 -26946285.672 9 -20713207.78448  20601443.440    20601443.5284   20601448.5334
        -0.000          -0.000
 -31155006.492 9 -23658577.01249  20476645.921    20476645.6534   20476651.6394
        -0.000          -0.000
 -19159631.157 9 -13514773.55046  23103973.137    23103973.1334   23103978.4324
        -0.000          -0.000
 -17698590.102 9 -13763692.30246  23427416.751    23427416.5064   23427423.0454
        -0.000          -0.000
 -34351324.193 9 -25800413.05649  19709712.779    19709712.1704   19709717.6364
        -0.000          -0.000
 -22936676.477 9 -17604668.50848  21104150.169    21104149.2424   21104155.6564
        -0.000          -0.000
 -13254134.373 9 -10304544.00046  22823383.102    22823382.7914   22823389.3204
        -0.000          -0.000
 97  3 10  1 41 59.9980000  0  7 30 24  4  9  5 10  6               -0.001767877
 -27024372.945 9 -20774054.99548  20586583.892    20586583.9954   20586588.9774
        -0.000          -0.000
 -31119634.884 9 -23631014.71049  20483376.887    20483376.6334   20483382.6234
        -0.000          -0.000
 -19082350.343 9 -13454554.72646  23118679.257    23118679.2314   23118684.5044
        -0.000          -0.000
 -17627237.293 9 -13708092.68246  23440994.733    23440994.4884   23441000.8934
        -0.000          -0.000
 -34368619.149 9 -25813889.64349  19706421.652    19706421.0494   19706426.5184
        -0.000          -0.000
 -23013450.196 9 -17664492.15748  21089540.581    21089539.6464   21089546.0814
        -0.000          -0.000
 -13339088.677 9 -10370742.13946  22807216.896    22807216.5834   22807222.8814
        -0.000          -0.000
 97  3 10  1 42 29.9980000  0  7 30 24  4  9  5 10  6               -0.001779007
 -27102048.819 9 -20834581.63448  20571802.680    20571802.7774   20571807.7244
        -0.000          -0.000
 -31084006.170 9 -23603252.06649  20490156.790    20490156.5404   20490162.5394
        -0.000          -0.000
 -19005052.812 9 -13394322.86746  23133388.413    23133388.4084   23133393.6324
        -0.000          -0.000
 -17555878.336 9 -13652488.32246  23454573.930    23454573.6764   23454580.0584
        -0.000          -0.000
 -34385377.179 9 -25826947.84249  19703232.714    19703232.1164   19703237.5874
        -0.000          -0.000
 -23089790.613 9 -17723978.17048  21075013.454    21075012.5234   21075018.9744
        -0.000          -0.000
 -13424045.874 9 -10436942.49646  22791050.062    22791049.7654   22791055.9734
        -0.000          -0.000
 97  3 10  1 42 59.9980000  0  7 30 24  4  9  5 10  6               -0.001790142
 -27179287.956 9 -20894767.95348  20557104.529    20557104.6234   20557109.5844
        -0.000          -0.000
 -31048077.373 9 -23575255.59149  20496993.793    20496993.5474   20496999.5484
        -0.000          -0.000
 -18927715.598 9 -13334060.09846  23148105.122    23148105.0904   23148110.4134
        -0.000          -0.000
 -17484509.597 9 -13596876.33746  23468154.984    23468154.6454   23468161.0644
        -0.000          -0.000
 -34401596.657 9 -25839586.39149  19700146.243    19700145.6534   19700151.1114
        -0.000          -0.000
 -23165670.830 9 -17783105.58448  21060573.905    21060572.9794   21060579.4074
        -0.000          -0.000
 -13508974.110 9 -10503120.28246  22774888.611    22774888.4034   22774894.6524
        -0.000          -0.000
 97  3 10  1 43 29.9980000  0  7 30 24  4  9  5 10  6               -0.001801282
 -27256091.266 9 -20954614.67048  20542489.310    20542489.4214   20542494.3864
        -0.000          -0.000
 -31011843.971 9 -23547021.76049  20503888.715    20503888.4734   20503894.4894
        -0.000          -0.000
 -18850323.944 9 -13273754.90146  23162832.366    23162832.2454   23162837.4744
        -0.000          -0.000
 -17413142.838 9 -13541265.85546  23481735.620    23481735.3434   23481741.7174
        -0.000          -0.000
 -34417274.630 9 -25851802.98349  19697162.802    19697162.2084   19697167.6854
        -0.000          -0.000
 -23241097.187 9 -17841879.33548  21046220.702    21046219.7754   21046226.2254
        -0.000          -0.000
 -13593881.983 9 -10569282.21347  22758731.289    22758731.0884   22758737.2394
        -0.000          -0.000
 97  3 10  1 43 59.9980000  0  7 30 24  4  9  5 10  6               -0.001812437
 -27332475.159 9 -21014134.56548  20527953.877    20527954.0034   20527958.9804
        -0.000          -0.000
 -30975337.946 9 -23518575.49849  20510835.581    20510835.3644   20510841.3694
        -0.000          -0.000
 -18772902.503 9 -13213426.48846  23177565.187    23177565.0464   23177570.2944
        -0.000          -0.000
 -17341790.555 9 -13485666.69946  23495313.430    23495313.1434   23495319.6664
        -0.000          -0.000
 -34432430.379 9 -25863612.64949  19694278.766    19694278.1654   19694283.6624
        -0.000          -0.000
 -23316076.929 9 -17900305.07348  21031952.533    21031951.6034   21031958.0204
        -0.000          -0.000
 -13678788.450 9 -10635443.04946  22742574.046    22742573.8144   22742579.9794
        -0.000          -0.000
 97  3 10  1 44 29.9980000  0  7 30 24  4  9  5 10  6               -0.001823599
 -27408424.883 9 -21073316.15048  20513501.096    20513501.2394   20513506.2164
        -0.000          -0.000
 -30938565.323 9 -23489921.49649  20517833.188    20517832.9604   20517838.9854
        -0.000          -0.000
 -18695459.510 9 -13153081.27946  23192302.058    23192301.9244   23192307.3054
        -0.000          -0.000
 -17270438.478 9 -13430067.66746  23508891.211    23508890.9434   23508897.5654
        -0.000          -0.000
 -34447069.852 9 -25875020.02549  19691492.950    19691492.3544   19691497.8434
        -0.000          -0.000
 -23390598.911 9 -17958374.11048  21017771.437    21017770.5204   21017776.9344
        -0.000          -0.000
 -13763684.212 9 -10701595.53046  22726418.876    22726418.6184   22726424.7384
        -0.000          -0.000
 97  3 10  1 44 59.9980000  0  7 30 24  4  9  5 10  6               -0.001834753
 -27483921.536 9 -21132144.69448  20499134.557    20499134.7144   20499139.6594
        -0.000          -0.000
 -30901507.537 9 -23461045.28749  20524885.048    20524884.7984   20524890.8304
        -0.000          -0.000
 -18617980.584 9 -13092708.08846  23207045.715    23207045.6074   23207051.0324
        -0.000          -0.000
 -17199063.473 9 -13374450.82446  23522473.442    23522473.1804   23522479.8214
        -0.000          -0.000
 -34461170.209 9 -25886007.30849  19688809.733    19688809.1514   19688814.6314
        -0.000          -0.000
 -23464653.157 9 -18016078.68048  21003679.344    21003678.4464   21003684.8464
        -0.000          -0.000
 -13848542.037 9 -10767718.45447  22710270.943    22710270.7074   22710276.8634
        -0.000          -0.000
 97  3 10  1 45 29.9980000  0  7 30 24  4  9  5 10  6               -0.001845899
 -27558967.482 9 -21190622.03648  20484853.785    20484853.9314   20484858.8734
        -0.000          -0.000
 -30864180.933 9 -23431959.61348  20531988.070    20531987.8214   20531993.8614
        -0.000          -0.000
 -18540467.589 9 -13032308.34246  23221795.886    23221795.7754   23221801.2184
        -0.000          -0.000
 -17127662.284 9 -13318813.51546  23536060.606    23536060.4144   23536066.9864
        -0.000          -0.000
 -34474723.823 9 -25896568.55949  19686230.540    19686229.9474   19686235.4244
        -0.000          -0.000
 -23538241.064 9 -18073419.87248  20989676.043    20989675.1104   20989681.5084
        -0.000          -0.000
 -13933359.193 9 -10833809.69047  22694130.736    22694130.5104   22694136.6644
        -0.000          -0.000
 97  3 10  1 45 59.9980000  0  7 30 24  4  9  5 10  6               -0.001857031
 -27633564.008 9 -21248749.18148  20470658.482    20470658.6484   20470663.6044
        -0.000          -0.000
 -30826591.318 9 -23402668.99248  20539141.115    20539140.8494   20539146.9004
        -0.000          -0.000
 -18462931.922 9 -12971890.91946  23236550.437    23236550.3314   23236555.6884
        -0.000          -0.000
 -17056238.435 9 -13263158.58346  23549652.138    23549651.8364   23549658.5314
        -0.000          -0.000
 -34487744.990 9 -25906714.91449  19683752.715    19683752.1224   19683757.6004
        -0.000          -0.000
 -23611352.030 9 -18130389.42048  20975763.390    20975762.4924   20975768.9054
        -0.000          -0.000
 -14018121.253 9 -10899858.00046  22678000.960    22678000.7374   22678006.8094
        -0.000          -0.000
 97  3 10  1 46 29.9980000  0  7 30 24  4  9  5 10  6               -0.001868160
 -27707732.343 9 -21306542.67048  20456544.690    20456544.8794   20456549.8374
        -0.000          -0.000
 -30788730.389 9 -23373166.96248  20546345.786    20546345.5514   20546351.5854
        -0.000          -0.000
 -18385378.799 9 -12911459.89846  23251308.292    23251308.2444   23251313.5694
        -0.000          -0.000
 -16984820.152 9 -13207508.00046  23563242.524    23563242.2674   23563248.8854
        -0.000          -0.000
 -34500244.481 9 -25916454.77349  19681374.127    19681373.5394   19681379.0234
        -0.000          -0.000
 -23683990.398 9 -18186990.70848  20961940.767    20961939.8514   20961946.2644
        -0.000          -0.000
 -14102834.771 9 -10965868.48447  22661880.456    22661880.2564   22661886.2884
        -0.000          -0.000
 97  3 10  1 46 59.9980000  0  7 30 24  4  9  5 10  6               -0.001879279
 -27781471.805 9 -21364001.97348  20442512.566    20442512.7534   20442517.6954
        -0.000          -0.000
 -30750573.841 9 -23343434.57548  20553606.751    20553606.5044   20553612.5344
        -0.000          -0.000
 -18307787.198 9 -12850998.88646  23266073.479    23266073.4324   23266078.8494
        -0.000          -0.000
 -16913418.829 9 -13151870.61946  23576829.754    23576829.5604   23576836.1254
        -0.000          -0.000
 -34512210.315 9 -25925778.79649  19679097.110    19679096.5154   19679102.0034
        -0.000          -0.000
 -23756136.975 9 -18243208.77748  20948211.660    20948210.7764   20948217.1834
        -0.000          -0.000
 -14187490.914 9 -11031834.24547  22645770.972    22645770.6904   22645776.7954
        -0.000          -0.000
 97  3 10  1 47 29.9980000  0  7 30 24  4  9  5 10  6               -0.001890396
 -27854786.877 9 -21421130.58448  20428561.204    20428561.3714   20428566.2734
        -0.000          -0.000
 -30712135.674 9 -23313482.74648  20560921.274    20560921.0214   20560927.0534
        -0.000          -0.000
 -18230156.141 9 -12790507.13146  23280846.187    23280846.0964   23280851.5304
        -0.000          -0.000
 -16842051.505 9 -13096259.73146  23590410.631    23590410.3894   23590416.9084
        -0.000          -0.000
 -34523660.458 9 -25934700.98449  19676918.253    19676917.6434   19676923.1464
        -0.000          -0.000
 -23827791.894 9 -18299043.73948  20934576.157    20934575.2754   20934581.6684
        -0.000          -0.000
 -14272116.721 9 -11097776.38646  22629667.026    22629666.7884   22629672.9184
        -0.000          -0.000
 97  3 10  1 47 59.9980000  0  7 30 24  4  9  5 10  6               -0.001901511
 -27927686.093 9 -21477935.15248  20414688.953    20414689.1054   20414693.9864
        -0.000          -0.000
 -30673428.140 9 -23283321.02048  20568287.078    20568286.8314   20568292.8494
        -0.000          -0.000
 -18152483.133 9 -12729982.69446  23295626.841    23295626.7744   23295632.2414
        -0.000          -0.000
 -16770724.630 9 -13040680.35746  23603983.759    23603983.5124   23603989.9904
        -0.000          -0.000
 -34534601.706 9 -25943226.63149  19674836.180    19674835.5954   19674841.0894
        -0.000          -0.000
 -23898969.845 9 -18354507.03648  20921031.459    20921030.5324   20921036.9504
        -0.000          -0.000
 -14356736.600 9 -11163713.92847  22613564.500    22613564.2754   22613570.2014
        -0.000          -0.000
 97  3 10  1 48 29.9980000  0  7 30 24  4  9  5 10  6               -0.001912627
 -28000160.713 9 -21534408.86348  20400897.467    20400897.6124   20400902.5194
        -0.000          -0.000
 -30634447.371 9 -23252946.38448  20575704.868    20575704.6164   20575710.6144
        -0.000          -0.000
 -18074763.282 9 -12669421.76146  23310416.396    23310416.3654   23310421.7914
        -0.000          -0.000
 -16699424.755 9 -12985121.99646  23617551.656    23617551.3804   23617557.8474
        -0.000          -0.000
 -34545011.490 9 -25951338.14749  19672855.245    19672854.6664   19672860.1744
        -0.000          -0.000
 -23969667.795 9 -18409596.31548  20907578.018    20907577.1064   20907583.5144
        -0.000          -0.000
 -14441364.987 9 -11229658.06147  22597460.205    22597459.9444   22597465.9604
        -0.000          -0.000
 97  3 10  1 48 59.9980000  0  7 30 24  4  9  5 10  6               -0.001923744
 -28072205.718 9 -21590547.81048  20387187.724    20387187.8834   20387192.7924
        -0.000          -0.000
 -30595220.984 9 -23222380.35748  20583169.428    20583169.1594   20583175.1354
        -0.000          -0.000
 -17997006.819 9 -12608832.30346  23325212.907    23325212.9614   23325218.4044
        -0.000          -0.000
 -16628141.426 9 -12929576.54646  23631116.352    23631116.1394   23631122.5854
        -0.000          -0.000
 -34554889.278 9 -25959035.12149  19670975.522    19670974.9274   19670980.4364
        -0.000          -0.000
 -24039889.592 9 -18464314.56148  20894215.207    20894214.3064   20894220.7164
        -0.000          -0.000
 -14526019.987 9 -11295622.93647  22581350.651    22581350.4664   22581356.6264
        -0.000          -0.000
 97  3 10  1 49 29.9980000  0  7 30 24  4  9  5 10  6               -0.001934850
 -28143784.851 9 -21646323.73648  20373566.666    20373566.7834   20373571.7054
        -0.000          -0.000
 -30555736.964 9 -23191613.57848  20590682.967    20590682.7174   20590688.6684
        -0.000          -0.000
 -17919209.540 9 -12548211.02146  23340017.201    23340017.3124   23340022.7244
        -0.000          -0.000
 -16556841.245 9 -12874017.96646  23644684.297    23644684.0364   23644690.6504
        -0.000          -0.000
 -34564209.381 9 -25966297.53449  19669201.968    19669201.3854   19669206.8994
        -0.000          -0.000
 -24109613.340 9 -18518644.71848  20880947.165    20880946.2724   20880952.7174
        -0.000          -0.000
 -14610677.326 9 -11361589.66247  22565240.942    22565240.7794   22565246.7154
        -0.000          -0.000
 97  3 10  1 49 59.9980000  0  7 30 24  4  9  5 10  6               -0.001945952
 -28214900.900 9 -21701738.82148  20360033.697    20360033.8124   20360038.7364
        -0.000          -0.000
 -30515995.302 9 -23160646.03648  20598245.525    20598245.2924   20598251.2344
        -0.000          -0.000
 -17841393.607 9 -12487575.22146  23354825.054    23354825.2014   23354830.5624
        -0.000          -0.000
 -16485527.096 9 -12818448.51046  23658254.914    23658254.6614   23658261.3194
        -0.000          -0.000
 -34572967.332 9 -25973121.91149  19667535.350    19667534.7794   19667540.3134
        -0.000          -0.000
 -24178826.317 9 -18572576.87048  20867776.301    20867775.4304   20867781.8754
        -0.000          -0.000
 -14695323.349 9 -11427547.55447  22549133.289    22549133.0614   22549138.9974
        -0.000          -0.000
 97  3 10  1 50 29.9980000  0  7 30 24  4  9  5 10  6               -0.001957066
 -28285570.725 9 -21756806.20148  20346585.630    20346585.7824   20346590.7034
        -0.000          -0.000
 -30476014.034 9 -23129491.78648  20605853.702    20605853.4654   20605859.4094
        -0.000          -0.000
 -17763596.240 9 -12426953.89146  23369629.280    23369629.4424   23369634.8694
        -0.000          -0.000
 -16414226.623 9 -12762889.71646  23671823.038    23671822.6974   23671829.4104
        -0.000          -0.000
 -34581184.759 9 -25979525.10749  19665971.637    19665971.0624   19665976.5744
        -0.000          -0.000
 -24247537.705 9 -18626118.17548  20854700.921    20854700.0624   20854706.4724
        -0.000          -0.000
 -14779964.842 9 -11493501.90547  22533026.577    22533026.3104   22533032.2804
        -0.000          -0.000
 97  3 10  1 50 59.9980000  0  7 30 24  4  9  5 10  6               -0.001968192
 -28355774.453 9 -21811510.38548  20333226.271    20333226.4204   20333231.3654
        -0.000          -0.000
 -30435800.812 9 -23098156.79148  20613505.993    20613505.7574   20613511.7094
        -0.000          -0.000
 -17685824.087 9 -12366352.20446  23384428.729    23384428.9474   23384434.4724
        -0.000          -0.000
 -16342949.093 9 -12707348.76446  23685386.788    23685386.4284   23685393.0954
        -0.000          -0.000
 -34588871.575 9 -25985514.83349  19664508.861    19664508.2744   19664513.7924
        -0.000          -0.000
 -24315745.181 9 -18679266.81548  20841721.433    20841720.5674   20841726.9664
        -0.000          -0.000
 -14864583.649 9 -11559438.58847  22516924.158    22516923.9084   22516929.8244
        -0.000          -0.000
 97  3 10  1 51 29.9980000  0  7 30 24  4  9  5 10  6               -0.001979321
 -28425496.150 9 -21865838.96848  20319958.660    20319958.8354   20319963.7554
        -0.000          -0.000
 -30395337.580 9 -23066626.98748  20621205.872    20621205.6474   20621211.5924
        -0.000          -0.000
 -17608056.385 9 -12305753.96746  23399227.475    23399227.5624   23399233.2214
        -0.000          -0.000
 -16271695.308 9 -12651826.37146  23698945.835    23698945.4634   23698952.2034
        -0.000          -0.000
 -34596020.947 9 -25991085.76749  19663148.345    19663147.7864   19663153.2884
        -0.000          -0.000
 -24383447.484 9 -18732021.80948  20828838.087    20828837.2164   20828843.6434
        -0.000          -0.000
 -14949158.217 9 -11625340.82547  22500830.083    22500829.8404   22500835.7034
        -0.000          -0.000
 97  3 10  1 51 59.9980000  0  7 30 24  4  9  5 10  6               -0.001990442
 -28494733.676 9 -21919790.27248  20306783.177    20306783.3464   20306788.2824
        -0.000          -0.000
 -30354622.203 9 -23034900.70348  20628953.713    20628953.5034   20628959.4444
        -0.000          -0.000
 -17530277.084 9 -12245146.71746  23414028.384    23414028.5054   23414034.1234
        -0.000          -0.000
 -16200461.978 9 -12596319.88646  23712501.116    23712500.8164   23712507.5294
        -0.000          -0.000
 -34602626.431 9 -25996232.89449  19661891.362    19661890.7864   19661896.3044
        -0.000          -0.000
 -24450644.003 9 -18784382.69448  20816051.037    20816050.1484   20816056.5274
        -0.000          -0.000
 -15033684.770 9 -11691205.61447  22484745.049    22484744.8854   22484750.7884
        -0.000          -0.000
 97  3 10  1 52 29.9980000  0  7 30 24  4  9  5 10  6               -0.002001571
 -28563493.745 9 -21973369.53248  20293698.597    20293698.7454   20293703.6664
        -0.000          -0.000
 -30313680.353 9 -23002997.94848  20636744.647    20636744.4294   20636750.3634
        -0.000          -0.000
 -17452505.383 9 -12184545.37446  23428827.861    23428827.9304   23428833.5554
        -0.000          -0.000
 -16129274.032 9 -12540848.73746  23726047.736    23726047.4794   23726054.1924
        -0.000          -0.000
 -34608711.114 9 -26000974.20149  19660733.488    19660732.9284   19660738.4454
        -0.000          -0.000
 -24517358.838 9 -18836368.24448  20803355.596    20803354.7174   20803361.0914
        -0.000          -0.000
 -15118190.891 9 -11757054.50347  22468664.061    22468663.9474   22468669.8034
        -0.000          -0.000
 97  3 10  1 52 59.9970000  0  7 30 24  4  9  5 10  6               -0.002012705
 -28631775.648 9 -22026576.19648  20280704.921    20280705.0704   20280710.0174
        -0.000          -0.000
 -30272521.008 9 -22970925.72048  20644576.986    20644576.7674   20644582.6884
        -0.000          -0.000
 -17374732.036 9 -12123942.75346  23443627.516    23443627.6544   23443633.3214
        -0.000          -0.000
 -16058144.260 9 -12485422.93146  23739583.273    23739583.0304   23739589.6714
        -0.000          -0.000
 -34614280.759 9 -26005314.18249  19659673.625    19659673.0724   19659678.6084
        -0.000          -0.000
 -24583583.370 9 -18887971.73448  20790753.469    20790752.5724   20790758.9384
        -0.000          -0.000
 -15202677.277 9 -11822888.00047  22452586.873    22452586.6384   22452592.5684
        -0.000          -0.000
 97  3 10  1 53 29.9970000  0  7 30 24  4  9  5 10  6               -0.002023834
 -28699577.553 9 -22079408.83248  20267802.655    20267802.7924   20267807.7254
        -0.000          -0.000
 -30231112.804 9 -22938659.57348  20652456.724    20652456.5024   20652462.4044
        -0.000          -0.000
 -17296932.731 9 -12063319.91445  23458432.159    23458432.3264   23458437.9144
        -0.000          -0.000
 -15987059.216 9 -12430032.01946  23753110.218    23753109.9644   23753116.6344
        -0.000          -0.000
 -34619315.019 9 -26009236.97949  19658715.647    19658715.0854   19658720.6184
        -0.000          -0.000
 -24649304.804 9 -18939183.20348  20778247.034    20778246.1604   20778252.5184
        -0.000          -0.000
 -15287138.671 9 -11888702.03147  22436514.303    22436514.1244   22436520.0034
        -0.000          -0.000
 97  3 10  1 53 59.9970000  0  7 30 24  4  9  5 10  6               -0.002034979
 -28766915.295 9 -22131879.78648  20254988.699    20254988.8434   20254993.7664
        -0.000          -0.000
 -30189480.282 9 -22906218.63548  20660379.105    20660378.8774   20660384.7914
        -0.000          -0.000
 -17219148.942 9 -12002709.14445  23473234.017    23473234.0184   23473239.6244
        -0.000          -0.000
 -15916045.477 9 -12374696.62746  23766623.673    23766623.5684   23766630.0704
        -0.000          -0.000
 -34623829.885 9 -26012755.05849  19657856.475    19657855.9204   19657861.4734
        -0.000          -0.000
 -24714520.247 9 -18990000.39148  20765836.940    20765836.0514   20765842.3914
        -0.000          -0.000
 -15371590.019 9 -11954508.24647  22420443.825    22420443.5804   22420449.4514
        -0.000          -0.000
 97  3 10  1 54 29.9970000  0  7 30 24  4  9  5 10  6               -0.002046134
 -28833764.814 9 -22183970.30648  20242267.650    20242267.7804   20242272.7034
        -0.000          -0.000
 -30147606.526 9 -22873589.72548  20668347.456    20668347.2114   20668353.1314
        -0.000          -0.000
 -17141365.892 9 -11942098.94846  23488035.613    23488035.6414   23488041.2724
        -0.000          -0.000
 -15845096.654 9 -12319411.82746  23780124.894    23780124.7524   23780131.2264
        -0.000          -0.000
 -34627801.433 9 -26015849.76949  19657100.675    19657100.1234   19657105.6744
        -0.000          -0.000
 -24779203.459 9 -19040402.85048  20753528.112    20753527.2324   20753533.5074
        -0.000          -0.000
 -15456008.401 9 -12020288.74047  22404379.361    22404379.1414   22404385.2144
        -0.000          -0.000
 97  3 10  1 54 59.9970000  0  7 30 24  4  9  5 10  6               -0.002057303
 -28900147.431 9 -22235697.00748  20229635.417    20229635.5854   20229640.5134
        -0.000          -0.000
 -30105503.194 9 -22840781.91848  20676359.417    20676359.1844   20676365.1164
        -0.000          -0.000
 -17063589.221 9 -11881493.73945  23502836.027    23502835.9654   23502841.6754
        -0.000          -0.000
 -15774224.966 9 -12264187.14146  23793611.325    23793611.1754   23793617.7014
        -0.000          -0.000
 -34631233.226 9 -26018523.89049  19656447.627    19656447.0854   19656452.6494
        -0.000          -0.000
 -24843378.177 9 -19090409.09348  20741316.056    20741315.1564   20741321.4114
        -0.000          -0.000
 -15540401.880 9 -12086049.85547  22388319.786    22388319.6094   22388325.5954
        -0.000          -0.000
 97  3 10  1 55 29.9970000  0  7 30 24  4  9  5 10  6               -0.002068492
 -28966067.426 9 -22287063.22048  20217091.307    20217091.4294   20217096.3514
        -0.000          -0.000
 -30063160.369 9 -22807787.50148  20684416.973    20684416.7664   20684422.7024
        -0.000          -0.000
 -16985837.152 9 -11820907.70245  23517631.681    23517631.7624   23517637.4404
        -0.000          -0.000
 -15703428.347 8 -12209020.93845  23807083.418    23807083.2394   23807089.8024
        -0.000          -0.000
 -34634116.754 9 -26020770.79349  19655898.888    19655898.3454   19655903.9154
        -0.000          -0.000
 -24907060.732 9 -19140031.82748  20729197.629    20729196.7564   20729202.9804
        -0.000          -0.000
 -15624773.771 9 -12151794.15247  22372264.407    22372264.1544   22372270.0704
        -0.000          -0.000
 97  3 10  1 55 59.9970000  0  7 30 24  4  9  5 10  6               -0.002079693
 -29031525.266 9 -22338069.31949  20204635.033    20204635.1824   20204640.1044
        -0.000          -0.000
 -30020585.060 9 -22774611.91948  20692518.763    20692518.5384   20692524.4834
        -0.000          -0.000
 -16908106.630 9 -11760338.45945  23532423.247    23532423.3124   23532428.9554
        -0.000          -0.000
 -15632696.770 8 -12153905.44045  23820543.214    23820542.9824   23820549.5384
        -0.000          -0.000
 -34636444.770 9 -26022584.82849  19655455.907    19655455.3614   19655460.9124
        -0.000          -0.000
 -24970250.995 9 -19189270.95448  20717172.894    20717172.0204   20717178.2214
        -0.000          -0.000
 -15709115.473 9 -12217514.90847  22356214.595    22356214.3854   22356220.4214
        -0.000          -0.000
 97  3 10  1 56 29.9970000  0  7 30 24  4  9  5 10  6               -0.002090898
 -29096517.047 9 -22388712.24749  20192267.502    20192267.6344   20192272.5664
        -0.000          -0.000
 -29977768.599 9 -22741248.42848  20700666.421    20700666.1974   20700672.1524
        -0.000          -0.000
 -16830382.829 9 -11699774.43645  23547213.620    23547213.6534   23547219.3464
        -0.000          -0.000
 -15562025.106 9 -12098836.61445  23833991.549    23833991.2614   23833997.8814
        -0.000          -0.000
 -34638213.931 9 -26023963.38749  19655119.227    19655118.6844   19655124.2244
        -0.000          -0.000
 -25032951.861 9 -19238128.73648  20705241.290    20705240.4004   20705246.6244
        -0.000          -0.000
 -15793429.596 9 -12283214.18647  22340170.190    22340169.9924   22340175.9144
        -0.000          -0.000
 97  3 10  1 56 59.9970000  0  7 30 24  4  9  5 10  6               -0.002102107
 -29161039.341 9 -22438989.34649  20179989.266    20179989.4344   20179994.3544
        -0.000          -0.000
 -29934714.260 9 -22707699.58248  20708859.333    20708859.1154   20708865.0914
        -0.000          -0.000
 -16752671.029 9 -11639219.76445  23562001.787    23562001.7754   23562007.4734
        -0.000          -0.000
 -15491409.747 9 -12043811.66045  23847429.249    23847428.9384   23847435.5794
        -0.000          -0.000
 -34639430.579 9 -26024911.41749  19654887.736    19654887.1954   19654892.7194
        -0.000          -0.000
 -25095168.329 9 -19286609.06948  20693401.830    20693400.9574   20693407.1674
        -0.000          -0.000
 -15877724.488 9 -12348898.48147  22324129.373    22324129.1074   22324134.9764
        -0.000          -0.000
 97  3 10  1 57 29.9970000  0  7 30 24  4  9  5 10  6               -0.002113328
 -29225083.095 9 -22488893.55549  20167802.166    20167802.3314   20167807.2284
        -0.000          -0.000
 -29891444.703 9 -22673983.02948  20717093.265    20717093.0554   20717099.0124
        -0.000          -0.000
 -16674989.498 9 -11578688.66245  23576784.179    23576784.1614   23576789.5834
        -0.000          -0.000
 -15420857.946 8 -11988836.24545  23860854.791    23860854.5154   23860861.1464
        -0.000          -0.000
 -34640103.558 9 -26025435.81049  19654759.639    19654759.1034   19654764.6134
        -0.000          -0.000
 -25156889.537 9 -19334703.48048  20681656.667    20681655.7884   20681661.9784
        -0.000          -0.000
 -15962010.814 9 -12414576.09647  22308090.049    22308089.9114   22308095.8284
        -0.000          -0.000
 97  3 10  1 57 59.9970000  0  7 30 24  4  9  5 10  6               -0.002124551
 -29288617.272 9 -22538400.69249  20155712.003    20155712.1714   20155717.0364
        -0.000          -0.000
 -29847967.253 9 -22640104.48348  20725366.766    20725366.5274   20725372.4814
        -0.000          -0.000
 -16597315.353 9 -11518163.35445  23591565.038    23591565.0994   23591570.4774
        -0.000          -0.000
 -15350364.300 8 -11933906.14345  23874269.205    23874268.8684   23874275.5774
        -0.000          -0.000
 -34640223.128 9 -26025528.97749  19654736.911    19654736.3794   19654741.8774
        -0.000          -0.000
 -25218078.207 9 -19382382.92748  20670012.833    20670011.9484   20670018.1284
        -0.000          -0.000
 -16046274.418 9 -12480235.98847  22292055.270    22292055.1024   22292061.0314
        -0.000          -0.000
 97  3 10  1 58 29.9970000  0  7 30 24  4  9  5 10  6               -0.002135793
 -29351649.613 9 -22587516.79049  20143717.362    20143717.5154   20143722.3714
        -0.000          -0.000
 -29804303.984 9 -22606081.14348  20733675.628    20733675.3854   20733681.3394
        -0.000          -0.000
 -16519670.373 9 -11457660.75245  23606340.377    23606340.4214   23606345.7524
        -0.000          -0.000
 -15279954.913 8 -11879041.69345  23887667.612    23887667.3224   23887674.0394
        -0.000          -0.000
 -34639813.685 9 -26025209.92149  19654814.804    19654814.2454   19654819.7564
        -0.000          -0.000
 -25278743.398 9 -19429654.46548  20658468.586    20658467.6914   20658473.8804
        -0.000          -0.000
 -16130550.646 9 -12545905.73747  22276017.975    22276017.7544   22276023.6644
        -0.000          -0.000
 97  3 10  1 58 59.9970000  0  7 30 24  4  9  5 10  6               -0.002147052
 -29414169.587 9 -22636233.63849  20131820.205    20131820.3614   20131825.2214
        -0.000          -0.000
 -29760453.758 9 -22571912.12448  20742020.026    20742019.7984   20742025.7514
        -0.000          -0.000
 -16442055.212 8 -11397181.40545  23621110.074    23621110.0164   23621115.3844
        -0.000          -0.000
 -15209626.032 8 -11824239.97145  23901050.827    23901050.4574   23901057.0684
        -0.000          -0.000
 -34638867.094 9 -26024472.31549  19654994.947    19654994.3914   19654999.8904
        -0.000          -0.000
 -25338886.942 9 -19476519.52548  20647023.612    20647022.7344   20647028.9014
        -0.000          -0.000
 -16214827.774 9 -12611576.17847  22259980.477    22259980.3164   22259986.1644
        -0.000          -0.000
 97  3 10  1 59 29.9970000  0  7 30 24  4  9  5 10  6               -0.002158316
 -29476171.786 9 -22684547.02649  20120021.579    20120021.7294   20120026.5684
        -0.000          -0.000
 -29716398.672 9 -22537583.47248  20750403.405    20750403.1754   20750409.1274
        -0.000          -0.000
 -16364457.512 9 -11336715.66345  23635876.355    23635876.3134   23635881.7754
        -0.000          -0.000
 -15139372.816 9 -11769497.21045  23914419.518    23914419.2914   23914426.0274
        -0.000          -0.000
 -34637379.193 9 -26023312.91349  19655278.082    19655277.5344   19655283.0184
        -0.000          -0.000
 -25398483.297 9 -19522958.20748  20635682.778    20635681.8954   20635688.0804
        -0.000          -0.000
 -16299081.846 9 -12677228.65847  22243947.545    22243947.3164   22243953.1634
        -0.000          -0.000
 97  3 10  1 59 59.9970000  0  7 30 24  4  9  5 10  6               -0.002169576
 -29537662.411 9 -22732461.78849  20108320.293    20108320.4394   20108325.2624
        -0.000          -0.000
 -29672117.906 9 -22503078.96348  20758829.740    20758829.5014   20758835.4384
        -0.000          -0.000
 -16286863.880 9 -11276253.07645  23650641.912    23650641.8624   23650647.2854
        -0.000          -0.000
 -15069198.157 8 -11714815.64945  23927773.354    23927773.0984   23927779.7374
        -0.000          -0.000
 -34635362.279 9 -26021741.29049  19655661.873    19655661.3194   19655666.8044
        -0.000          -0.000
 -25457537.182 9 -19568974.19048  20624445.152    20624444.2644   20624450.4624
        -0.000          -0.000
 -16383301.875 9 -12742854.59647  22227920.899    22227920.6414   22227926.5914
        -0.000          -0.000
 97  3 10  2  0 29.9970000  0  7 30 24  4  9  5 10  6               -0.002180840
 -29598668.312 9 -22779998.83949  20096711.226    20096711.3964   20096716.2054
        -0.000          -0.000
 -29627618.103 9 -22468403.77748  20767297.746    20767297.5294   20767303.4864
        -0.000          -0.000
 -16209302.508 9 -11215815.63245  23665401.337    23665401.3644   23665406.7184
        -0.000          -0.000
 -14999111.129 8 -11660202.42345  23941110.520    23941110.2644   23941116.8454
        -0.000          -0.000
 -34632839.674 9 -26019775.62049  19656141.907    19656141.3664   19656146.8364
        -0.000          -0.000
 -25516085.816 9 -19614596.47148  20613303.711    20613302.7974   20613309.0244
        -0.000          -0.000
 -16467505.191 9 -12808467.54147  22211897.469    22211897.3134   22211903.1334
        -0.000          -0.000
 97  3 10  2  0 59.9970000  0  7 30 24  4  9  5 10  6               -0.002192103
 -29659188.946 9 -22827157.75849  20085194.509    20085194.6594   20085199.4864
        -0.000          -0.000
 -29582897.940 9 -22433556.88048  20775807.675    20775807.4584   20775813.4124
        -0.000          -0.000
 -16131769.255 9 -11155400.07845  23680155.397    23680155.4504   23680160.7964
        -0.000          -0.000
 -14929113.240 9 -11605658.63945  23954430.593    23954430.4034   23954437.0844
        -0.000          -0.000
 -34629816.054 9 -26017419.54749  19656717.294    19656716.7384   19656722.2134
        -0.000          -0.000
 -25574118.229 9 -19659816.49748  20602260.481    20602259.5934   20602265.7854
        -0.000          -0.000
 -16551671.692 9 -12874051.78947  22195881.186    22195880.9724   22195886.7654
        -0.000          -0.000
 97  3 10  2  1 29.9970000  0  7 30 24  4  9  5 10  6               -0.002203363
 -29719227.384 9 -22873940.94049  20073769.558    20073769.6984   20073774.5404
        -0.000          -0.000
 -29537962.228 9 -22398542.02748  20784358.649    20784358.4284   20784364.3884
        -0.000          -0.000
 -16054265.182 9 -11095007.27045  23694903.877    23694903.8994   23694909.2884
        -0.000          -0.000
 -14859212.888 8 -11551190.85545  23967732.278    23967732.0244   23967738.8244
        -0.000          -0.000
 -34626297.745 9 -26014678.00349  19657386.813    19657386.2754   19657391.7464
        -0.000          -0.000
 -25631613.260 9 -19704617.78248  20591319.515    20591318.6174   20591324.7974
        -0.000          -0.000
 -16635798.410 9 -12939605.02647  22179872.284    22179872.0944   22179877.9564
        -0.000          -0.000
 97  3 10  2  1 59.9970000  0  7 30 24  4  9  5 10  6               -0.002214624
 -29778771.369 9 -22920338.83749  20062438.650    20062438.8334   20062443.6834
        -0.000          -0.000
 -29492813.350 9 -22363361.07148  20792950.151    20792949.9604   20792955.8954
        -0.000          -0.000
 -15976787.063 9 -11034634.68045  23709647.537    23709647.5724   23709652.9564
        -0.000          -0.000
 -14789403.651 9 -11496794.07645  23981016.581    23981016.3084   23981023.1814
        -0.000          -0.000
 -34622254.122 9 -26011527.12549  19658156.275    19658155.7324   19658161.1914
        -0.000          -0.000
 -25688571.980 9 -19749001.16848  20580480.618    20580479.7204   20580485.8784
        -0.000          -0.000
 -16719890.140 9 -13005131.03047  22163870.180    22163869.9724   22163875.7404
        -0.000          -0.000
 97  3 10  2  2 29.9970000  0  7 30 24  4  9  5 10  6               -0.002225902
 -29837825.774 9 -22966355.23949  20051201.031    20051201.1624   20051206.0194
        -0.000          -0.000
 -29447477.796 9 -22328034.65548  20801577.244    20801577.0384   20801582.9784
        -0.000          -0.000
 -15899350.995 8 -10974294.88945  23724383.170    23724383.1714   23724388.6474
        -0.000          -0.000
 -14719705.748 9 -11442484.04945  23994279.681    23994279.3754   23994286.2504
        -0.000          -0.000
 -34617670.591 9 -26007955.53749  19659028.508    19659027.9684   19659033.4364
        -0.000          -0.000
 -25744994.150 9 -19792966.45948  20569743.816    20569742.8934   20569749.0594
        -0.000          -0.000
 -16803960.115 9 -13070640.06747  22147872.146    22147871.9284   22147877.6764
        -0.000          -0.000
 97  3 10  2  2 59.9970000  0  7 30 24  4  9  5 10  6               -0.002237202
 -29896389.804 9 -23011989.53349  20040056.647    20040056.7874   20040061.6624
        -0.000          -0.000
 -29401967.747 9 -22292572.26348  20810237.494    20810237.3024   20810243.2704
        -0.000          -0.000
 -15821954.338 8 -10913985.78545  23739111.218    23739111.2954   23739116.6274
        -0.000          -0.000
 -14650137.933 9 -11388275.35945  24007518.107    24007517.8394   24007524.6144
        -0.000          -0.000
 -34612537.215 9 -26003955.49649  19660005.344    19660004.7824   19660010.2524
        -0.000          -0.000
 -25800864.391 9 -19836501.67948  20559112.036    20559111.0844   20559117.2324
        -0.000          -0.000
 -16888001.725 9 -13136126.99447  22131879.491    22131879.3384   22131885.1544
        -0.000          -0.000
 97  3 10  2  3 29.9970000  0  7 30 24  4  9  5 10  6               -0.002248523
 -29954455.830 9 -23057235.76949  20029007.010    20029007.1574   20029012.0164
        -0.000          -0.000
 -29356282.223 9 -22256973.14348  20818931.165    20818930.9844   20818936.9324
        -0.000          -0.000
 -15744598.104 9 -10853708.20245  23753831.618    23753831.6544   23753837.0404
        -0.000          -0.000
 -14580683.143 9 -11334154.71345  24020734.936    24020734.7814   24020741.4984
        -0.000          -0.000
 -34606821.774 9 -25999501.90049  19661092.964    19661092.3994   19661097.8374
        -0.000          -0.000
 -25856182.407 9 -19879606.58948  20548585.326    20548584.3914   20548590.5264
        -0.000          -0.000
 -16972015.214 9 -13201592.02347  22115892.344    22115892.1464   22115897.8644
        -0.000          -0.000
 97  3 10  2  3 59.9970000  0  7 30 24  4  9  5 10  6               -0.002259861
 -30012013.089 9 -23102085.56549  20018054.248    20018054.3994   20018059.2454
        -0.000          -0.000
 -29310423.988 9 -22221239.43848  20827657.691    20827657.5134   20827663.4254
        -0.000          -0.000
 -15667281.776 9 -10793461.73045  23768544.450    23768544.4204   23768549.8964
        -0.000          -0.000
 -14511330.213 9 -11280113.47345  24033932.415    24033932.2454   24033938.6674
        -0.000          -0.000
 -34600516.589 9 -25994588.76449  19662292.818    19662292.2484   19662297.6784
        -0.000          -0.000
 -25910953.859 9 -19922285.61748  20538162.614    20538161.6974   20538167.8074
        -0.000          -0.000
 -17056012.713 9 -13267044.58947  22099908.073    22099907.8724   22099913.6414
        -0.000          -0.000
 97  3 10  2  4 29.9970000  0  7 30 24  4  9  5 10  6               -0.002271214
 -30069069.396 9 -23146545.01049  20007196.737    20007196.8964   20007201.7544
        -0.000          -0.000
 -29264400.282 9 -22185376.79448  20836415.680    20836415.5104   20836421.4194
        -0.000          -0.000
 -15590013.554 8 -10733252.68645  23783248.092    23783248.0804   23783253.5894
        -0.000          -0.000
 -14442082.735 8 -11226154.40645  24047109.754    24047109.7354   24047115.8774
        -0.000          -0.000
 -34593658.975 9 -25989245.16749  19663597.787    19663597.2154   19663602.6294
        -0.000          -0.000
 -25965184.887 9 -19964543.52348  20527842.756    20527841.8514   20527847.9574
        -0.000          -0.000
 -17139997.512 9 -13332487.24747  22083926.250    22083926.0564   22083931.8184
        -0.000          -0.000
 97  3 10  2  4 59.9970000  0  7 30 24  4  9  5 10  6               -0.002282570
 -30125617.024 9 -23190608.07749  19996436.062    19996436.2254   19996441.0704
        -0.000          -0.000
 -29218189.978 9 -22149368.75648  20845209.207    20845209.0224   20845214.9254
        -0.000          -0.000
 -15512791.499 9 -10673079.65845  23797942.944    23797942.9174   23797948.4254
        -0.000          -0.000
 -14372915.336 8 -11172257.76545  24060271.797    24060271.8044   24060278.0944
        -0.000          -0.000
 -34586258.157 9 -25983478.29949  19665006.080    19665005.5104   19665010.9444
        -0.000          -0.000
 -26018869.332 9 -20006375.52548  20517626.910    20517626.0034   20517632.1004
        -0.000          -0.000
 -17223975.071 9 -13397924.28647  22067945.855    22067945.6004   22067951.4074
        -0.000          -0.000
 97  3 10  2  5 29.9970000  0  7 30 24  4  9  5 10  6               -0.002293914
 -30181636.421 9 -23234259.54049  19985775.900    19985776.0554   19985780.9154
        -0.000          -0.000
 -29171767.473 9 -22113195.35748  20854043.142    20854042.9264   20854048.8454
        -0.000          -0.000
 -15435599.281 8 -10612929.86045  23812632.154    23812632.0594   23812637.5894
        -0.000          -0.000
 -14303805.817 8 -11118406.23445  24073422.841    24073422.7084   24073429.3664
        -0.000          -0.000
 -34578320.929 9 -25977293.45249  19666516.473    19666515.8944   19666521.3314
        -0.000          -0.000
 -26072003.970 9 -20047779.10248  20507515.668    20507514.7734   20507520.8854
        -0.000          -0.000
 -17307941.221 9 -13463352.42447  22051967.541    22051967.3114   22051973.0944
        -0.000          -0.000
 97  3 10  2  5 59.9970000  0  7 30 24  4  9  5 10  6               -0.002305248
 -30237140.933 9 -23277509.79149  19975213.721    19975213.8874   19975218.7384
        -0.000          -0.000
 -29125132.213 9 -22076856.18048  20862917.509    20862917.3234   20862923.2164
        -0.000          -0.000
 -15358438.627 8 -10552804.68245  23827315.397    23827315.2744   23827320.6544
        -0.000          -0.000
 -14234785.708 9 -11064624.38245  24086556.872    24086556.8144   24086563.5344
        -0.000          -0.000
 -34569892.354 9 -25970725.72849  19668120.386    19668119.8144   19668125.2564
        -0.000          -0.000
 -26124605.574 9 -20088767.32848  20497505.872    20497505.0134   20497511.1094
        -0.000          -0.000
 -17391899.142 9 -13528774.14347  22035990.958    22035990.7014   22035996.4704
        -0.000          -0.000
 97  3 10  2  6 29.9970000  0  7 30 24  4  9  5 10  6               -0.002316584
 -30292158.431 9 -23320380.55449  19964744.256    19964744.4054   19964749.2394
        -0.000          -0.000
 -29078304.826 9 -22040367.30048  20871828.497    20871828.2644   20871834.1694
        -0.000          -0.000
 -15281326.024 8 -10492716.95545  23841989.450    23841989.1944   23841994.8194
        -0.000          -0.000
 -14165893.325 9 -11010942.01545  24099666.574    24099666.5984   24099673.1254
        -0.000          -0.000
 -34561006.101 9 -25963801.37549  19669811.405    19669810.8334   19669816.2634
        -0.000          -0.000
 -26176704.330 9 -20129363.72648  20487591.764    20487590.9164   20487597.0134
        -0.000          -0.000
 -17475856.034 9 -13594195.05947  22020014.383    22020014.1424   22020020.0004
        -0.000          -0.000
 97  3 10  2  6 59.9970000  0  7 30 24  4  9  5 10  6               -0.002327919
 -30346667.486 9 -23362855.12449  19954371.526    19954371.6764   19954376.5114
        -0.000          -0.000
 -29031275.262 9 -22003720.87448  20880777.877    20880777.6694   20880783.5624
        -0.000          -0.000
 -15204246.560 8 -10432655.04245  23856657.086    23856656.9304   23856662.5384
        -0.000          -0.000
 -14097127.112 9 -10957357.94445  24112752.302    24112752.3294   24112758.7304
        -0.000          -0.000
 -34551635.197 9 -25956499.36349  19671594.615    19671594.0294   19671599.4634
        -0.000          -0.000
 -26228288.391 9 -20169559.05948  20477775.607    20477774.7624   20477780.8574
        -0.000          -0.000
 -17559794.755 9 -13659601.82647  22004041.323    22004041.1594   22004046.9274
        -0.000          -0.000
 97  3 10  2  7 29.9970000  0  7 30 24  4  9  5 10  6               -0.002339260
 -30400668.413 9 -23404933.75449  19944095.477    19944095.6304   19944100.4624
        -0.000          -0.000
 -28984069.848 9 -21966937.42448  20889760.742    20889760.5304   20889766.4104
        -0.000          -0.000
 -15127205.726 9 -10372623.21745  23871317.377    23871317.3904   23871322.8404
        -0.000          -0.000
 -14028513.282 9 -10903892.60545  24125808.965    24125808.9704   24125815.4224
        -0.000          -0.000
 -34541777.309 9 -25948817.89049  19673470.494    19673469.9204   19673475.3624
        -0.000          -0.000
 -26279364.532 9 -20209358.61948  20468056.121    20468055.2804   20468061.3644
        -0.000          -0.000
 -17643702.694 9 -13724984.59447  21988074.109    21988073.9344   21988079.7004
        -0.000          -0.000
 97  3 10  2  7 59.9970000  0  7 30 24  4  9  5 10  6               -0.002350603
 -30454140.757 9 -23446600.50149  19933920.004    19933920.1644   19933924.9924
        -0.000          -0.000
 -28936688.104 9 -21930016.57448  20898777.182    20898776.9784   20898782.8414
        -0.000          -0.000
 -15050193.833 9 -10312613.94345  23885972.246    23885972.3654   23885977.6484
        -0.000          -0.000
 -13960045.539 9 -10850541.15145  24138838.102    24138838.0194   24138844.7354
        -0.000          -0.000
 -34531394.627 9 -25940727.49249  19675446.253    19675445.6724   19675451.1114
        -0.000          -0.000
 -26329908.691 9 -20248743.63948  20458437.874    20458437.0194   20458443.0744
        -0.000          -0.000
 -17727557.764 9 -13790326.15847  21972116.954    21972116.7904   21972122.6474
        -0.000          -0.000
 97  3 10  2  8 29.9970000  0  6 30 24  4  5 10  6                  -0.002362108
 -30507095.025 9 -23487863.55249  19923843.105    19923843.2604   19923848.0924
        -0.000          -0.000
 -28889162.565 9 -21892983.67248  20907820.983    20907820.7774   20907826.6364
        -0.000          -0.000
 -14973238.356 8 -10252648.62245  23900616.487    23900616.5984   23900621.8704
        -0.000          -0.000
 -34520481.892 9 -25932224.06449  19677522.857    19677522.2854   19677527.7374
        -0.000          -0.000
 -26379923.994 9 -20287716.57248  20448920.237    20448919.3984   20448925.4264
        -0.000          -0.000
 -17811388.066 9 -13855648.44347  21956164.638    21956164.3944   21956170.1984
        -0.000          -0.000
 97  3 10  2  8 59.9970000  0  6 30 24  4  5 10  6                  -0.002373557
 -30559539.878 9 -23528729.65749  19913863.169    19913863.3294   19913868.1554
        -0.000          -0.000
 -28841502.456 9 -21855845.91848  20916890.371    20916890.1684   20916896.0524
        -0.000          -0.000
 -14896356.204 8 -10192740.45445  23915246.626    23915246.7594   23915252.2034
        -0.000          -0.000
 -34509034.068 9 -25923303.68549  19679701.297    19679700.7374   19679706.1944
        -0.000          -0.000
 -26429396.680 9 -20326266.68648  20439505.869    20439505.0154   20439511.0444
        -0.000          -0.000
 -17895209.567 9 -13920963.86147  21940213.895    21940213.6564   21940219.4604
        -0.000          -0.000
 97  3 10  2  9 29.9970000  0  6 30 24  4  5 10  6                  -0.002384986
 -30611465.308 9 -23569191.01249  19903982.045    19903982.2104   19903987.0724
        -0.000          -0.000
 -28793695.499 9 -21818593.73648  20925987.737    20925987.5304   20925993.4144
        -0.000          -0.000
 -14819533.398 8 -10132878.54245  23929865.478    23929865.6794   23929871.0534
        -0.000          -0.000
 -34497044.102 9 -25913960.85649  19681982.916    19681982.3574   19681987.8204
        -0.000          -0.000
 -26478308.510 9 -20364379.76948  20430198.214    20430197.3794   20430203.3904
        -0.000          -0.000
 -17978997.314 9 -13986252.97947  21924269.634    21924269.3544   21924275.1864
        -0.000          -0.000
 97  3 10  2  9 59.9970000  0  6 30 24  4  5 10  6                  -0.002396404
 -30662877.087 9 -23609252.12249  19894198.678    19894198.8534   19894203.7244
        -0.000          -0.000
 -28745739.372 9 -21781225.31248  20935113.487    20935113.3034   20935119.1914
        -0.000          -0.000
 -14742769.585 8 -10073062.58045  23944473.113    23944473.1364   23944478.5814
        -0.000          -0.000
 -34484524.758 9 -25904205.51949  19684365.276    19684364.6984   19684370.1594
        -0.000          -0.000
 -26526664.102 9 -20402059.42248  20420996.416    20420995.5794   20421001.5924
        -0.000          -0.000
 -18062758.484 9 -14051521.38947  21908330.393    21908330.1494   21908335.9404
        -0.000          -0.000
 97  3 10  2 10 29.9970000  0  6 30 24  4  5 10  6                  -0.002407829
 -30713783.712 9 -23648919.60649  19884511.431    19884511.6094   19884516.4854
        -0.000          -0.000
 -28697645.047 9 -21743749.20448  20944265.533    20944265.3274   20944271.2044
        -0.000          -0.000
 -14666083.823 8 -10013307.46045  23959065.831    23959065.8264   23959071.2374
        -0.000          -0.000
 -34471494.236 9 -25894051.86649  19686844.876    19686844.3114   19686849.7644
        -0.000          -0.000
 -26574475.113 9 -20439314.72948  20411898.247    20411897.4184   20411903.4284
        -0.000          -0.000
 -18146505.850 9 -14116779.04347  21892393.726    21892393.5024   21892399.2634
        -0.000          -0.000
 97  3 10  2 10 59.9970000  0  6 30 24  4  5 10  6                  -0.002419250
 -30764160.704 9 -23688174.39149  19874925.005    19874925.1664   19874930.0414
        -0.000          -0.000
 -28649397.388 9 -21706153.61748  20953446.693    20953446.4914   20953452.3924
        -0.000          -0.000
 -14589458.418 8  -9953599.35145  23973647.038    23973647.0484   23973652.6544
        -0.000          -0.000
 -34457944.998 9 -25883494.02049  19689423.209    19689422.6364   19689428.0974
        -0.000          -0.000
 -26621734.824 9 -20476140.44648  20402905.018    20402904.1734   20402910.1814
        -0.000          -0.000
 -18230209.598 9 -14182002.70747  21876465.371    21876465.1684   21876470.9364
        -0.000          -0.000
 97  3 10  2 11 29.9970000  0  6 30 24  4  5 10  6                  -0.002430675
 -30813995.771 9 -23727006.89849  19865441.677    19865441.8514   19865446.7084
        -0.000          -0.000
 -28601013.140 9 -21668451.59448  20962653.950    20962653.7374   20962659.6034
        -0.000          -0.000
 -14512903.532 9  -9893946.17145  23988214.997    23988215.2244   23988220.7464
        -0.000          -0.000
 -34443887.351 9 -25872540.00649  19692098.261    19692097.7044   19692103.1874
        -0.000          -0.000
 -26668461.685 9 -20512550.96248  20394013.174    20394012.3294   20394018.3314
        -0.000          -0.000
 -18313877.328 9 -14247198.30547  21860543.924    21860543.7314   21860549.4904
        -0.000          -0.000
 97  3 10  2 11 59.9970000  0  6 30 24  4  5 10  6                  -0.002442115
 -30863286.611 9 -23765415.33049  19856061.921    19856062.0844   19856066.9584
        -0.000          -0.000
 -28552497.584 9 -21630647.25648  20971886.200    20971885.9554   20971891.8324
        -0.000          -0.000
 -14436431.846 9  -9834357.83345  24002767.236    24002767.4804   24002772.5474
        -0.000          -0.000
 -34429309.065 9 -25861180.29749  19694872.401    19694871.8444   19694877.3224
        -0.000          -0.000
 -26714643.640 9 -20548536.87248  20385225.063    20385224.2034   20385230.1844
        -0.000          -0.000
 -18397526.741 9 -14312379.63347  21844625.929    21844625.7504   21844631.4154
        -0.000          -0.000
 97  3 10  2 12 29.9970000  0  6 30 24  4  5 10  6                  -0.002453588
 -30912038.848 9 -23803404.07349  19846784.699    19846784.8474   19846789.7224
        -0.000          -0.000
 -28503853.360 9 -21592742.65748  20981142.854    20981142.6574   20981148.4954
        -0.000          -0.000
 -14360061.318 9  -9774848.32145  24017300.127    24017300.2894   24017305.2724
        -0.000          -0.000
 -34414214.803 9 -25849418.53249  19697744.737    19697744.1664   19697749.6604
        -0.000          -0.000
 -26760281.100 9 -20584098.50048  20376540.526    20376539.6554   20376545.6254
        -0.000          -0.000
 -18481173.387 9 -14377558.80147  21828708.479    21828708.3104   21828713.9704
        -0.000          -0.000
 97  3 10  2 12 59.9970000  0  6 30 24  4  5 10  6                  -0.002465101
 -30960256.548 9 -23840976.29549  19837609.146    19837609.2994   19837614.1754
        -0.000          -0.000
 -28455078.388 9 -21554736.17248  20990424.422    20990424.1924   20990430.0394
        -0.000          -0.000
 -14283785.349 9  -9715412.49645  24031815.021    24031815.3114   24031820.1284
        -0.000          -0.000
 -34398606.458 9 -25837256.18349  19700714.909    19700714.3394   19700719.8394
        -0.000          -0.000
 -26805372.256 9 -20619234.43748  20367959.909    20367959.0654   20367965.0224
        -0.000          -0.000
 -18564829.972 9 -14442745.70847  21812789.114    21812788.9704   21812794.6874
        -0.000          -0.000
 97  3 10  2 13 29.9970000  0  6 30 24  4  5 10  6                  -0.002476644
 -31007927.984 9 -23878122.85649  19828537.590    19828537.7394   19828542.6114
        -0.000          -0.000
 -28406140.865 9 -21516603.03448  20999736.941    20999736.7054   20999742.5304
        -0.000          -0.000
 -14207583.702 9  -9656034.56745  24046315.761    24046315.9534   24046320.7864
        -0.000          -0.000
 -34382455.961 9 -25824671.37849  19703788.221    19703787.6624   19703793.1754
        -0.000          -0.000
 -26849884.100 9 -20653918.95148  20359489.584    20359488.6994   20359494.6764
        -0.000          -0.000
 -18648478.078 9 -14507926.02147  21796871.428    21796871.2304   21796876.9054
        -0.000          -0.000
 97  3 10  2 13 59.9970000  0  6 30 24  4  5 10  6                  -0.002488223
 -31055090.942 9 -23914873.20249  19819562.774    19819562.9124   19819567.7754
        -0.000          -0.000
 -28357053.710 9 -21478353.28648  21009077.861    21009077.6484   21009083.4784
        -0.000          -0.000
 -14131473.603 8  -9596727.98445  24060799.044    24060799.1154   24060804.0134
        -0.000          -0.000
 -34365790.333 9 -25811685.17449  19706959.591    19706959.0164   19706964.5354
        -0.000          -0.000
 -26893828.511 9 -20688161.31548  20351127.212    20351126.3384   20351132.3054
        -0.000          -0.000
 -18732126.036 9 -14573106.20547  21780953.783    21780953.5104   21780959.1794
        -0.000          -0.000
 97  3 10  2 14 29.9970000  0  5 30 24  5 10  6                     -0.002500629
 -31101765.966 9 -23951243.33849  19810680.792    19810680.9414   19810685.7834
        -0.000          -0.000
 -28307834.837 9 -21440000.90748  21018443.850    21018443.6644   21018449.5084
        -0.000          -0.000
 -34348638.614 9 -25798320.19649  19710223.452    19710222.8774   19710228.4054
        -0.000          -0.000
 -26937227.578 9 -20721978.73348  20342868.602    20342867.7364   20342873.6904
        -0.000          -0.000
 -18815779.966 9 -14638291.04247  21765034.926    21765034.6904   21765040.3014
        -0.000          -0.000
 97  3 10  2 14 59.9970000  0  5 30 24  5 10  6                     -0.002512306
 -31147952.565 9 -23987232.88349  19801891.761    19801891.9064   19801896.7594
        -0.000          -0.000
 -28258498.448 9 -21401556.95648  21027832.298    21027832.0854   21027837.9234
        -0.000          -0.000
 -34331003.046 9 -25784578.19449  19713579.366    19713578.7934   19713584.3254
        -0.000          -0.000
 -26980081.391 9 -20755371.28448  20334713.737    20334712.8814   20334718.8414
        -0.000          -0.000
 -18899417.970 9 -14703463.47947  21749119.167    21749118.9294   21749124.4864
        -0.000          -0.000
 97  3 10  2 15 29.9970000  0  6 30 24  5 17 10  6                  -0.002523060
 -31193643.315 9 -24022836.05449  19793197.110    19793197.2654   19793202.1104
        -0.000          -0.000
 -28209037.278 9 -21363015.77148  21037244.446    21037244.2094   21037250.0594
        -0.000          -0.000
 -34312882.661 9 -25770458.41649  19717027.578    19717027.0164   19717032.5314
        -0.000          -0.000
  -2061671.27718   -782881.70155  24207128.798    24207127.8845   24207135.6385
        -0.000          -0.000
 -27022377.324 9 -20788329.12448  20326665.072    20326664.2334   20326670.1764
        -0.000          -0.000
 -18983006.563 9 -14768597.40947  21733212.723    21733212.5104   21733218.0114
        -0.000          -0.000
 97  3 10  2 15 59.9970000  0  6 30 24  5 17 10  6                  -0.002534688
 -31238840.799 9 -24058054.86049  19784596.318    19784596.4694   19784601.3124
        -0.000          -0.000
 -28159473.492 9 -21324394.62848  21046676.093    21046675.8704   21046681.7204
        -0.000          -0.000
 -34294287.226 9 -25755968.47549  19720566.184    19720565.6164   19720571.1174
        -0.000          -0.000
  -2172272.716 8   -869064.53945  24186081.942    24186081.2344   24186088.6334
        -0.000          -0.000
 -27064127.407 9 -20820861.62448  20318720.293    20318719.4434   20318725.3524
        -0.000          -0.000
 -19066568.689 9 -14833710.71747  21717311.339    21717311.1484   21717316.6664
        -0.000          -0.000
 97  3 10  2 16 29.9970000  0  6 30 24  5 17 10  6                  -0.002546351
 -31283506.074 9 -24092858.96249  19776096.774    19776096.9134   19776101.7444
        -0.000          -0.000
 -28109787.603 9 -21285678.33848  21056130.975    21056130.7644   21056136.6324
        -0.000          -0.000
 -34275184.891 9 -25741083.54249  19724201.270    19724200.7004   19724206.2004
        -0.000          -0.000
  -2282793.916 9   -955184.84345  24165050.426    24165049.6234   24165057.0534
        -0.000          -0.000
 -27105312.828 9 -20852954.12548  20310882.965    20310882.0794   20310887.9844
        -0.000          -0.000
 -19150098.747 9 -14898799.04347  21701416.018    21701415.8434   21701421.3724
        -0.000          -0.000
 97  3 10  2 16 59.9970000  0  6 30 24  5 17 10  6                  -0.002558054
 -31327638.927 9 -24127248.18549  19767698.563    19767698.6974   19767703.5264
        -0.000          -0.000
 -28059982.819 9 -21246869.40548  21065608.524    21065608.3034   21065614.1604
        -0.000          -0.000
 -34255586.058 9 -25725811.73049  19727930.788    19727930.2084   19727935.7054
        -0.000          -0.000
  -2393237.795 8  -1041244.91845  24144033.786    24144033.0634   24144040.2834
        -0.000          -0.000
 -27145945.337 9 -20884615.78648  20303150.788    20303149.9324   20303155.8274
        -0.000          -0.000
 -19233608.966 9 -14963871.90347  21685524.530    21685524.3444   21685529.8604
        -0.000          -0.000
 97  3 10  2 17 29.9970000  0  6 30 24  5 17 10  6                  -0.002569781
 -31371230.150 9 -24161215.36349  19759403.429    19759403.5804   19759408.3904
        -0.000          -0.000
 -28010035.674 9 -21207949.54448  21075113.119    21075112.8934   21075118.7464
        -0.000          -0.000
 -34235474.579 9 -25710140.45549  19731757.861    19731757.2994   19731762.7944
        -0.000          -0.000
  -2503584.096 9  -1127228.93345  24123035.458    24123034.7104   24123042.1744
        -0.000          -0.000
 -27186007.108 9 -20915832.72048  20295527.245    20295526.3804   20295532.2854
        -0.000          -0.000
 -19317110.477 9 -15028937.97547  21669634.666    21669634.4844   21669640.0134
        -0.000          -0.000
 97  3 10  2 17 59.9970000  0  6 30 24  5 17 10  6                  -0.002581528
 -31414285.889 9 -24194765.28049  19751210.203    19751210.3424   19751215.1574
        -0.000          -0.000
 -27959960.760 9 -21168930.11748  21084642.045    21084641.8164   21084647.6954
        -0.000          -0.000
 -34214856.486 9 -25694074.41149  19735681.384    19735680.8224   19735686.3094
        -0.000          -0.000
  -2613816.213 8  -1213124.01945  24102058.883    24102058.2024   24102065.6244
        -0.000          -0.000
 -27225517.804 9 -20946620.24048  20288008.587    20288007.7254   20288013.6154
        -0.000          -0.000
 -19400614.994 9 -15094006.40447  21653744.237    21653744.0654   21653749.5954
        -0.000          -0.000
 97  3 10  2 18 29.9970000  0  6 30 24  5 17 10  6                  -0.002593266
 -31456792.768 9 -24227887.51349  19743121.378    19743121.5114   19743126.3384
        -0.000          -0.000
 -27909738.838 9 -21129796.14448  21094198.915    21094198.6804   21094204.5624
        -0.000          -0.000
 -34193734.643 9 -25677615.83449  19739700.732    19739700.1604   19739705.6564
        -0.000          -0.000
  -2723895.434 8  -1298899.94845  24081111.510    24081110.8144   24081118.0814
        -0.000          -0.000
 -27264481.898 9 -20976981.84048  20280593.954    20280593.0984   20280598.9794
        -0.000          -0.000
 -19484088.350 9 -15159050.54047  21637859.745    21637859.5914   21637865.1424
        -0.000          -0.000
 97  3 10  2 18 59.9970000  0  6 30 24  5 17 10  6                  -0.002604980
 -31498752.341 9 -24260583.27549  19735136.707    19735136.8494   19735141.6714
        -0.000          -0.000
 -27859358.976 9 -21090539.09848  21103785.855    21103785.6234   21103791.5064
        -0.000          -0.000
 -34172106.182 9 -25660762.48449  19743816.499    19743815.9414   19743821.4434
        -0.000          -0.000
  -2833811.917 8  -1384549.06245  24060194.978    24060194.3054   24060201.4834
        -0.000          -0.000
 -27302888.851 9 -21006909.30648  20273285.343    20273284.4774   20273290.3334
        -0.000          -0.000
 -19567504.230 9 -15224049.89547  21621986.198    21621986.0514   21621991.5794
        -0.000          -0.000
 97  3 10  2 19 29.9970000  0  6 30 24  5 17 10  6                  -0.002616688
 -31540164.029 9 -24292852.11349  19727256.325    19727256.4754   19727261.2744
        -0.000          -0.000
 -27808835.776 9 -21051170.35548  21113400.081    21113399.8674   21113405.7524
        -0.000          -0.000
 -34149972.917 9 -25643515.76949  19748028.333    19748027.7554   19748033.2394
        -0.000          -0.000
  -2943581.649 8  -1470083.82445  24039306.326    24039305.7654   24039312.7574
        -0.000          -0.000
 -27340742.345 9 -21036405.50148  20266082.065    20266081.1744   20266087.0314
        -0.000          -0.000
 -19650865.698 9 -15289006.85347  21606123.060    21606122.8634   21606128.3794
        -0.000          -0.000
 97  3 10  2 19 59.9970000  0  6 30 24  5 17 10  6                  -0.002628412
 -31581036.345 9 -24324700.66349  19719478.604    19719478.7494   19719483.5154
        -0.000          -0.000
 -27758204.679 9 -21011717.54148  21123034.866    21123034.6384   21123040.4864
        -0.000          -0.000
 -34127363.888 9 -25625898.33749  19752330.689    19752330.1064   19752335.5954
        -0.000          -0.000
  -3053228.976 8  -1555523.22245  24018441.010    24018440.5704   24018447.4564
        -0.000          -0.000
 -27378065.933 9 -21065488.78848  20258979.591    20258978.7114   20258984.5514
        -0.000          -0.000
 -19734181.842 9 -15353928.48847  21590268.548    21590268.3384   21590273.8204
        -0.000          -0.000
 97  3 10  2 20 29.9970000  0  6 30 24  5 17 10  6                  -0.002640158
 -31621359.406 9 -24356121.22549  19711805.414    19711805.5714   19711810.2984
        -0.000          -0.000
 -27707462.924 9 -20972178.50348  21132690.704    21132690.4634   21132696.3024
        -0.000          -0.000
 -34104260.411 9 -25607895.62849  19756727.134    19756726.5534   19756732.0244
        -0.000          -0.000
  -3162754.860 8  -1640867.99845  23997598.788    23997598.3594   23997605.3174
        -0.000          -0.000
 -27414832.427 9 -21094137.97748  20251983.159    20251982.2854   20251988.1144
        -0.000          -0.000
 -19817459.350 9 -15418820.02947  21574421.353    21574421.1294   21574426.5784
        -0.000          -0.000
 97  3 10  2 20 59.9970000  0  6 30 24  5 17 10  6                  -0.002651933
 -31661122.777 9 -24387105.66349  19704238.682    19704238.8394   19704243.5604
        -0.000          -0.000
 -27656624.172 9 -20932563.87848  21142365.067    21142364.7864   21142370.5944
        -0.000          -0.000
 -34080641.635 9 -25589491.38649  19761221.653    19761221.0624   19761226.5384
        -0.000          -0.000
  -3272155.592 9  -1726115.24245  23976780.372    23976779.9414   23976787.0564
        -0.000          -0.000
 -27451017.685 9 -21122334.25648  20245097.279    20245096.4214   20245102.2494
        -0.000          -0.000
 -19900699.492 9 -15483682.44747  21558581.247    21558580.9754   21558586.4674
        -0.000          -0.000
 97  3 10  2 21 29.9970000  0  6 30 24  5 17 10  6                  -0.002663749
 -31700328.613 9 -24417655.66149  19696778.055    19696778.2044   19696782.9334
        -0.000          -0.000
 -27605709.552 9 -20892890.13448  21152053.751    21152053.5184   21152059.2974
        -0.000          -0.000
 -34056520.963 9 -25570696.06049  19765811.620    19765811.0344   19765816.4994
        -0.000          -0.000
  -3381435.845 9  -1811268.62345  23955985.016    23955984.4574   23955991.6074
        -0.000          -0.000
 -27486636.352 9 -21150089.04048  20238319.258    20238318.3944   20238324.2034
        -0.000          -0.000
 -19983916.899 9 -15548527.14347  21542745.483    21542745.2384   21542750.6924
        -0.000          -0.000
 97  3 10  2 21 59.9970000  0  6 30 24  5 17 10  6                  -0.002675603
 -31738973.457 9 -24447768.52049  19689424.187    19689424.3454   19689429.0744
        -0.000          -0.000
 -27554720.712 9 -20853158.56048  21161756.646    21161756.4114   21161762.1834
        -0.000          -0.000
 -34031887.867 9 -25551501.43849  19770499.123    19770498.5394   19770504.0304
        -0.000          -0.000
  -3490580.378 9  -1896316.24445  23935215.531    23935214.9854   23935221.9484
        -0.000          -0.000
 -27521692.628 9 -21177405.59348  20231648.246    20231647.3724   20231653.1834
        -0.000          -0.000
 -20067111.470 9 -15613354.05547  21526914.037    21526913.8484   21526919.2734
        -0.000          -0.000
 97  3 10  2 22 29.9970000  0  6 30 24  5 17 10  6                  -0.002687490
 -31777047.119 9 -24477436.30249  19682178.992    19682179.1514   19682183.8674
        -0.000          -0.000
 -27503637.332 9 -20813353.32148  21171477.459    21171477.2414   21171482.9964
        -0.000          -0.000
 -34006730.599 9 -25531898.37349  19775286.398    19775285.8154   19775291.3044
        -0.000          -0.000
  -3599586.655 9  -1981256.14045  23914472.401    23914471.7664   23914478.8514
        -0.000          -0.000
 -27556183.209 9 -21204281.34948  20225084.902    20225084.0264   20225089.8324
        -0.000          -0.000
 -20150273.468 9 -15678155.58647  21511088.849    21511088.6534   21511094.0354
        -0.000          -0.000
 97  3 10  2 22 59.9970000  0  6 30 24  5 17 10  6                  -0.002699405
 -31814547.282 9 -24506657.20549  19675042.921    19675043.0714   19675047.7814
        -0.000          -0.000
 -27452447.445 9 -20773465.08248  21181218.502    21181218.3284   21181224.0974
        -0.000          -0.000
 -33981059.829 9 -25511895.17649  19780171.379    19780170.8034   19780176.2944
        -0.000          -0.000
  -3708461.235 8  -2066093.40745  23893754.232    23893753.6294   23893760.5934
        -0.000          -0.000
 -27590107.330 9 -21230715.69948  20218629.331    20218628.4654   20218634.2574
        -0.000          -0.000
 -20233394.200 9 -15742924.96047  21495271.433    21495271.2444   21495276.6704
        -0.000          -0.000
 97  3 10  2 23 29.9970000  0  6 30 24  5 17 10  6                  -0.002711347
 -31851504.060 9 -24535454.68549  19668010.257    19668010.4104   19668015.1314
        -0.000          -0.000
 -27401157.990 9 -20733499.26448  21190978.525    21190978.3614   21190984.1504
        -0.000          -0.000
 -33954906.753 9 -25491516.16049  19785148.122    19785147.5274   19785153.0524
        -0.000          -0.000
  -3817226.448 8  -2150845.46245  23873056.874    23873056.2774   23873063.1824
        -0.000          -0.000
 -27623480.989 9 -21256721.11548  20212278.494    20212277.6214   20212283.4124
        -0.000          -0.000
 -20316498.444 9 -15807681.50047  21479457.178    21479457.0114   21479462.3924
        -0.000          -0.000
 97  3 10  2 23 59.9970000  0  6 30 24  5 17 10  6                  -0.002723287
 -31887898.505 9 -24563813.98549  19661084.633    19661084.7944   19661089.5274
        -0.000          -0.000
 -27349730.591 9 -20693425.95548  21200764.815    21200764.6664   21200770.4604
        -0.000          -0.000
 -33928239.376 9 -25470736.39249  19790222.746    19790222.1644   19790227.6964
        -0.000          -0.000
  -3925853.220 8  -2235489.64445  23852385.845    23852385.2974   23852392.2554
        -0.000          -0.000
 -27656262.280 9 -21282264.94848  20206040.406    20206039.5304   20206045.3084
        -0.000          -0.000
 -20399562.835 9 -15872406.96647  21463650.477    21463650.3244   21463655.7424
        -0.000          -0.000
 97  3 10  2 24 29.9970000  0  6 30 24  5 17 10  6                  -0.002735216
 -31923744.589 9 -24591745.99549  19654263.354    19654263.5174   19654268.2304
        -0.000          -0.000
 -27298160.573 9 -20653241.51748  21210578.202    21210578.0624   21210583.8734
        -0.000          -0.000
 -33901069.487 9 -25449565.06249  19795392.998    19795392.4254   19795397.9614
        -0.000          -0.000
  -4034353.714 8  -2320035.43845  23831738.845    23831738.2424   23831745.2394
        -0.000          -0.000
 -27688432.345 9 -21307332.51048  20199918.629    20199917.7484   20199923.5294
        -0.000          -0.000
 -20482582.808 9 -15937097.83047  21447852.293    21447852.1514   21447857.5454
        -0.000          -0.000
 97  3 10  2 24 59.9970000  0  6 30 24  5 17 10  6                  -0.002747121
 -31959043.148 9 -24619251.36249  19647546.256    19647546.4074   19647551.1114
        -0.000          -0.000
 -27246453.166 9 -20612950.01648  21220417.765    21220417.6114   21220423.4374
        -0.000          -0.000
 -33873388.910 9 -25427995.79349  19800660.408    19800659.8284   19800665.3964
        -0.000          -0.000
  -4142707.743 8  -2404467.09545  23811119.619    23811119.2254   23811126.0954
        -0.000          -0.000
 -27719971.169 9 -21331908.18848  20193916.948    20193916.0734   20193921.8464
        -0.000          -0.000
 -20565549.032 9 -16001746.81747  21432064.329    21432064.1914   21432069.5774
        -0.000          -0.000
 97  3 10  2 25 29.9970000  0  6 30 24  5 17 10  6                  -0.002759006
 -31993784.128 9 -24646322.25249  19640935.246    19640935.4134   19640940.1104
        -0.000          -0.000
 -27194614.673 9 -20572556.38348  21230282.362    21230282.1814   21230287.9874
        -0.000          -0.000
 -33845199.902 9 -25406030.34249  19806024.592    19806024.0354   19806029.6004
        -0.000          -0.000
  -4250906.173 8  -2488777.50845  23790529.940    23790529.4204   23790536.4114
        -0.000          -0.000
 -27750892.813 9 -21356002.94848  20188032.722    20188031.8764   20188037.6344
        -0.000          -0.000
 -20648471.927 9 -16066362.03147  21416284.608    21416284.4854   21416289.8824
        -0.000          -0.000
 97  3 10  2 25 59.9970000  0  6 30 24  5 17 10  6                  -0.002770897
 -32027967.499 9 -24672958.64249  19634430.350    19634430.5074   19634435.2164
        -0.000          -0.000
 -27142672.245 9 -20532081.75048  21240166.681    21240166.4994   21240172.3034
        -0.000          -0.000
 -33816520.902 9 -25383683.07649  19811482.017    19811481.4674   19811487.0474
        -0.000          -0.000
  -4358968.361 9  -2572981.75845  23769966.249    23769965.8454   23769972.8404
        -0.000          -0.000
 -27781224.082 9 -21379637.67948  20182260.851    20182260.0024   20182265.7554
        -0.000          -0.000
 -20731362.199 9 -16130951.83547  21400511.110    21400510.9554   21400516.3874
        -0.000          -0.000
 97  3 10  2 26 29.9970000  0  6 30 24  5 17 10  6                  -0.002782816
 -32061576.567 9 -24699147.52549  19628034.751    19628034.9144   19628039.6004
        -0.000          -0.000
 -27090649.076 9 -20491544.20948  21250066.298    21250066.1054   21250071.9264
        -0.000          -0.000
 -33787366.256 9 -25360965.17749  19817029.934    19817029.4064   19817034.9744
        -0.000          -0.000
  -4466902.026 9  -2657085.85745  23749427.259    23749426.8834   23749433.8304
        -0.000          -0.000
 -27810981.922 9 -21402825.58048  20176598.084    20176597.2424   20176603.0104
        -0.000          -0.000
 -20814225.058 9 -16195520.27647  21384742.769    21384742.6114   21384748.0404
        -0.000          -0.000
 97  3 10  2 26 59.9970000  0  6 30 24  5 17 10  6                  -0.002794755
 -32094583.056 9 -24724866.86449  19621753.848    19621754.0224   19621758.7014
        -0.000          -0.000
 -27038529.707 9 -20450931.70748  21259984.315    21259984.0994   21259989.9494
        -0.000          -0.000
 -33757723.834 9 -25337867.19549  19822670.744    19822670.1914   19822675.7674
        -0.000          -0.000
  -4574680.588 9  -2741069.10945  23728917.659    23728917.2624   23728924.2254
        -0.000          -0.000
 -27840166.274 9 -21425566.61748  20171044.485    20171043.6474   20171049.3984
        -0.000          -0.000
 -20897049.861 9 -16260059.06347  21368981.771    21368981.5724   21368987.0274
        -0.000          -0.000
 97  3 10  2 27 29.9970000  0  6 30 24  5 17 10  6                  -0.002806736
 -32126991.694 9 -24750120.34749  19615586.687    19615586.8524   19615591.5334
        -0.000          -0.000
 -26986331.716 9 -20410257.93848  21269917.260    21269917.0334   21269922.8494
        -0.000          -0.000
 -33727615.789 9 -25314406.38949  19828400.078    19828399.5254   19828405.1114
        -0.000          -0.000
  -4682327.865 9  -2824950.05545  23708433.040    23708432.5344   23708439.5804
        -0.000          -0.000
 -27868802.615 9 -21447880.62648  20165595.140    20165594.2904   20165600.0284
        -0.000          -0.000
 -20979848.942 9 -16324577.79847  21353225.545    21353225.3604   21353230.7984
        -0.000          -0.000
 97  3 10  2 27 59.9970000  0  6 30 24  5 17 10  6                  -0.002818760
 -32158820.141 9 -24774921.73449  19609529.941    19609530.1054   19609534.7934
        -0.000          -0.000
 -26934063.589 9 -20369529.51648  21279863.530    21279863.3374   21279869.1484
        -0.000          -0.000
 -33697046.130 9 -25290585.88049  19834217.300    19834216.7674   19834222.3484
        -0.000          -0.000
  -4789852.741 9  -2908735.64345  23687971.685    23687971.1384   23687978.2044
        -0.000          -0.000
 -27896890.584 9 -21469767.32948  20160250.135    20160249.2904   20160255.0394
        -0.000          -0.000
 -21062604.589 9 -16389062.70847  21337477.695    21337477.5224   21337482.9104
        -0.000          -0.000
 97  3 10  2 28 29.9970000  0  6 30 24  5 17 10  6                  -0.002830805
 -32190069.069 9 -24799271.54649  19603583.438    19603583.6024   19603588.2904
        -0.000          -0.000
 -26881702.946 9 -20328729.00348  21289827.443    21289827.2104   21289833.0544
        -0.000          -0.000
 -33666003.222 9 -25266396.60949  19840124.566    19840124.0184   19840129.6034
        -0.000          -0.000
  -4897238.851 9  -2992413.09145  23667536.771    23667536.1074   23667543.2644
        -0.000          -0.000
 -27924412.901 9 -21491213.26248  20155012.809    20155011.9664   20155017.7114
        -0.000          -0.000
 -21145298.032 9 -16453499.12547  21321741.585    21321741.3964   21321746.8514
        -0.000          -0.000
 97  3 10  2 28 59.9970000  0  6 30 24  5 17 10  6                  -0.002842849
 -32220755.948 9 -24823183.39649  19597743.919    19597744.0944   19597748.7864
        -0.000          -0.000
 -26829231.729 9 -20287842.33448  21299812.360    21299812.1374   21299817.9584
        -0.000          -0.000
 -33634473.400 9 -25241827.92249  19846124.525    19846123.9744   19846129.5374
        -0.000          -0.000
  -5004479.456 8  -3075977.15445  23647129.573    23647128.9634   23647135.9844
        -0.000          -0.000
 -27951359.780 9 -21512210.81248  20149885.005    20149884.1364   20149889.8794
        -0.000          -0.000
 -21227916.633 9 -16517877.24848  21306019.782    21306019.6094   21306025.0334
        -0.000          -0.000
 97  3 10  2 29 29.9970000  0  6 30 24  5 17 10  6                  -0.002854895
 -32250880.262 9 -24846656.88749  19592011.438    19592011.6324   19592016.3174
        -0.000          -0.000
 -26776650.951 9 -20246870.28848  21309818.120    21309817.9204   21309823.7244
        -0.000          -0.000
 -33602441.736 9 -25216868.19249  19852219.965    19852219.4244   19852224.9754
        -0.000          -0.000
  -5111571.060 8  -3159425.12145  23626750.608    23626750.0514   23626757.1354
        -0.000          -0.000
 -27977722.521 9 -21532753.18548  20144868.293    20144867.4284   20144873.1814
        -0.000          -0.000
 -21310456.280 9 -16582193.82648  21290312.989    21290312.8034   21290318.2214
        -0.000          -0.000
 97  3 10  2 29 59.9970000  0  6 30 24  5 17 10  6                  -0.002866928
 -32280467.964 9 -24869712.24049  19586381.109    19586381.2804   19586385.9584
        -0.000          -0.000
 -26723963.202 9 -20205814.89448  21319844.305    21319844.0794   21319849.8674
        -0.000          -0.000
 -33569920.489 9 -25191526.97249  19858408.566    19858408.0204   19858413.5504
        -0.000          -0.000
  -5218514.435 8  -3242757.59045  23606399.994    23606399.3804   23606406.5224
        -0.000          -0.000
 -28003508.052 9 -21552845.79148  20139961.467    20139960.6054   20139966.3454
        -0.000          -0.000
 -21392937.238 9 -16646464.68248  21274617.326    21274617.1794   21274622.6254
        -0.000          -0.000
 97  3 10  2 30 29.9970000  0  6 30 24  5 17 10  6                  -0.002878930
 -32309492.433 9 -24892328.70349  19580857.929    19580858.1044   19580862.7984
        -0.000          -0.000
 -26671146.797 9 -20164659.24948  21329894.888    21329894.6614   21329900.4824
        -0.000          -0.000
 -33536895.409 9 -25165793.14749  19864693.048    19864692.5004   19864698.0444
        -0.000          -0.000
  -5325281.859 8  -3325952.94745  23586082.732    23586082.0554   23586089.2524
        -0.000          -0.000
 -28028689.335 9 -21572467.55248  20135169.610    20135168.7534   20135174.4644
        -0.000          -0.000
 -21475355.334 9 -16710686.54948  21258933.662    21258933.4874   21258938.9204
        -0.000          -0.000
 97  3 10  2 30 59.9970000  0  6 30 24  5 17 10  6                  -0.002890911
 -32337943.808 9 -24914498.60249  19575443.786    19575443.9524   19575448.6574
        -0.000          -0.000
 -26618216.247 9 -20123414.65847  21339967.212    21339967.0094   21339972.8524
        -0.000          -0.000
 -33503363.451 9 -25139664.35549  19871073.971    19871073.4124   19871078.9504
        -0.000          -0.000
  -5431874.631 8  -3409012.22045  23565798.774    23565798.0674   23565805.2394
        -0.000          -0.000
 -28053262.066 9 -21591615.11648  20130493.564    20130492.7004   20130498.4204
        -0.000          -0.000
 -21557714.041 9 -16774862.14348  21243261.209    21243261.0864   21243266.5364
        -0.000          -0.000
 97  3 10  2 31 29.9970000  0  6 30 24  5 17 10  6                  -0.002902887
 -32365798.671 9 -24936203.69049  19570143.182    19570143.3424   19570148.0294
        -0.000          -0.000
 -26565186.718 9 -20082092.94247  21350058.391    21350058.2024   21350064.0194
        -0.000          -0.000
 -33469339.053 9 -25113151.84749  19877548.643    19877548.0704   19877553.6224
        -0.000          -0.000
  -5538291.065 9  -3491934.06645  23545548.227    23545547.6674   23545554.8314
        -0.000          -0.000
 -28077228.825 9 -21610290.49448  20125932.853    20125931.9874   20125937.6774
        -0.000          -0.000
 -21640004.208 9 -16838984.33048  21227601.983    21227601.8274   21227607.2594
        -0.000          -0.000
 97  3 10  2 31 59.9970000  0  6 30 24  5 17 10  6                  -0.002914877
 -32393072.038 9 -24957455.66349  19564953.217    19564953.3754   19564958.0494
        -0.000          -0.000
 -26512086.815 9 -20040716.38547  21360162.927    21360162.7574   21360168.5814
        -0.000          -0.000
 -33434861.027 9 -25086285.86249  19884109.561    19884109.0184   19884114.5634
        -0.000          -0.000
  -5644556.935 9  -3574738.62745  23525326.495    23525325.9764   23525332.9384
        -0.000          -0.000
 -28100611.584 9 -21628510.80248  20121483.247    20121482.3684   20121488.0504
        -0.000          -0.000
 -21722240.337 9 -16903064.40348  21211952.928    21211952.7814   21211958.2044
        -0.000          -0.000
 97  3 10  2 32 29.9970000  0  6 30 24  5 17 10  6                  -0.002926914
 -32419754.666 9 -24978247.31949  19559875.688    19559875.8404   19559880.5254
        -0.000          -0.000
 -26458941.286 9 -19999304.28347  21370276.201    21370275.9964   21370281.8234
        -0.000          -0.000
 -33399920.185 9 -25059059.24249  19890758.612    19890758.0454   19890763.6084
        -0.000          -0.000
  -5750689.919 9  -3657439.60745  23505130.035    23505129.3784   23505136.3444
        -0.000          -0.000
 -28123417.005 9 -21646281.23848  20117143.488    20117142.6224   20117148.3154
        -0.000          -0.000
 -21804417.865 9 -16967098.81948  21196315.082    21196314.9274   21196320.3274
        -0.000          -0.000
 97  3 10  2 32 59.9970000  0  6 30 24  5 17 10  6                  -0.002939011
 -32445831.938 9 -24998567.27149  19554913.345    19554913.5154   19554918.2134
        -0.000          -0.000
 -26405753.859 9 -19957859.52347  21380397.452    21380397.2294   21380403.0554
        -0.000          -0.000
 -33364501.003 9 -25031459.88949  19897498.676    19897498.0994   19897503.6544
        -0.000          -0.000
  -5856690.952 9  -3740037.80145  23484958.736    23484958.0734   23484964.9404
        -0.000          -0.000
 -28145644.918 9 -21663601.66648  20112913.590    20112912.7204   20112918.4054
        -0.000          -0.000
 -21886524.595 9 -17031078.06048  21180690.658    21180690.5034   21180695.9674
        -0.000          -0.000
 97  3 10  2 33 29.9970000  0  6 30 24  5 17 10  6                  -0.002951153
 -32471314.824 9 -25018424.06349  19550064.091    19550064.2524   19550068.9534
        -0.000          -0.000
 -26352514.778 9 -19916374.52447  21390528.521    21390528.3154   21390534.1174
        -0.000          -0.000
 -33328602.764 9 -25003487.24049  19904329.924    19904329.3594   19904334.8844
        -0.000          -0.000
  -5962552.699 9  -3822527.42745  23464813.913    23464813.2484   23464820.1394
        -0.000          -0.000
 -28167303.975 9 -21680478.83248  20108791.988    20108791.1444   20108796.8054
        -0.000          -0.000
 -21968565.532 9 -17095006.05348  21165078.828    21165078.6814   21165084.0734
        -0.000          -0.000
 97  3 10  2 33 59.9970000  0  6 30 24  5 17 10  6                  -0.002963322
 -32496222.404 9 -25037832.56949  19545324.334    19545324.4934   19545329.2084
        -0.000          -0.000
 -26299206.207 9 -19874835.36547  21400672.823    21400672.6134   21400678.4034
        -0.000          -0.000
 -33292211.656 9 -24975130.53449  19911254.934    19911254.3554   19911259.8624
        -0.000          -0.000
  -6068276.732 9  -3904909.76345  23444695.367    23444694.6664   23444701.4114
        -0.000          -0.000
 -28188379.308 9 -21696901.15248  20104781.528    20104780.6604   20104786.3204
        -0.000          -0.000
 -22050546.549 9 -17158887.34148  21149478.344    21149478.1214   21149483.5614
        -0.000          -0.000
 97  3 10  2 34 29.9970000  0  6 30 24  5 17 10  6                  -0.002975517
 -32520579.981 9 -25056812.49949  19540689.268    19540689.4324   19540694.1354
        -0.000          -0.000
 -26245837.838 9 -19833249.61547  21410828.457    21410828.2924   21410834.0784
        -0.000          -0.000
 -33255333.922 9 -24946394.64249  19918272.568    19918271.9874   19918277.4754
        -0.000          -0.000
  -6173872.493 9  -3987192.13245  23424601.140    23424600.5864   23424607.1244
        -0.000          -0.000
 -28208879.707 9 -21712875.47248  20100880.396    20100879.5414   20100885.2154
        -0.000          -0.000
 -22132483.067 9 -17222733.95748  21133886.328    21133886.1354   21133891.5554
        -0.000          -0.000
 97  3 10  2 34 59.9970000  0  6 30 24  5 17 10  6                  -0.002987713
 -32544389.485 9 -25075365.35949  19536158.496    19536158.6594   19536163.3504
        -0.000          -0.000
 -26192392.522 9 -19791603.90547  21420998.765    21420998.5814   21421004.3584
        -0.000          -0.000
 -33217984.455 9 -24917291.16849  19925379.931    19925379.3274   19925384.8594
        -0.000          -0.000
  -6279324.896 9  -4069362.81145  23404534.178    23404533.6984   23404540.1754
        -0.000          -0.000
 -28228793.887 9 -21728392.99748  20097090.825    20097089.9744   20097095.6424
        -0.000          -0.000
 -22214365.117 9 -17286538.13548  21118304.696    21118304.4924   21118309.8794
        -0.000          -0.000
 97  3 10  2 35 29.9970000  0  6 30 24  5 17 10  6                  -0.002999881
 -32567653.126 9 -25093492.87249  19531731.536    19531731.6944   19531736.3984
        -0.000          -0.000
 -26138845.797 9 -19749879.17847  21431188.328    21431188.1874   21431193.9504
        -0.000          -0.000
 -33180156.108 9 -24887814.54749  19932578.403    19932577.8244   19932583.3534
        -0.000          -0.000
  -6384613.588 9  -4151405.90845  23384498.428    23384497.8494   23384504.4194
        -0.000          -0.000
 -28248098.841 9 -21743435.79748  20093417.200    20093416.3474   20093422.0294
        -0.000          -0.000
 -22296176.086 9 -17350286.92148  21102736.566    21102736.3804   21102741.7624
        -0.000          -0.000
 97  3 10  2 35 59.9970000  0  6 30 24  5 17 10  6                  -0.003012036
 -32590365.997 9 -25111191.21649  19527409.398    19527409.5564   19527414.2744
        -0.000          -0.000
 -26085208.254 9 -19708083.68147  21441395.193    21441395.0514   21441400.7914
        -0.000          -0.000
 -33141871.336 9 -24857982.26649  19939863.748    19939863.1804   19939868.7114
        -0.000          -0.000
  -6489754.107 9  -4233333.55645  23364490.861    23364490.2604   23364496.8454
        -0.000          -0.000
 -28266795.029 9 -21758004.23948  20089859.442    20089858.5804   20089864.2714
        -0.000          -0.000
 -22377922.185 9 -17413985.16048  21087180.837    21087180.6094   21087185.9664
        -0.000          -0.000
 97  3 10  2 36 29.9960000  0  6 30 24  5 17 10  6                  -0.003024171
 -32612497.385 9 -25128436.45649  19523197.953    19523198.1114   19523202.8324
        -0.000          -0.000
 -26031475.985 9 -19666214.36547  21451620.092    21451619.9324   21451625.6654
        -0.000          -0.000
 -33103127.541 9 -24827792.30449  19947236.477    19947235.9164   19947241.4404
        -0.000          -0.000
  -6594713.323 9  -4315119.89545  23344517.720    23344517.0284   23344523.8424
        -0.000          -0.000
 -28284879.156 9 -21772095.74548  20086418.113    20086417.2534   20086422.9054
        -0.000          -0.000
 -22459585.293 9 -17477618.73148  21071640.799    21071640.5874   21071645.9254
        -0.000          -0.000
 97  3 10  2 36 59.9960000  0  6 30 24  5 17 10  6                  -0.003036295
 -32634044.760 9 -25145226.62549  19519097.658    19519097.7904   19519102.5164
        -0.000          -0.000
 -25977646.758 9 -19624269.51247  21461863.530    21461863.3114   21461869.0454
        -0.000          -0.000
 -33063932.032 9 -24797250.35949  19954695.129    19954694.5824   19954700.1014
        -0.000          -0.000
  -6699506.590 9  -4396776.96846  23324576.143    23324575.5334   23324582.3254
        -0.000          -0.000
 -28302366.874 9 -21785722.52248  20083090.310    20083089.4464   20083095.0994
        -0.000          -0.000
 -22541176.602 9 -17541196.35648  21056114.516    21056114.2864   21056119.6324
        -0.000          -0.000
 97  3 10  2 37 29.9960000  0  6 30 24  5 17 10  6                  -0.003048402
 -32654994.428 9 -25161551.04149  19515111.034    19515111.1804   19515115.9204
        -0.000          -0.000
 -25923719.563 9 -19582248.31247  21472125.517    21472125.2974   21472131.0394
        -0.000          -0.000
 -33024280.859 9 -24766353.34849  19962240.490    19962239.9494   19962245.4674
        -0.000          -0.000
  -6804116.458 9  -4478291.09646  23304669.545    23304668.8544   23304675.6404
        -0.000          -0.000
 -28319259.393 9 -21798885.50548  20079875.722    20079874.8824   20079880.5334
        -0.000          -0.000
 -22622703.953 9 -17604724.13448  21040600.308    21040600.1064   21040605.4364
        -0.000          -0.000
 97  3 10  2 37 59.9960000  0  6 30 24  5 17 10  6                  -0.003060504
 -32675329.155 9 -25177396.28449  19511241.448    19511241.5894   19511246.3524
        -0.000          -0.000
 -25869708.228 9 -19540161.55447  21482403.550    21482403.3424   21482409.0554
        -0.000          -0.000
 -32984183.764 9 -24735108.86549  19969870.734    19969870.1674   19969875.7084
        -0.000          -0.000
  -6908540.461 9  -4559660.40846  23284798.348    23284797.6304   23284804.4164
        -0.000          -0.000
 -28335559.712 9 -21811587.03448  20076773.855    20076773.0194   20076778.6434
        -0.000          -0.000
 -22704167.337 9 -17668202.07648  21025098.340    21025098.1574   21025103.4524
        -0.000          -0.000
 97  3 10  2 38 29.9960000  0  6 30 24  5 17 10  6                  -0.003072618
 -32695064.308 9 -25192774.32649  19507485.975    19507486.1184   19507490.8724
        -0.000          -0.000
 -25815649.084 9 -19498037.54047  21492690.683    21492690.4504   21492696.1774
        -0.000          -0.000
 -32943643.113 9 -24703518.75449  19977585.315    19977584.7564   19977590.3184
        -0.000          -0.000
  -7012784.593 9  -4640889.55246  23264961.280    23264960.6434   23264967.2984
        -0.000          -0.000
 -28351289.859 9 -21823844.27548  20073780.515    20073779.6624   20073785.2834
        -0.000          -0.000
 -22785580.731 9 -17731641.06048  21009605.867    21009605.6834   21009610.9804
        -0.000          -0.000
 97  3 10  2 38 59.9960000  0  6 30 24  5 17 10  6                  -0.003084754
 -32714189.242 9 -25207676.87349  19503846.639    19503846.7784   19503851.5044
        -0.000          -0.000
 -25761548.497 9 -19455881.23047  21502985.672    21502985.4534   21502991.1754
        -0.000          -0.000
 -32902641.707 9 -24671569.62149  19985387.640    19985387.0744   19985392.6364
        -0.000          -0.000
  -7116850.776 9  -4721980.03246  23245158.198    23245157.5634   23245164.0824
        -0.000          -0.000
 -28366439.916 9 -21835649.50348  20070897.560    20070896.6974   20070902.3114
        -0.000          -0.000
 -22866932.298 9 -17795031.87448  20994125.183    20994125.0104   20994130.2624
        -0.000          -0.000
 97  3 10  2 39 29.9960000  0  6 30 24  5 17 10  6                  -0.003096928
 -32732714.499 9 -25222112.13949  19500321.418    19500321.5584   19500326.2824
        -0.000          -0.000
 -25707426.814 9 -19413708.49047  21513284.694    21513284.4634   21513290.1754
        -0.000          -0.000
 -32861195.387 9 -24639273.79949  19993274.594    19993274.0344   19993279.6044
        -0.000          -0.000
  -7220755.636 9  -4802944.80546  23225385.675    23225385.0614   23225391.5834
        -0.000          -0.000
 -28381021.321 9 -21847011.62448  20068122.830    20068121.9384   20068127.5294
        -0.000          -0.000
 -22948231.777 9 -17858382.09548  20978654.380    20978654.1904   20978659.4854
        -0.000          -0.000
 97  3 10  2 39 59.9960000  0  6 30 24  5 17 10  6                  -0.003109156
 -32750648.557 9 -25236086.73249  19496908.696    19496908.8314   19496913.5404
        -0.000          -0.000
 -25653285.277 9 -19371520.27347  21523587.475    21523587.2314   21523592.9394
        -0.000          -0.000
 -32819284.240 9 -24606615.77349  20001250.034    20001249.4634   20001255.0274
        -0.000          -0.000
  -7324521.830 9  -4883801.55446  23205639.624    23205639.0104   23205645.4284
        -0.000          -0.000
 -28395032.866 9 -21857929.70248  20065456.501    20065455.6144   20065461.2124
        -0.000          -0.000
 -23029460.227 9 -17921676.97448  20963197.108    20963196.9314   20963202.2114
        -0.000          -0.000
 97  3 10  2 40 29.9960000  0  6 30 24  5 17 10  6                  -0.003121426
 -32767978.648 9 -25249590.69949  19493610.878    19493611.0244   19493615.7234
        -0.000          -0.000
 -25599097.229 9 -19329295.81047  21533899.128    21533898.8824   21533904.5854
        -0.000          -0.000
 -32776864.161 9 -24573561.18249  20009322.333    20009321.7654   20009327.3514
        -0.000          -0.000
  -7428136.855 9  -4964540.46946  23185922.306    23185921.6014   23185928.1664
        -0.000          -0.000
 -28408475.000 9 -21868404.08748  20062898.530    20062897.6254   20062903.2354
        -0.000          -0.000
 -23110598.912 9 -17984901.91148  20947756.918    20947756.7404   20947761.9944
        -0.000          -0.000
 97  3 10  2 40 59.9960000  0  6 30 24  5 17 10  6                  -0.003133730
 -32784735.483 9 -25262647.97849  19490422.164    19490422.3014   19490426.9984
        -0.000          -0.000
 -25544845.933 9 -19287022.06647  21544222.791    21544222.5654   21544228.2464
        -0.000          -0.000
 -32733950.858 9 -24540122.25849  20017488.481    20017487.8924   20017493.4994
        -0.000          -0.000
  -7531628.002 9  -5045182.88946  23166228.542    23166227.8454   23166234.4344
        -0.000          -0.000
 -28421354.714 9 -21878440.22748  20060447.589    20060446.7124   20060452.3124
        -0.000          -0.000
 -23191655.008 9 -18048062.48648  20932332.417    20932332.2484   20932337.5114
        -0.000          -0.000
 97  3 10  2 41 29.9960000  0  6 30 24  5 17 10  6                  -0.003146052
 -32800927.863 9 -25275265.41849  19487340.839    19487340.9754   19487345.6824
        -0.000          -0.000
 -25490509.842 9 -19244682.25147  21554562.556    21554562.3674   21554568.0654
        -0.000          -0.000
 -32690555.203 9 -24506307.47848  20025746.380    20025745.8054   20025751.3834
        -0.000          -0.000
  -7634996.629 9  -5125729.80646  23146557.972    23146557.3414   23146564.0384
        -0.000          -0.000
 -28433668.337 9 -21888035.24948  20058104.388    20058103.4944   20058109.1044
        -0.000          -0.000
 -23272630.299 9 -18111160.09848  20916923.355    20916923.1564   20916928.4214
        -0.000          -0.000
 97  3 10  2 41 59.9960000  0  6 30 24  5 17 10  6                  -0.003158389
 -32816567.959 9 -25287452.51149  19484364.675    19484364.8154   19484369.5094
        -0.000          -0.000
 -25436110.371 9 -19202293.05147  21564914.433    21564914.2014   21564919.9574
        -0.000          -0.000
 -32646681.790 9 -24472120.41848  20034095.231    20034094.6454   20034100.2594
        -0.000          -0.000
  -7738235.866 9  -5206175.92246  23126912.219    23126911.4824   23126918.2484
        -0.000          -0.000
 -28445420.700 9 -21897192.92748  20055867.983    20055867.0924   20055872.6844
        -0.000          -0.000
 -23353532.433 9 -18174200.70348  20901528.176    20901527.9734   20901533.2224
        -0.000          -0.000
 97  3 10  2 42 29.9960000  0  6 30 24  5 17 10  6                  -0.003170720
 -32831634.905 9 -25299192.99449  19481497.519    19481497.6504   19481502.3664
        -0.000          -0.000
 -25381633.817 9 -19159843.78247  21575280.986    21575280.7444   21575286.5124
        -0.000          -0.000
 -32602350.922 9 -24437576.90048  20042531.129    20042530.5254   20042536.1414
        -0.000          -0.000
  -7841314.509 9  -5286496.90546  23107296.999    23107296.1824   23107303.0404
        -0.000          -0.000
 -28456585.481 9 -21905892.73748  20053743.356    20053742.4834   20053748.0984
        -0.000          -0.000
 -23434346.090 9 -18237172.36948  20886149.888    20886149.6404   20886154.8914
        -0.000          -0.000
 97  3 10  2 42 59.9960000  0  6 30 24  5 17 10  6                  -0.003183044
 -32846132.420 9 -25310489.76649  19478738.758    19478738.8904   19478743.6054
        -0.000          -0.000
 -25327087.218 9 -19117339.93247  21585660.879    21585660.6084   21585666.3544
        -0.000          -0.000
 -32557598.469 9 -24402704.87048  20051047.224    20051046.6294   20051052.2594
        -0.000          -0.000
  -7944233.736 9  -5366693.68446  23087712.048    23087711.4304   23087718.1494
        -0.000          -0.000
 -28467141.940 9 -21914118.53848  20051734.524    20051733.6644   20051739.2744
        -0.000          -0.000
 -23515073.477 9 -18300076.80948  20870787.930    20870787.6944   20870792.9404
        -0.000          -0.000
 97  3 10  2 43 29.9960000  0  6 30 24  5 17 10  6                  -0.003195367
 -32860054.084 9 -25321337.82149  19476089.532    19476089.6744   19476094.4014
        -0.000          -0.000
 -25272499.654 9 -19074804.17347  21596048.517    21596048.2474   21596054.0284
        -0.000          -0.000
 -32512439.504 9 -24367516.06948  20059640.674    20059640.0904   20059645.7084
        -0.000          -0.000
  -8046979.547 9  -5446755.30346  23068160.205    23068159.5554   23068166.2104
        -0.000          -0.000
 -28477096.898 9 -21921875.63448  20049840.126    20049839.2654   20049844.8574
        -0.000          -0.000
 -23595730.393 9 -18362926.34148  20855439.406    20855439.1804   20855444.4064
        -0.000          -0.000
 97  3 10  2 43 59.9960000  0  6 30 24  5 17 10  6                  -0.003207692
 -32873394.818 9 -25331733.20749  19473550.868    19473551.0014   19473555.7374
        -0.000          -0.000
 -25217882.580 9 -19032245.42047  21606441.776    21606441.5324   21606447.3004
        -0.000          -0.000
 -32466878.054 9 -24332013.65148  20068310.773    20068310.1884   20068315.8114
        -0.000          -0.000
  -8149544.474 9  -5526676.01046  23048642.699    23048642.0474   23048648.6924
        -0.000          -0.000
 -28486449.598 9 -21929163.44448  20048060.375    20048059.5174   20048065.1004
        -0.000          -0.000
 -23676324.877 9 -18425727.22648  20840102.775    20840102.5474   20840107.8174
        -0.000          -0.000
 97  3 10  2 44 29.9960000  0  6 30 24  5 17 10  6                  -0.003220013
 -32886147.864 9 -25341670.65449  19471124.053    19471124.1914   19471128.9124
        -0.000          -0.000
 -25163212.258 9 -18989645.16647  21616845.214    21616844.9504   21616850.7074
        -0.000          -0.000
 -32420920.058 9 -24296202.23648  20077056.301    20077055.7134   20077061.3164
        -0.000          -0.000
  -8251933.271 9  -5606459.45246  23029158.769    23029158.0664   23029164.7554
        -0.000          -0.000
 -28495201.955 9 -21935983.45148  20046394.846    20046393.9704   20046399.5654
        -0.000          -0.000
 -23756855.027 9 -18488477.98148  20824778.401    20824778.1664   20824783.4194
        -0.000          -0.000
 97  3 10  2 44 59.9960000  0  6 30 24  5 17 10  6                  -0.003232328
 -32898309.363 9 -25351147.15449  19468809.810    19468809.9334   19468814.6644
        -0.000          -0.000
 -25108488.936 9 -18947003.61147  21627258.698    21627258.4414   21627264.2024
        -0.000          -0.000
 -32374545.290 9 -24260066.06248  20085881.176    20085880.5644   20085886.1774
        -0.000          -0.000
  -8354138.429 9  -5686099.80746  23009709.739    23009709.0104   23009715.7044
        -0.000          -0.000
 -28503360.863 9 -21942341.02748  20044842.255    20044841.3754   20044846.9924
        -0.000          -0.000
 -23837320.051 9 -18551177.98348  20809466.386    20809466.1374   20809471.3864
        -0.000          -0.000
 97  3 10  2 45 29.9960000  0  6 30 24  5 17 10  6                  -0.003244625
 -32909859.549 9 -25360147.30649  19466611.868    19466612.0054   19466616.7504
        -0.000          -0.000
 -25053702.113 9 -18904312.57247  21637684.276    21637684.0134   21637689.7754
        -0.000          -0.000
 -32327732.385 9 -24223588.48348  20094789.383    20094788.7874   20094794.4154
        -0.000          -0.000
  -8456131.803 9  -5765575.12746  22990301.005    22990300.2864   22990306.9394
        -0.000          -0.000
 -28510918.622 9 -21948230.17848  20043404.020    20043403.1614   20043408.7764
        -0.000          -0.000
 -23917695.027 9 -18613807.82148  20794171.523    20794171.2954   20794176.5444
        -0.000          -0.000
 97  3 10  2 45 59.9960000  0  6 30 24  5 17 10  6                  -0.003256922
 -32920815.168 9 -25368684.15949  19464527.124    19464527.2584   19464532.0014
        -0.000          -0.000
 -24998867.342 9 -18861584.18147  21648118.998    21648118.6894   21648124.4864
        -0.000          -0.000
 -32280497.170 9 -24186781.83248  20103777.943    20103777.3444   20103782.9584
        -0.000          -0.000
  -8557938.709 9  -5844905.15646  22970927.766    22970927.0684   22970933.7194
        -0.000          -0.000
 -28517897.692 9 -21953668.40348  20042075.957    20042075.0704   20042080.6794
        -0.000          -0.000
 -23997981.043 9 -18676368.34148  20778893.582    20778893.3624   20778898.5844
        -0.000          -0.000
 97  3 10  2 46 29.9960000  0  6 30 24  5 17 10  6                  -0.003269224
 -32931182.863 9 -25376762.88949  19462554.226    19462554.3444   19462559.0944
        -0.000          -0.000
 -24943987.036 9 -18818820.30247  21658562.329    21658562.0604   21658567.8684
        -0.000          -0.000
 -32232826.565 9 -24149635.91548  20112849.395    20112848.7844   20112854.3964
        -0.000          -0.000
  -8659562.380 9  -5924092.38946  22951589.401    22951588.7564   22951595.3094
        -0.000          -0.000
 -28524304.077 9 -21958660.38048  20040856.877    20040855.9744   20040861.5714
        -0.000          -0.000
 -24078154.380 9 -18738841.05248  20763637.086    20763636.8834   20763642.1084
        -0.000          -0.000
 97  3 10  2 46 59.9960000  0  6 30 24  5 17 10  6                  -0.003281540
 -32940970.767 9 -25384389.83049  19460691.676    19460691.7934   19460696.5494
        -0.000          -0.000
 -24889088.080 9 -18776041.88847  21669009.244    21669008.9774   21669014.7924
        -0.000          -0.000
 -32184726.902 9 -24112155.66648  20122002.447    20122001.8584   20122007.4554
        -0.000          -0.000
  -8761002.423 9  -6003136.54746  22932285.960    22932285.2904   22932291.8564
        -0.000          -0.000
 -28530138.098 9 -21963206.35948  20039746.693    20039745.7634   20039751.3734
        -0.000          -0.000
 -24158220.900 9 -18801230.53748  20748400.898    20748400.7214   20748405.9224
        -0.000          -0.000
 97  3 10  2 47 29.9960000  0  6 30 24  5 17 10  6                  -0.003293875
 -32950181.221 9 -25391566.81549  19458938.964    19458939.0874   19458943.8554
        -0.000          -0.000
 -24834173.032 9 -18733250.94647  21679459.252    21679458.9534   21679464.7914
        -0.000          -0.000
 -32136193.720 9 -24074337.60448  20131238.019    20131237.4344   20131242.9914
        -0.000          -0.000
  -8862268.708 9  -6082045.30646  22913015.544    22913014.8514   22913021.4574
        -0.000          -0.000
 -28535393.108 9 -21967301.16148  20038746.660    20038745.7654   20038751.3734
        -0.000          -0.000
 -24238188.662 9 -18863543.06748  20733183.507    20733183.3164   20733188.5224
        -0.000          -0.000
 97  3 10  2 47 59.9960000  0  6 30 24  5 17 10  6                  -0.003306224
 -32958799.484 9 -25398282.35249  19457298.940    19457299.0724   19457303.8344
        -0.000          -0.000
 -24779214.686 9 -18690426.25347  21689917.440    21689917.1834   21689923.0404
        -0.000          -0.000
 -32087205.036 9 -24036164.60748  20140560.261    20140559.6614   20140565.2154
        -0.000          -0.000
  -8963363.812 9  -6160820.68646  22893777.824    22893777.0984   22893783.6334
        -0.000          -0.000
 -28540060.199 9 -21970937.84548  20037858.518    20037857.6304   20037863.2444
        -0.000          -0.000
 -24318046.883 9 -18925770.24148  20717986.995    20717986.7964   20717992.0114
        -0.000          -0.000
 97  3 10  2 48 29.9960000  0  6 30 24  5 17 10  6                  -0.003318592
 -32966830.446 9 -25404540.25149  19455770.694    19455770.8304   19455775.6114
        -0.000          -0.000
 -24724221.075 9 -18647574.09147  21700382.353    21700382.0984   21700387.9444
        -0.000          -0.000
 -32037771.677 9 -23997645.11348  20149967.076    20149966.4784   20149972.0374
        -0.000          -0.000
  -9064295.967 9  -6239469.09446  22874571.081    22874570.3254   22874576.8784
        -0.000          -0.000
 -28544137.218 9 -21974114.73648  20037082.681    20037081.7974   20037087.4084
        -0.000          -0.000
 -24397803.919 9 -18987918.56348  20702809.681    20702809.4834   20702814.7244
        -0.000          -0.000
 97  3 10  2 48 59.9960000  0  6 30 24  5 17 10  6                  -0.003330974
 -32974263.281 9 -25410332.07649  19454356.269    19454356.4294   19454361.1984
        -0.000          -0.000
 -24669184.457 9 -18604688.41047  21710855.478    21710855.2184   21710861.0424
        -0.000          -0.000
 -31987906.073 9 -23958788.81248  20159456.208    20159455.6194   20159461.1854
        -0.000          -0.000
  -9165058.021 9  -6317984.92746  22855396.647    22855395.9894   22855402.5404
        -0.000          -0.000
 -28547613.797 9 -21976823.75248  20036421.085    20036420.2054   20036425.8234
        -0.000          -0.000
 -24477467.557 9 -19049994.12048  20687650.244    20687650.0284   20687655.2664
        -0.000          -0.000
 97  3 10  2 49 29.9960000  0  6 30 24  5 17 10  6                  -0.003343372
 -32981108.698 9 -25415666.17349  19453053.654    19453053.7914   19453058.5584
        -0.000          -0.000
 -24614095.524 9 -18561761.97047  21721338.561    21721338.2904   21721344.1084
        -0.000          -0.000
 -31937628.131 9 -23919611.20748  20169023.773    20169023.1664   20169028.7594
        -0.000          -0.000
  -9265672.390 9  -6396385.71946  22836250.315    22836249.6344   22836256.1374
        -0.000          -0.000
 -28550519.419 9 -21979087.86548  20035868.134    20035867.2684   20035872.8794
        -0.000          -0.000
 -24557051.028 9 -19112007.20948  20672506.007    20672505.8024   20672511.0294
        -0.000          -0.000
 97  3 10  2 49 59.9960000  0  6 30 24  5 17 10  6                  -0.003355780
 -32987363.056 9 -25420539.70549  19451863.461    19451863.6054   19451868.3574
        -0.000          -0.000
 -24558947.352 9 -18518789.36347  21731832.914    21731832.6454   21731838.4654
        -0.000          -0.000
 -31886944.260 9 -23880117.29348  20178668.573    20178667.9694   20178673.5904
        -0.000          -0.000
  -9366129.262 9  -6474663.76446  22817134.001    22817133.3384   22817139.7284
        -0.000          -0.000
 -28552858.852 9 -21980910.79548  20035422.947    20035422.0764   20035427.6844
        -0.000          -0.000
 -24636538.874 9 -19173945.78448  20657380.010    20657379.7644   20657384.9814
        -0.000          -0.000
 97  3 10  2 50 29.9960000  0  6 30 24  5 17 10  6                  -0.003368216
 -32993062.935 9 -25424981.17449  19450778.819    19450778.9764   19450783.7094
        -0.000          -0.000
 -24503788.670 9 -18475808.57147  21742329.239    21742328.9994   21742334.8144
        -0.000          -0.000
 -31835887.740 9 -23840333.00648  20188384.259    20188383.6934   20188389.3194
        -0.000          -0.000
  -9466450.305 9  -6552835.97146  22798043.433    22798042.7944   22798049.2474
        -0.000          -0.000
 -28554664.291 9 -21982317.62648  20035079.393    20035078.5244   20035084.1254
        -0.000          -0.000
 -24715972.932 9 -19235842.44248  20642264.203    20642263.9584   20642269.1984
        -0.000          -0.000
 97  3 10  2 50 59.9960000  0  6 30 24  5 17 10  6                  -0.003380646
 -32998170.384 9 -25428961.01449  19449806.895    19449807.0294   19449811.7904
        -0.000          -0.000
 -24448572.790 9 -18432783.21247  21752836.396    21752836.1954   21752842.0474
        -0.000          -0.000
 -31784411.837 9 -23800221.92848  20198179.803    20198179.2514   20198184.8794
        -0.000          -0.000
  -9566594.129 9  -6630870.09046  22778986.658    22778986.1164   22778992.5484
        -0.000          -0.000
 -28555908.067 9 -21983286.80248  20034842.678    20034841.7884   20034847.4154
        -0.000          -0.000
 -24795315.505 9 -19297667.81248  20627165.810    20627165.5704   20627170.7924
        -0.000          -0.000
 97  3 10  2 51 29.9960000  0  6 30 24  5 17 10  6                  -0.003393080
 -33002693.959 9 -25432485.88749  19448946.077    19448946.2154   19448950.9814
        -0.000          -0.000
 -24393315.231 9 -18389725.37847  21763351.490    21763351.3154   21763357.1794
        -0.000          -0.000
 -31732511.405 9 -23759780.04748  20208056.159    20208055.5744   20208061.2364
        -0.000          -0.000
  -9666568.872 9  -6708772.46146  22759962.105    22759961.5464   22759967.9044
        -0.000          -0.000
 -28556594.691 9 -21983821.83148  20034712.023    20034711.1384   20034716.7504
        -0.000          -0.000
 -24874567.052 9 -19359422.25148  20612084.687    20612084.4814   20612089.7054
        -0.000          -0.000
 97  3 10  2 51 59.9960000  0  6 30 24  5 17 10  6                  -0.003405541
 -33006653.013 9 -25435570.87249  19448192.669    19448192.8164   19448197.6014
        -0.000          -0.000
 -24338063.108 9 -18346671.77147  21773865.664    21773865.4874   21773871.3134
        -0.000          -0.000
 -31680189.953 9 -23719010.09748  20218012.575    20218012.0014   20218017.6664
        -0.000          -0.000
  -9766383.935 9  -6786550.39246  22740967.922    22740967.2764   22740973.7394
        -0.000          -0.000
 -28556724.054 9 -21983922.62848  20034687.419    20034686.4954   20034692.1354
        -0.000          -0.000
 -24953728.905 9 -19421106.79948  20597020.656    20597020.4604   20597025.6894
        -0.000          -0.000
 97  3 10  2 52 29.9960000  0  6 30 24  5 17 10  6                  -0.003418021
 -33010028.196 9 -25438200.89649  19447550.410    19447550.5514   19447555.3364
        -0.000          -0.000
 -24282803.598 9 -18303612.41647  21784381.243    21784381.0464   21784386.8514
        -0.000          -0.000
 -31627440.005 9 -23677906.25848  20228050.602    20228050.0224   20228055.6844
        -0.000          -0.000
  -9866022.555 9  -6864190.84146  22722007.272    22722006.6124   22722013.1074
        -0.000          -0.000
 -28556281.768 9 -21983577.98348  20034771.575    20034770.6774   20034776.3234
        -0.000          -0.000
 -25032783.655 9 -19482707.88548  20581977.023    20581976.8144   20581982.0584
        -0.000          -0.000
 97  3 10  2 52 59.9960000  0  6 30 24  5 17 10  6                  -0.003430516
 -33012804.356 9 -25440364.14449  19447022.078    19447022.2274   19447027.0204
        -0.000          -0.000
 -24227512.422 9 -18260528.38547  21794902.818    21794902.6234   21794908.3904
        -0.000          -0.000
 -31574264.089 9 -23636470.49948  20238169.628    20238169.0474   20238174.7134
        -0.000          -0.000
  -9965476.716 9  -6941687.56146  22703081.726    22703081.0944   22703087.5994
        -0.000          -0.000
 -28555243.104 9 -21982768.63248  20034969.187    20034968.2904   20034973.9614
        -0.000          -0.000
 -25111695.236 9 -19544197.42148  20566960.640    20566960.4404   20566965.6424
        -0.000          -0.000
 97  3 10  2 53 29.9960000  0  6 30 24  5 17 10  6                  -0.003443029
 -33014984.080 9 -25442062.63949  19446607.322    19446607.4644   19446612.2684
        -0.000          -0.000
 -24172194.493 9 -18217423.50647  21805429.419    21805429.2354   21805434.9864
        -0.000          -0.000
 -31520672.964 9 -23594711.20348  20248367.684    20248367.1174   20248372.7804
        -0.000          -0.000
 -10064745.350 9  -7019039.70146  22684191.418    22684190.8014   22684197.4284
        -0.000          -0.000
 -28553608.609 9 -21981495.00048  20035280.203    20035279.3254   20035284.9884
        -0.000          -0.000
 -25190464.604 9 -19605576.13348  20551971.303    20551971.1064   20551976.3104
        -0.000          -0.000
 97  3 10  2 53 59.9960000  0  6 30 24  5 17 10  6                  -0.003455564
 -33016589.872 9 -25443313.91249  19446301.743    19446301.8854   19446306.6854
        -0.000          -0.000
 -24116864.930 9 -18174309.57147  21815958.252    21815958.1064   21815963.8484
        -0.000          -0.000
 -31466695.303 9 -23552650.70648  20258639.300    20258638.7364   20258644.4134
        -0.000          -0.000
 -10163845.569 9  -7096260.62746  22665333.221    22665332.5874   22665339.2854
        -0.000          -0.000
 -28551410.306 9 -21979782.03048  20035698.513    20035697.6554   20035703.3104
        -0.000          -0.000
 -25269113.280 9 -19666860.80748  20537004.972    20537004.7874   20537009.9644
        -0.000          -0.000
 97  3 10  2 54 29.9960000  0  6 30 24  5 17 10  6                  -0.003468108
 -33017621.036 9 -25444117.42749  19446105.523    19446105.6814   19446110.4714
        -0.000          -0.000
 -24061501.413 9 -18131169.16847  21826493.543    21826493.4134   21826499.1554
        -0.000          -0.000
 -31412336.506 9 -23510293.21748  20268983.452    20268982.8954   20268988.5864
        -0.000          -0.000
 -10262780.578 9  -7173352.79946  22646506.498    22646505.8104   22646512.5144
        -0.000          -0.000
 -28548650.852 9 -21977631.80148  20036223.651    20036222.7724   20036228.4244
        -0.000          -0.000
 -25347653.637 9 -19728061.06748  20522059.230    20522059.0144   20522064.2064
        -0.000          -0.000
 97  3 10  2 54 59.9960000  0  6 30 24  5 17 10  6                  -0.003480669
 -33018087.701 9 -25444481.06749  19446016.744    19446016.8934   19446021.6984
        -0.000          -0.000
 -24006116.534 9 -18088012.11947  21837032.988    21837032.8074   21837038.6054
        -0.000          -0.000
 -31357590.150 9 -23467633.73348  20279401.366    20279400.8134   20279406.4994
        -0.000          -0.000
 -10361559.627 9  -7250323.45146  22627709.485    22627708.7834   22627715.4834
        -0.000          -0.000
 -28545334.392 9 -21975047.54348  20036854.787    20036853.9154   20036859.5304
        -0.000          -0.000
 -25426088.674 9 -19789179.26448  20507133.523    20507133.2974   20507138.5294
        -0.000          -0.000
 97  3 10  2 55 29.9960000  0  6 30 24  5 17 10  6                  -0.003493235
 -33017989.041 9 -25444404.20349  19446035.516    19446035.6604   19446040.4654
        -0.000          -0.000
 -23950717.073 9 -18044843.70947  21847575.196    21847574.9694   21847580.8004
        -0.000          -0.000
 -31302441.541 9 -23424660.80848  20289895.799    20289895.2384   20289900.9404
        -0.000          -0.000
 -10460168.487 9  -7327161.49146  22608944.873    22608944.2144   22608950.8214
        -0.000          -0.000
 -28541471.342 9 -21972037.37648  20037589.901    20037589.0164   20037594.6204
        -0.000          -0.000
 -25504427.497 9 -19850222.49548  20492226.096    20492225.8874   20492231.0994
        -0.000          -0.000
 97  3 10  2 55 59.9960000  0  6 30 24  5 17 10  6                  -0.003505803
 -33017312.579 9 -25443877.09849  19446164.238    19446164.3904   19446169.1924
        -0.000          -0.000
 -23895299.473 9 -18001661.17047  21858120.765    21858120.6284   21858126.4254
        -0.000          -0.000
 -31246894.095 9 -23381377.09548  20300466.175    20300465.6204   20300471.2844
        -0.000          -0.000
 -10558592.363 9  -7403855.38846  22590215.386    22590214.7694   22590221.3324
        -0.000          -0.000
 -28537051.808 9 -21968593.58348  20038430.883    20038430.0144   20038435.6194
        -0.000          -0.000
 -25582664.192 9 -19911186.14148  20477338.169    20477337.9744   20477343.1714
        -0.000          -0.000
 97  3 10  2 56 29.9960000  0  6 30 24  5 17 10  6                  -0.003518375
 -33016062.027 9 -25442902.65349  19446402.242    19446402.3864   19446407.1644
        -0.000          -0.000
 -23839866.041 9 -17958466.27847  21868669.377    21868669.2554   21868675.0854
        -0.000          -0.000
 -31190973.929 9 -23337802.95748  20311107.433    20311106.8534   20311112.5134
        -0.000          -0.000
 -10656834.732 9  -7480407.84646  22571520.472    22571519.8024   22571526.3994
        -0.000          -0.000
 -28532073.576 9 -21964714.43848  20039378.174    20039377.3284   20039382.9344
        -0.000          -0.000
 -25660806.132 9 -19972075.95248  20462468.245    20462468.0584   20462473.2254
        -0.000          -0.000
 97  3 10  2 56 59.9960000  0  6 30 24  5 17 10  6                  -0.003530939
 -33014230.155 9 -25441475.23449  19446750.818    19446750.9744   19446755.7354
        -0.000          -0.000
 -23784415.993 9 -17915258.45547  21879221.203    21879221.0804   21879226.8784
        -0.000          -0.000
 -31134684.287 9 -23293940.91648  20321819.045    20321818.4484   20321824.0954
        -0.000          -0.000
 -10754870.495 9  -7556799.31946  22552864.865    22552864.1874   22552870.7074
        -0.000          -0.000
 -28526527.773 9 -21960393.03048  20040433.489    20040432.6174   20040438.2714
        -0.000          -0.000
 -25738835.917 9 -20032878.37048  20447619.659    20447619.4484   20447624.6284
        -0.000          -0.000
 97  3 10  2 57 29.9960000  0  6 30 24  5 17 10  6                  -0.003543476
 -33011808.150 9 -25439587.97049  19447211.741    19447211.8854   19447216.6744
        -0.000          -0.000
 -23728931.387 9 -17872023.69647  21889779.555    21889779.4414   21889785.2794
        -0.000          -0.000
 -31078023.591 9 -23249789.73548  20332601.225    20332600.6234   20332606.2654
        -0.000          -0.000
 -10852676.468 9  -7633011.72946  22534252.958    22534252.3024   22534258.7904
        -0.000          -0.000
 -28520402.481 9 -21955620.07448  20041599.119    20041598.2504   20041603.8724
        -0.000          -0.000
 -25816752.356 9 -20093592.47148  20432792.651    20432792.4524   20432797.6224
        -0.000          -0.000
 97  3 10  2 57 59.9960000  0  6 30 24  5 17 10  6                  -0.003555996
 -33008784.908 9 -25437232.20749  19447787.038    19447787.1874   19447791.9984
        -0.000          -0.000
 -23673407.962 9 -17828758.69047  21900345.365    21900345.1964   21900351.0664
        -0.000          -0.000
 -31020994.392 9 -23205351.40748  20343453.537    20343452.9414   20343458.5784
        -0.000          -0.000
 -10950260.292 9  -7709051.03946  22515683.326    22515682.6684   22515689.1514
        -0.000          -0.000
 -28513688.255 9 -21950388.20948  20042876.798    20042875.9264   20042881.5204
        -0.000          -0.000
 -25894541.701 9 -20154207.53848  20417989.831    20417989.6204   20417994.8024
        -0.000          -0.000
